[[{"header":{"parameterUnit":"m.s-1","parameterCategory":1,"la1":31.0,"la2":29.5877,"lo1":-88.7671,"lo2":-86.6584,"dy":0.0162,"dx":0.0185,"nx":115,"ny":88,"refTime":"2024-04-20T00:00:00:Z","depth":0,"parameterNumber":2,"parameterNumberName":"U-component_of_WINDS"},"data":[0.0,0.0,0.0,0.0,0.0,0.0,0.0,0.0,0.0,0.0,0.0,0.0,0.0,0.0,0.0,0.0,0.0,0.0,0.0,0.0,0.0,0.0,0.0,0.0,0.0,0.0,0.0,0.0,0.0,0.0,0.0,0.0,0.0,0.0,0.0,0.0,0.0,0.0,0.0,0.0,0.0,0.0,0.0,0.0,0.0,0.0,0.0,0.0,0.0,0.0,0.0,0.0,0.0,0.0,0.0,0.0,0.0,0.0,0.0,0.0,0.0,0.0,0.0,0.0,0.0,0.0,0.0,0.0,0.0,0.0,0.0,0.0,0.0,0.0,0.0,0.0,0.0,0.0,0.0,0.0,0.0,0.0,0.0,0.0,0.0,0.0,0.0,0.0,0.0,0.0,0.0,0.0,0.0,0.0,0.0,0.0,0.0,0.0,0.0,0.0,0.0,0.0,0.0,0.0,0.0,0.0,0.0,0.0,0.0,0.0,0.0,0.0,0.0,0.0,0.0,0.0,0.0,0.0,0.0,0.0,0.0,0.0,0.0,0.0,0.0,0.0,0.0,0.0,0.0,0.0,0.0,0.0,0.0,0.0,0.0,0.0,0.0,0.0,0.0,0.0,0.0,0.0,0.0,0.0,0.0,0.0,0.0,0.0,0.0,0.0,0.0,0.0,0.0,0.0,0.0,0.0,0.0,0.0,0.0,0.0,0.0,0.0,0.0,0.0,0.0,0.0,0.0,0.0,0.0,0.0,0.0,0.0,0.0,0.0,0.0,0.0,0.0,0.0,0.0,0.0,0.0,0.0,0.0,0.0,0.0,0.0,0.0,0.0,0.0,0.0,0.0,0.0,0.0,0.0,0.0,0.0,0.0,0.0,0.0,0.0,0.0,0.0,0.0,0.0,0.0,0.0,0.0,0.0,0.0,0.0,0.0,0.0,0.0,0.0,0.0,0.0,0.0,0.0,0.0,0.0,0.0,0.0,0.0,0.0,0.0,0.0,0.0,0.0,0.0,0.0,0.0,0.0,0.0,0.0,0.0,0.0,0.0,0.0,0.0,0.0,0.0,0.0,0.0,0.0,0.0,0.0,0.0,0.0,0.0,0.0,0.0,0.0,0.0,0.0,0.0,0.0,0.0,0.0,0.0,0.0,0.0,0.0,0.0,0.0,0.0,0.0,0.0,0.0,0.0,0.0,0.0,0.0,0.0,0.0,0.0,0.0,0.0,0.0,0.0,0.0,0.0,0.0,0.0,0.0,0.0,0.0,0.0,0.0,0.0,0.0,0.0,0.0,0.0,0.0,0.0,0.0,0.0,0.0,0.0,0.0,0.0,0.0,0.0,0.0,0.0,0.0,0.0,0.0,0.0,0.0,0.0,0.0,0.0,0.0,0.0,0.0,0.0,0.0,0.0,0.0,0.0,0.0,0.0,0.0,0.0,0.0,0.0,0.0,0.0,0.0,0.0,0.0,0.0,0.0,0.0,0.0,0.0,0.0,0.0,0.0,0.0,0.0,0.0,0.0,0.0,0.0,0.0,0.0,0.0,0.0,0.0,0.0,0.0,0.0,0.0,0.0,0.0,0.0,0.0,0.0,0.0,0.0,0.0,0.0,0.0,0.0,0.0,0.0,0.0,0.0,0.0,0.0,0.0,0.0,0.0,0.0,0.0,0.0,0.0,0.0,0.0,0.0,0.0,0.0,0.0,0.0,0.0,0.0,0.0,0.0,0.0,0.0,0.0,0.0,0.0,0.0,0.0,0.0,0.0,0.0,0.0,0.0,0.0,0.0,0.0,0.0,0.0,0.0,0.0,0.0,0.0,0.0,0.0,0.0,0.0,0.0,0.0,0.0,0.0,0.0,0.0,0.0,0.0,0.0,0.0,0.0,0.0,0.0,0.0,0.0,0.0,0.0,0.0,0.0,0.0,0.0,0.0,0.0,0.0,0.0,0.0,0.0,0.0,0.0,0.0,0.0,0.0,0.0,0.0,0.0,0.0,0.0,0.0,0.0,0.0,0.0,0.0,0.0,0.0,0.0,0.0,0.0,0.0,0.0,0.0,0.0,0.0,0.0,0.0,0.0,0.0,0.0,0.0,0.0,0.0,0.0,0.0,0.0,0.0,0.0,0.0,0.0,0.0,0.0,0.0,0.0,0.0,0.0,0.0,0.0,0.0,0.0,0.0,0.0,0.0,0.0,0.0,0.0,0.0,0.0,0.0,0.0,0.0,0.0,0.0,0.0,0.0,0.0,0.0,0.0,0.0,0.0,0.0,0.0,0.0,0.0,0.0,0.0,0.0,0.0,0.0,0.0,0.0,0.0,0.0,0.0,0.0,0.0,0.0,0.0,0.0,0.0,0.0,0.0,0.0,0.0,0.0,0.0,0.0,0.0,0.0,0.0,0.0,0.0,0.0,0.0,0.0,0.0,0.0,0.0,0.0,0.0,0.0,0.0,0.0,0.0,0.0,0.0,0.0,0.0,0.0,0.0,0.0,0.0,0.0,0.0,0.0,0.0,0.0,0.0,0.0,0.0,0.0,0.0,0.0,0.0,0.0,0.0,0.0,0.0,0.0,0.0,0.0,0.0,0.0,0.0,0.0,0.0,0.0,0.0,0.0,0.0,0.0,0.0,0.0,0.0,0.0,0.0,0.0,0.0,0.0,0.0,0.0,0.0,0.0,0.0,0.0,0.0,0.0,0.0,0.0,0.0,0.0,0.0,0.0,0.0,0.0,0.0,0.0,0.0,0.0,0.0,0.0,0.0,0.0,0.0,0.0,0.0,0.0,0.0,0.0,0.0,0.0,0.0,0.0,0.0,0.0,0.0,0.0,0.0,0.0,0.0,0.0,0.0,0.0,0.0,0.0,0.0,0.0,0.0,0.0,0.0,0.0,0.0,0.0,0.0,0.0,0.0,0.0,0.0,0.0,0.0,0.0,0.0,0.0,0.0,0.0,0.0,0.0,0.0,0.0,0.0,0.0,0.0,0.0,0.0,0.0,0.0,0.0,0.0,0.0,0.0,0.0,0.0,0.0,0.0,0.0,0.0,0.0,0.0,0.0,0.0,0.0,0.0,0.0,0.0,0.0,0.0,0.0,0.0,0.0,0.0,0.0,0.0,0.0,0.0,0.0,0.0,0.0,0.0,0.0,0.0,0.0,0.0,0.0,0.0,0.0,0.0,0.0,0.0,0.0,0.0,0.0,0.0,0.0,0.0,0.0,0.0,0.0,0.0,0.0,0.0,0.0,0.0,0.0,0.0,0.0,0.0,0.0,0.0,0.0,0.0,0.0,0.0,0.0,0.0,0.0,0.0,0.0,0.0,0.0,0.0,0.0,0.0,0.0,0.0,0.0,0.0,0.0,0.0,0.0,0.0,0.0,0.0,0.0,0.0,0.0,0.0,0.0,0.0,0.0,0.0,0.0,0.0,0.0,0.0,0.0,0.0,0.0,0.0,0.0,0.0,0.0,0.0,0.0,0.0,0.0,0.0,0.0,0.0,0.0,0.0,0.0,0.0,0.0,0.0,0.0,0.0,0.0,0.0,0.0,0.0,0.0,0.0,0.0,0.0,0.0,0.0,0.0,0.0,0.0,0.0,0.0,0.0,0.0,0.0,0.0,0.0,0.0,0.0,0.0,0.0,0.0,0.0,0.0,0.0,0.0,0.0,0.0,0.0,0.0,0.0,0.0,0.0,0.0,0.0,0.0,0.0,0.0,0.0,0.0,0.0,0.0,0.0,0.0,0.0,0.0,0.0,0.0,0.0,0.0,0.0,0.0,0.0,0.0,0.0,0.0,0.0,0.0,0.0,0.0,0.0,0.0,0.0,0.0,0.0,0.0,0.0,0.0,0.0,0.0,0.0,0.0,0.0,0.0,0.0,0.0,0.0,0.0,0.0,0.0,0.0,0.0,0.0,0.0,0.0,0.0,0.0,0.0,0.0,0.0,0.0,0.0,0.0,0.0,0.0,0.0,0.0,0.0,0.0,0.0,0.0,0.0,0.0,0.0,0.0,0.0,0.0,0.0,0.0,0.0,0.0,0.0,0.0,0.0,0.0,0.0,0.0,0.0,0.0,0.0,0.0,0.0,0.0,0.0,0.0,0.0,0.0,0.0,0.0,0.0,0.0,0.0,0.0,0.0,0.0,0.0,0.0,0.0,0.0,0.0,0.0,0.0,0.0,0.0,0.0,0.0,0.0,0.0,0.0,0.0,0.0,0.0,0.0,0.0,0.0,0.0,0.0,0.0,0.0,0.0,0.0,0.0,0.0,0.0,0.0,-0.9099,0.0,0.0,0.0,0.0,0.0,0.0,0.0,0.0,0.0,0.0,0.0,0.0,0.0,0.0,0.0,0.0,0.0,0.0,0.0,0.0,0.0,0.0,0.0,0.0,0.0,0.0,0.0,0.0,0.0,0.0,0.0,0.0,0.0,0.0,0.0,0.0,0.0,0.0,0.0,0.0,0.0,0.0,0.0,0.0,0.0,0.0,0.0,0.0,0.0,0.0,0.0,0.0,0.0,0.0,0.0,0.0,0.0,0.0,0.0,0.0,0.0,0.0,0.0,0.0,0.0,0.0,0.0,0.0,0.0,0.0,0.0,0.0,0.0,0.0,0.0,0.0,0.0,0.0,0.0,0.0,0.0,0.0,0.0,0.0,0.0,0.0,0.0,0.0,0.0,0.0,0.0,0.0,0.0,0.0,0.0,0.0,0.0,0.0,0.0,0.0,0.0,0.0,0.0,0.0,0.0,0.0,0.0,0.0,0.0,0.0,-0.8948,-0.8936,-0.8975,-0.9018,-0.9038,0.0,0.0,0.0,0.0,0.0,0.0,0.0,0.0,0.0,0.0,0.0,0.0,0.0,0.0,0.0,0.0,0.0,0.0,0.0,0.0,0.0,0.0,0.0,0.0,0.0,0.0,0.0,0.0,0.0,0.0,0.0,0.0,0.0,0.0,0.0,0.0,0.0,0.0,0.0,0.0,0.0,0.0,0.0,0.0,0.0,0.0,0.0,0.0,0.0,0.0,0.0,0.0,0.0,0.0,0.0,0.0,0.0,0.0,0.0,0.0,0.0,0.0,0.0,0.0,0.0,0.0,0.0,0.0,0.0,0.0,0.0,0.0,0.0,0.0,0.0,0.0,0.0,0.0,0.0,0.0,0.0,0.0,0.0,0.0,0.0,0.0,0.0,0.0,0.0,0.0,0.0,0.0,0.0,0.0,0.0,0.0,0.0,0.0,0.0,0.0,0.0,0.0,0.0,0.0,0.0,0.0,0.0,0.0,0.0,0.0,0.0,0.0,-0.8942,-0.9007,-0.9017,0.0,0.0,0.0,0.0,0.0,0.0,0.0,0.0,0.0,0.0,0.0,0.0,0.0,0.0,0.0,0.0,0.0,0.0,0.0,0.0,0.0,0.0,0.0,0.0,0.0,0.0,0.0,0.0,0.0,0.0,0.0,0.0,0.0,0.0,0.0,0.0,0.0,0.0,0.0,0.0,0.0,0.0,0.0,0.0,0.0,0.0,0.0,0.0,0.0,0.0,0.0,0.0,0.0,0.0,0.0,0.0,0.0,0.0,0.0,0.0,0.0,0.0,0.0,0.0,0.0,0.0,0.0,0.0,0.0,0.0,0.0,0.0,0.0,0.0,0.0,0.0,0.0,0.0,0.0,0.0,0.0,0.0,0.0,0.0,0.0,0.0,0.0,0.0,0.0,0.0,0.0,0.0,0.0,0.0,0.0,0.0,0.0,0.0,0.0,0.0,0.0,0.0,0.0,0.0,0.0,0.0,0.0,0.0,0.0,0.0,-0.8863,-0.8818,-0.8936,0.0,-0.9093,0.0,0.0,0.0,0.0,0.0,0.0,0.0,0.0,0.0,0.0,0.0,0.0,0.0,0.0,0.0,0.0,0.0,0.0,0.0,0.0,0.0,0.0,0.0,0.0,0.0,0.0,0.0,0.0,0.0,0.0,0.0,0.0,0.0,0.0,0.0,0.0,0.0,0.0,0.0,0.0,0.0,0.0,0.0,0.0,0.0,0.0,0.0,0.0,0.0,0.0,0.0,0.0,0.0,0.0,0.0,0.0,0.0,0.0,0.0,0.0,0.0,0.0,0.0,0.0,0.0,0.0,0.0,0.0,0.0,0.0,0.0,0.0,0.0,0.0,0.0,0.0,0.0,0.0,0.0,0.0,0.0,0.0,0.0,0.0,0.0,0.0,0.0,0.0,0.0,0.0,0.0,0.0,0.0,0.0,0.0,0.0,0.0,0.0,0.0,0.0,0.0,0.0,0.0,0.0,0.0,0.0,0.0,0.0,0.0,0.0,-0.8852,-0.8863,-0.8984,-0.9057,0.0,0.0,0.0,0.0,0.0,0.0,0.0,0.0,0.0,0.0,0.0,0.0,0.0,0.0,0.0,0.0,0.0,0.0,0.0,0.0,0.0,0.0,0.0,0.0,0.0,0.0,0.0,0.0,0.0,0.0,0.0,0.0,0.0,0.0,0.0,0.0,0.0,0.0,0.0,0.0,0.0,0.0,0.0,0.0,0.0,0.0,0.0,0.0,0.0,0.0,0.0,0.0,0.0,0.0,0.0,0.0,0.0,0.0,0.0,0.0,0.0,0.0,0.0,0.0,0.0,0.0,0.0,0.0,0.0,0.0,0.0,0.0,0.0,0.0,0.0,0.0,0.0,0.0,0.0,0.0,0.0,0.0,0.0,0.0,0.0,0.0,0.0,0.0,0.0,0.0,0.0,0.0,0.0,0.0,0.0,0.0,0.0,0.0,0.0,0.0,0.0,0.0,0.0,0.0,0.0,0.0,0.0,0.0,0.0,0.0,-0.9088,-0.9256,-0.953,-0.9452,-0.9408,-0.9387,0.0,0.0,0.0,0.0,0.0,0.0,0.0,0.0,0.0,0.0,0.0,0.0,0.0,0.0,0.0,0.0,0.0,0.0,0.0,0.0,0.0,0.0,0.0,0.0,0.0,0.0,0.0,0.0,0.0,0.0,0.0,0.0,0.0,0.0,0.0,0.0,0.0,0.0,0.0,0.0,0.0,0.0,0.0,0.0,0.0,0.0,0.0,0.0,0.0,0.0,0.0,0.0,0.0,0.0,0.0,0.0,0.0,0.0,0.0,0.0,0.0,0.0,0.0,0.0,0.0,0.0,0.0,0.0,0.0,0.0,0.0,0.0,0.0,0.0,0.0,0.0,0.0,0.0,0.0,0.0,0.0,0.0,0.0,0.0,0.0,0.0,0.0,0.0,0.0,0.0,0.0,0.0,0.0,0.0,0.0,0.0,0.0,0.0,0.0,0.0,0.0,0.0,0.0,0.0,0.0,0.0,0.0,0.0,-0.9553,-0.9766,-1.0284,-1.1112,-1.0517,-1.0115,0.0,0.0,0.0,0.0,0.0,0.0,0.0,0.0,0.0,0.0,0.0,0.0,0.0,0.0,0.0,0.0,0.0,0.0,0.0,0.0,0.0,0.0,0.0,0.0,0.0,0.0,0.0,0.0,0.0,0.0,0.0,0.0,0.0,0.0,0.0,0.0,0.0,0.0,0.0,0.0,0.0,0.0,0.0,0.0,0.0,0.0,0.0,0.0,0.0,0.0,0.0,0.0,0.0,0.0,0.0,0.0,0.0,0.0,0.0,0.0,0.0,0.0,0.0,0.0,0.0,0.0,0.0,0.0,0.0,0.0,0.0,0.0,0.0,0.0,0.0,0.0,0.0,0.0,0.0,0.0,0.0,0.0,0.0,0.0,0.0,0.0,0.0,0.0,0.0,0.0,0.0,0.0,0.0,0.0,0.0,0.0,0.0,0.0,0.0,0.0,0.0,0.0,0.0,0.0,0.0,0.0,0.0,0.0,0.0,-1.0354,-1.0639,-1.097,-1.1341,-1.1133,-1.0768,0.0,0.0,0.0,0.0,0.0,0.0,0.0,0.0,0.0,0.0,0.0,0.0,0.0,0.0,0.0,0.0,0.0,0.0,0.0,0.0,0.0,0.0,0.0,0.0,0.0,0.0,0.0,0.0,0.0,0.0,0.0,0.0,0.0,0.0,0.0,0.0,0.0,0.0,0.0,0.0,0.0,0.0,0.0,0.0,0.0,0.0,0.0,0.0,0.0,0.0,0.0,0.0,0.0,0.0,0.0,0.0,0.0,0.0,0.0,0.0,0.0,0.0,0.0,0.0,0.0,0.0,0.0,0.0,0.0,0.0,0.0,0.0,0.0,0.0,0.0,0.0,0.0,0.0,0.0,0.0,0.0,0.0,0.0,0.0,0.0,0.0,0.0,0.0,0.0,0.0,0.0,0.0,0.0,0.0,0.0,0.0,0.0,0.0,0.0,0.0,0.0,0.0,0.0,0.0,0.0,0.0,0.0,0.0,0.0,-1.1208,0.0,-1.1761,-1.2061,-1.1885,-1.1482,0.0,0.0,0.0,0.0,0.0,0.0,0.0,0.0,0.0,0.0,0.0,0.0,0.0,0.0,0.0,0.0,0.0,0.0,0.0,0.0,0.0,0.0,0.0,0.0,0.0,0.0,0.0,0.0,0.0,0.0,0.0,0.0,0.0,0.0,0.0,0.0,0.0,0.0,0.0,0.0,0.0,0.0,0.0,0.0,0.0,0.0,0.0,0.0,0.0,0.0,0.0,0.0,0.0,0.0,0.0,0.0,0.0,0.0,0.0,0.0,0.0,0.0,0.0,0.0,0.0,0.0,0.0,0.0,0.0,0.0,0.0,0.0,0.0,0.0,0.0,0.0,0.0,0.0,0.0,0.0,0.0,0.0,0.0,0.0,0.0,0.0,0.0,0.0,0.0,0.0,0.0,0.0,0.0,0.0,0.0,0.0,0.0,0.0,0.0,0.0,0.0,0.0,0.0,0.0,0.0,0.0,0.0,0.0,-1.1075,-1.2072,-1.229,-1.2774,-1.347,-1.2813,-1.228,0.0,0.0,0.0,0.0,0.0,0.0,0.0,0.0,0.0,0.0,0.0,0.0,0.0,0.0,0.0,0.0,0.0,0.0,0.0,0.0,0.0,0.0,0.0,0.0,0.0,0.0,0.0,0.0,0.0,0.0,0.0,0.0,0.0,0.0,0.0,0.0,0.0,0.0,0.0,0.0,0.0,0.0,0.0,0.0,0.0,0.0,0.0,0.0,0.0,0.0,0.0,0.0,0.0,0.0,0.0,0.0,0.0,0.0,0.0,0.0,0.0,0.0,0.0,0.0,0.0,0.0,0.0,0.0,0.0,0.0,0.0,0.0,0.0,0.0,0.0,0.0,0.0,0.0,0.0,0.0,0.0,0.0,0.0,0.0,0.0,0.0,0.0,0.0,0.0,0.0,0.0,0.0,0.0,0.0,0.0,0.0,0.0,0.0,0.0,0.0,0.0,0.0,0.0,0.0,0.0,0.0,0.0,0.0,0.0,-1.3543,-1.4222,-1.4649,-1.477,-1.4042,-1.3307,0.0,0.0,0.0,0.0,0.0,0.0,0.0,0.0,0.0,0.0,0.0,0.0,0.0,0.0,0.0,0.0,0.0,0.0,0.0,0.0,0.0,0.0,0.0,0.0,0.0,0.0,0.0,0.0,0.0,0.0,0.0,0.0,0.0,0.0,0.0,0.0,0.0,0.0,0.0,0.0,0.0,0.0,0.0,0.0,0.0,0.0,0.0,0.0,0.0,0.0,0.0,0.0,0.0,0.0,0.0,0.0,0.0,0.0,0.0,0.0,0.0,0.0,0.0,0.0,0.0,0.0,0.0,0.0,0.0,0.0,0.0,0.0,0.0,0.0,0.0,0.0,0.0,0.0,0.0,0.0,0.0,0.0,0.0,0.0,0.0,0.0,0.0,0.0,0.0,0.0,0.0,0.0,0.0,0.0,0.0,0.0,0.0,0.0,0.0,0.0,0.0,0.0,0.0,0.0,0.0,0.0,0.0,0.0,0.0,-1.5443,-1.6119,-1.6438,-1.629,-1.5832,-1.4944,-1.3619,0.0,0.0,0.0,0.0,0.0,0.0,0.0,0.0,0.0,0.0,0.0,0.0,0.0,0.0,0.0,0.0,0.0,0.0,0.0,0.0,0.0,0.0,0.0,0.0,0.0,0.0,0.0,0.0,0.0,0.0,0.0,0.0,0.0,0.0,0.0,0.0,0.0,0.0,0.0,0.0,0.0,0.0,0.0,0.0,0.0,0.0,0.0,0.0,0.0,0.0,0.0,0.0,0.0,0.0,0.0,0.0,0.0,0.0,0.0,0.0,0.0,0.0,0.0,0.0,0.0,0.0,0.0,0.0,0.0,0.0,0.0,0.0,0.0,0.0,0.0,0.0,0.0,0.0,0.0,0.0,0.0,0.0,0.0,0.0,0.0,0.0,0.0,0.0,0.0,0.0,0.0,0.0,0.0,0.0,0.0,0.0,0.0,0.0,0.0,0.0,0.0,0.0,0.0,0.0,0.0,0.0,0.0,0.0,-1.7608,-1.8121,-1.8268,-1.7918,-1.7845,-1.6909,0.0,0.0,0.0,0.0,0.0,0.0,0.0,0.0,0.0,0.0,0.0,0.0,0.0,0.0,0.0,0.0,0.0,0.0,0.0,0.0,0.0,0.0,0.0,0.0,0.0,0.0,0.0,0.0,0.0,0.0,0.0,0.0,0.0,0.0,0.0,0.0,0.0,0.0,0.0,0.0,0.0,0.0,0.0,0.0,0.0,0.0,0.0,0.0,0.0,0.0,0.0,0.0,0.0,0.0,0.0,0.0,0.0,0.0,0.0,0.0,0.0,0.0,0.0,0.0,0.0,0.0,0.0,0.0,0.0,0.0,0.0,0.0,0.0,0.0,0.0,0.0,0.0,0.0,0.0,0.0,0.0,0.0,0.0,0.0,0.0,0.0,0.0,0.0,0.0,0.0,0.0,0.0,0.0,0.0,0.0,0.0,0.0,0.0,0.0,0.0,0.0,0.0,0.0,0.0,0.0,0.0,0.0,0.0,0.0,-1.9934,-2.2044,-2.1975,-1.9507,-1.8145,-1.6908,0.0,0.0,0.0,0.0,0.0,0.0,0.0,0.0,0.0,0.0,0.0,0.0,0.0,0.0,0.0,0.0,0.0,0.0,0.0,0.0,0.0,0.0,0.0,0.0,0.0,0.0,0.0,0.0,0.0,0.0,0.0,0.0,0.0,0.0,0.0,0.0,0.0,0.0,0.0,0.0,0.0,0.0,0.0,0.0,0.0,0.0,0.0,0.0,0.0,0.0,0.0,0.0,0.0,0.0,0.0,0.0,0.0,0.0,0.0,0.0,0.0,0.0,0.0,0.0,0.0,0.0,0.0,0.0,0.0,0.0,0.0,0.0,0.0,0.0,0.0,0.0,0.0,0.0,0.0,0.0,0.0,0.0,0.0,0.0,0.0,0.0,0.0,0.0,0.0,0.0,0.0,0.0,0.0,0.0,0.0,0.0,0.0,0.0,0.0,0.0,0.0,0.0,0.0,0.0,0.0,0.0,0.0,0.0,-2.0257,-2.1668,-2.3876,-2.4247,-2.2607,-2.08,-1.9077,0.0,0.0,0.0,0.0,0.0,0.0,0.0,0.0,0.0,0.0,0.0,0.0,0.0,0.0,0.0,0.0,0.0,0.0,0.0,0.0,0.0,0.0,0.0,0.0,0.0,0.0,0.0,0.0,0.0,0.0,0.0,0.0,0.0,0.0,0.0,0.0,0.0,0.0,0.0,0.0,0.0,0.0,0.0,0.0,0.0,0.0,0.0,0.0,0.0,0.0,0.0,0.0,0.0,0.0,0.0,0.0,0.0,0.0,0.0,0.0,0.0,0.0,0.0,0.0,0.0,0.0,0.0,0.0,0.0,0.0,0.0,0.0,0.0,0.0,0.0,0.0,0.0,0.0,0.0,0.0,0.0,0.0,0.0,0.0,0.0,0.0,0.0,0.0,0.0,0.0,0.0,0.0,0.0,0.0,0.0,0.0,0.0,0.0,0.0,0.0,0.0,0.0,0.0,0.0,0.0,0.0,0.0,0.0,-2.1602,-2.2901,-2.4523,-2.5576,-2.601,-2.4185,-2.1965,0.0,0.0,0.0,0.0,0.0,0.0,0.0,0.0,0.0,0.0,0.0,0.0,0.0,0.0,0.0,0.0,0.0,0.0,0.0,0.0,0.0,0.0,0.0,0.0,0.0,0.0,0.0,0.0,0.0,0.0,0.0,0.0,0.0,0.0,0.0,0.0,0.0,0.0,0.0,0.0,0.0,0.0,0.0,0.0,0.0,0.0,0.0,0.0,0.0,0.0,0.0,0.0,0.0,0.0,0.0,0.0,0.0,0.0,0.0,0.0,0.0,0.0,0.0,0.0,0.0,0.0,0.0,0.0,0.0,0.0,0.0,0.0,0.0,0.0,0.0,0.0,0.0,0.0,0.0,0.0,0.0,0.0,0.0,0.0,0.0,0.0,0.0,0.0,0.0,0.0,0.0,0.0,0.0,0.0,0.0,0.0,0.0,0.0,0.0,0.0,0.0,0.0,0.0,0.0,0.0,0.0,0.0,0.0,-2.2043,-2.316,-2.5609,-2.6621,-2.6018,-2.3621,-2.1493,0.0,0.0,0.0,0.0,0.0,0.0,0.0,0.0,0.0,0.0,0.0,0.0,0.0,0.0,0.0,0.0,0.0,0.0,0.0,0.0,0.0,0.0,0.0,0.0,0.0,0.0,0.0,0.0,0.0,0.0,0.0,0.0,0.0,0.0,0.0,0.0,0.0,0.0,0.0,0.0,0.0,0.0,0.0,0.0,0.0,0.0,0.0,0.0,-0.9946,0.0,0.0,0.0,0.0,0.0,0.0,0.0,0.0,0.0,0.0,0.0,0.0,0.0,0.0,0.0,0.0,0.0,0.0,0.0,0.0,0.0,0.0,0.0,0.0,0.0,0.0,0.0,0.0,0.0,0.0,0.0,0.0,0.0,0.0,0.0,0.0,0.0,0.0,0.0,0.0,0.0,0.0,0.0,0.0,0.0,0.0,0.0,0.0,0.0,0.0,0.0,0.0,0.0,0.0,0.0,0.0,0.0,0.0,0.0,-2.2605,-2.4414,-2.6012,-2.6943,-2.7104,-2.4746,-2.2595,0.0,0.0,0.0,0.0,0.0,0.0,0.0,0.0,0.0,0.0,0.0,0.0,0.0,0.0,0.0,0.0,0.0,0.0,0.0,0.0,0.0,0.0,0.0,0.0,0.0,0.0,0.0,0.0,0.0,0.0,0.0,0.0,0.0,0.0,0.0,0.0,0.0,0.0,0.0,0.0,0.0,0.0,0.0,0.0,0.0,0.0,0.0,0.0,0.0,0.0,0.0,0.0,0.0,0.0,0.0,0.0,0.0,0.0,0.0,0.0,0.0,0.0,0.0,0.0,0.0,0.0,0.0,0.0,0.0,0.0,0.0,0.0,0.0,0.0,0.0,0.0,0.0,0.0,0.0,0.0,0.0,0.0,0.0,0.0,0.0,0.0,0.0,0.0,0.0,0.0,0.0,0.0,0.0,0.0,0.0,0.0,0.0,0.0,0.0,0.0,0.0,0.0,0.0,0.0,0.0,0.0,0.0,-2.0708,-2.3229,-2.5897,-2.6271,-2.7052,-2.8333,-2.6226,-2.4137,-2.2163,0.0,0.0,0.0,0.0,0.0,0.0,0.0,0.0,0.0,0.0,0.0,0.0,0.0,0.0,0.0,0.0,0.0,0.0,0.0,0.0,0.0,0.0,0.0,0.0,0.0,0.0,0.0,0.0,0.0,0.0,0.0,0.0,0.0,0.0,0.0,0.0,0.0,0.0,-0.8219,-0.8903,0.0,0.0,0.0,0.0,0.0,0.0,0.0,0.0,-1.1606,0.0,0.0,0.0,0.0,0.0,0.0,0.0,0.0,0.0,0.0,0.0,0.0,0.0,0.0,0.0,0.0,0.0,0.0,0.0,0.0,0.0,0.0,0.0,0.0,0.0,0.0,0.0,0.0,0.0,0.0,0.0,0.0,0.0,0.0,0.0,0.0,0.0,0.0,0.0,0.0,0.0,0.0,0.0,0.0,0.0,0.0,0.0,0.0,0.0,0.0,0.0,0.0,0.0,0.0,0.0,0.0,-2.0202,-2.1871,-2.3947,-2.64,-2.7004,-2.7426,-2.762,-2.6421,-2.4652,-2.2293,0.0,0.0,0.0,0.0,0.0,0.0,0.0,0.0,0.0,0.0,0.0,0.0,0.0,0.0,0.0,0.0,0.0,0.0,0.0,0.0,0.0,0.0,0.0,0.0,0.0,0.0,0.0,0.0,0.0,0.0,0.0,0.0,0.0,0.0,0.0,0.0,0.0,0.0,0.0,-0.9665,-1.0215,0.0,0.0,0.0,0.0,0.0,0.0,0.0,0.0,-1.2618,0.0,0.0,0.0,0.0,0.0,0.0,0.0,0.0,0.0,0.0,0.0,0.0,0.0,0.0,0.0,0.0,0.0,0.0,0.0,0.0,0.0,0.0,0.0,0.0,0.0,0.0,0.0,0.0,0.0,0.0,0.0,0.0,0.0,0.0,0.0,0.0,0.0,0.0,0.0,0.0,0.0,0.0,0.0,0.0,0.0,0.0,0.0,0.0,0.0,0.0,0.0,0.0,0.0,0.0,0.0,-2.007,-2.2625,-2.4608,-2.5995,-2.7046,-2.76,-2.7565,-2.6169,-2.4406,0.0,0.0,0.0,0.0,0.0,0.0,0.0,0.0,0.0,0.0,0.0,0.0,0.0,0.0,0.0,0.0,0.0,0.0,0.0,0.0,0.0,0.0,0.0,0.0,0.0,0.0,0.0,0.0,0.0,0.0,0.0,0.0,0.0,0.0,0.0,0.0,0.0,0.0,0.0,0.0,-1.0679,-1.124,-1.2075,0.0,0.0,0.0,0.0,0.0,0.0,-1.3792,-1.3632,0.0,0.0,0.0,0.0,0.0,0.0,0.0,0.0,0.0,0.0,0.0,0.0,0.0,0.0,0.0,0.0,0.0,0.0,0.0,0.0,0.0,0.0,0.0,0.0,0.0,0.0,0.0,0.0,0.0,0.0,0.0,0.0,0.0,0.0,0.0,0.0,0.0,0.0,0.0,0.0,0.0,0.0,0.0,0.0,0.0,0.0,0.0,0.0,0.0,0.0,0.0,0.0,0.0,0.0,0.0,-2.0261,-2.3465,-2.5425,-2.602,-2.7144,-2.773,-2.7666,-2.5836,-2.4044,0.0,0.0,0.0,0.0,0.0,0.0,0.0,0.0,0.0,0.0,0.0,0.0,0.0,0.0,0.0,0.0,0.0,0.0,0.0,0.0,0.0,0.0,0.0,0.0,0.0,0.0,0.0,0.0,0.0,0.0,0.0,0.0,0.0,0.0,0.0,0.0,0.0,0.0,0.0,0.0,0.0,-1.2385,-1.3213,-1.3391,0.0,0.0,0.0,0.0,-1.4838,-1.5062,0.0,0.0,0.0,0.0,0.0,0.0,0.0,0.0,0.0,0.0,0.0,0.0,0.0,0.0,0.0,0.0,0.0,0.0,0.0,0.0,0.0,0.0,0.0,0.0,0.0,0.0,0.0,0.0,0.0,0.0,0.0,0.0,0.0,0.0,0.0,0.0,0.0,0.0,0.0,0.0,0.0,0.0,0.0,0.0,0.0,0.0,0.0,0.0,0.0,0.0,0.0,0.0,0.0,0.0,0.0,0.0,-2.2578,-2.4881,-2.6583,-2.7653,-2.7811,-2.7827,-2.7683,-2.5652,-2.3925,0.0,0.0,0.0,0.0,0.0,0.0,0.0,0.0,0.0,0.0,0.0,0.0,0.0,0.0,0.0,0.0,0.0,0.0,0.0,0.0,0.0,0.0,0.0,0.0,0.0,0.0,0.0,0.0,0.0,0.0,0.0,0.0,0.0,0.0,0.0,0.0,0.0,0.0,0.0,0.0,0.0,-1.3339,-1.3454,-1.4453,-1.4969,0.0,0.0,-1.6292,-1.5975,-1.6949,0.0,0.0,0.0,0.0,0.0,0.0,0.0,0.0,0.0,0.0,0.0,0.0,0.0,0.0,0.0,0.0,0.0,0.0,0.0,0.0,0.0,0.0,0.0,0.0,0.0,0.0,0.0,0.0,0.0,0.0,0.0,0.0,0.0,0.0,0.0,0.0,0.0,0.0,0.0,0.0,0.0,0.0,0.0,0.0,0.0,0.0,0.0,0.0,0.0,0.0,0.0,0.0,0.0,0.0,0.0,-2.0824,-2.2346,-2.5171,-2.6896,-2.7368,-2.7784,-2.7971,-2.7882,-2.568,-2.3923,0.0,0.0,0.0,0.0,0.0,0.0,0.0,0.0,0.0,0.0,0.0,0.0,0.0,0.0,0.0,0.0,0.0,0.0,0.0,0.0,0.0,0.0,0.0,0.0,0.0,0.0,0.0,0.0,0.0,0.0,0.0,0.0,0.0,0.0,0.0,0.0,0.0,0.0,0.0,0.0,0.0,0.0,-1.4758,-1.5502,0.0,0.0,0.0,-1.6659,-1.6573,0.0,0.0,0.0,0.0,0.0,0.0,0.0,0.0,0.0,0.0,0.0,0.0,0.0,0.0,0.0,0.0,0.0,0.0,0.0,0.0,0.0,0.0,0.0,0.0,0.0,0.0,0.0,0.0,0.0,0.0,0.0,0.0,0.0,0.0,0.0,0.0,0.0,0.0,0.0,0.0,0.0,0.0,0.0,0.0,0.0,0.0,0.0,0.0,0.0,0.0,0.0,0.0,0.0,0.0,0.0,0.0,0.0,-2.2402,-2.5624,-2.7259,-2.7228,-2.7792,-2.8085,-2.7982,-2.6075,0.0,0.0,0.0,0.0,0.0,0.0,0.0,0.0,0.0,0.0,0.0,0.0,0.0,0.0,0.0,0.0,0.0,0.0,0.0,0.0,0.0,0.0,0.0,0.0,0.0,0.0,0.0,-0.7332,0.0,0.0,0.0,0.0,0.0,0.0,0.0,0.0,0.0,0.0,0.0,0.0,0.0,0.0,-1.5379,-1.6009,-1.6601,-1.7231,0.0,0.0,-1.7458,-1.7536,-1.8397,-1.8369,0.0,0.0,0.0,0.0,0.0,0.0,0.0,0.0,0.0,0.0,0.0,0.0,0.0,0.0,0.0,0.0,0.0,0.0,0.0,0.0,0.0,0.0,0.0,0.0,0.0,0.0,0.0,0.0,0.0,0.0,0.0,0.0,0.0,0.0,0.0,0.0,0.0,0.0,0.0,0.0,0.0,0.0,0.0,0.0,0.0,0.0,0.0,0.0,0.0,0.0,0.0,0.0,0.0,0.0,0.0,-2.3906,-2.6664,-2.8097,-2.8027,-2.8136,-2.8144,-2.7996,-2.7067,-2.5676,0.0,0.0,0.0,0.0,0.0,0.0,0.0,0.0,0.0,0.0,0.0,0.0,0.0,0.0,0.0,0.0,0.0,0.0,0.0,0.0,0.0,0.0,0.0,0.0,0.0,0.0,0.0,0.0,0.0,0.0,0.0,0.0,0.0,0.0,0.0,0.0,0.0,0.0,0.0,0.0,0.0,-1.6073,-1.6736,-1.7879,-1.881,0.0,0.0,-1.9681,-1.9338,-2.0781,-2.0877,-1.7845,0.0,0.0,0.0,0.0,0.0,0.0,0.0,0.0,0.0,0.0,0.0,0.0,0.0,0.0,0.0,0.0,0.0,0.0,0.0,0.0,0.0,0.0,0.0,0.0,0.0,0.0,0.0,0.0,0.0,0.0,0.0,0.0,0.0,0.0,0.0,0.0,0.0,0.0,0.0,0.0,0.0,0.0,0.0,0.0,0.0,0.0,0.0,0.0,0.0,0.0,0.0,0.0,0.0,-2.3173,-2.4262,-2.735,-2.8695,-2.8208,-2.8663,-2.8681,-2.8144,-2.7102,-2.5736,0.0,0.0,0.0,0.0,0.0,0.0,0.0,0.0,0.0,0.0,0.0,0.0,0.0,0.0,0.0,0.0,0.0,0.0,0.0,0.0,0.0,0.0,0.0,0.0,0.0,0.0,0.0,0.0,-0.962,-0.9748,-0.9868,0.0,0.0,0.0,0.0,0.0,0.0,0.0,0.0,0.0,0.0,-1.7013,-1.8428,-1.9049,0.0,0.0,-2.0514,-2.0271,-1.9644,-2.0221,-2.0047,-1.808,-1.7006,0.0,0.0,0.0,0.0,0.0,0.0,0.0,0.0,0.0,0.0,0.0,0.0,0.0,0.0,0.0,0.0,0.0,0.0,0.0,0.0,0.0,0.0,0.0,0.0,0.0,0.0,0.0,0.0,0.0,0.0,0.0,0.0,0.0,0.0,0.0,0.0,0.0,0.0,0.0,0.0,0.0,0.0,0.0,0.0,0.0,0.0,0.0,0.0,0.0,0.0,0.0,0.0,-2.3487,-2.4355,-2.7461,-2.8822,-2.825,-2.88,-2.8822,-2.8223,-2.7475,-2.6331,0.0,0.0,0.0,0.0,0.0,0.0,0.0,0.0,0.0,0.0,0.0,0.0,0.0,0.0,0.0,0.0,0.0,0.0,0.0,0.0,0.0,0.0,0.0,0.0,0.0,0.0,0.0,0.0,-1.0195,-1.0207,-1.029,0.0,0.0,0.0,0.0,0.0,0.0,0.0,0.0,0.0,0.0,-1.8012,-1.9368,-1.9719,-2.0125,-2.0973,-2.0694,-2.0284,-1.9934,-1.9908,-1.9531,-1.8383,0.0,0.0,0.0,0.0,0.0,0.0,0.0,0.0,0.0,0.0,0.0,0.0,0.0,0.0,0.0,0.0,0.0,0.0,0.0,0.0,0.0,0.0,0.0,0.0,0.0,0.0,0.0,0.0,0.0,0.0,-1.4568,0.0,0.0,0.0,0.0,0.0,0.0,0.0,0.0,0.0,0.0,0.0,0.0,0.0,0.0,0.0,0.0,0.0,0.0,0.0,0.0,0.0,0.0,-2.3547,-2.4225,-2.6979,-2.8362,-2.8398,-2.8416,-2.8407,-2.83,-2.8322,-2.7794,-2.6546,0.0,0.0,0.0,0.0,0.0,0.0,0.0,0.0,0.0,0.0,0.0,0.0,0.0,0.0,0.0,0.0,0.0,0.0,0.0,0.0,0.0,0.0,0.0,0.0,0.0,0.0,-1.0868,-1.0998,-1.1242,0.0,0.0,0.0,0.0,0.0,0.0,0.0,0.0,0.0,0.0,-1.7388,-1.8938,-1.9279,-1.9767,-2.0295,-2.0877,-2.0117,-1.9709,-2.0484,-2.0345,-1.9888,0.0,0.0,0.0,0.0,0.0,0.0,0.0,0.0,0.0,0.0,0.0,0.0,0.0,0.0,0.0,0.0,0.0,0.0,0.0,0.0,0.0,0.0,0.0,0.0,0.0,0.0,0.0,-1.5284,-1.6879,0.0,0.0,0.0,0.0,0.0,0.0,0.0,0.0,0.0,0.0,0.0,-2.207,-2.229,0.0,0.0,0.0,0.0,0.0,0.0,0.0,0.0,0.0,0.0,0.0,0.0,-2.4333,-2.5392,-2.7862,-2.8923,-2.8416,-2.8932,-2.8923,-2.8336,-2.8847,-2.8584,-2.7416,0.0,0.0,0.0,0.0,0.0,0.0,0.0,0.0,0.0,0.0,0.0,0.0,0.0,0.0,0.0,0.0,0.0,0.0,0.0,0.0,0.0,0.0,0.0,0.0,0.0,-1.1589,0.0,0.0,0.0,0.0,0.0,0.0,0.0,0.0,0.0,0.0,0.0,-1.5802,-1.6917,-1.7746,-1.8658,-1.9809,-2.008,-2.0695,0.0,0.0,0.0,0.0,0.0,0.0,0.0,0.0,0.0,0.0,0.0,0.0,0.0,0.0,-1.6198,-1.5048,-1.4999,-1.5107,-1.5083,0.0,0.0,0.0,0.0,0.0,0.0,0.0,0.0,0.0,0.0,0.0,0.0,0.0,0.0,-1.8145,0.0,-1.9412,0.0,0.0,0.0,0.0,0.0,0.0,0.0,0.0,-2.4312,-2.4997,-2.4968,-2.5186,-2.526,0.0,-2.4417,-2.3288,0.0,0.0,0.0,0.0,0.0,0.0,0.0,0.0,-2.5103,-2.5911,-2.8088,-2.8968,-2.8513,-2.8941,-2.9044,-2.8793,-2.9282,-2.9064,-2.8039,-2.54,-2.349,0.0,0.0,0.0,0.0,0.0,0.0,0.0,0.0,0.0,0.0,0.0,0.0,0.0,0.0,0.0,0.0,0.0,0.0,0.0,0.0,0.0,0.0,0.0,-1.2287,0.0,0.0,0.0,0.0,0.0,0.0,0.0,0.0,0.0,-1.5681,-1.6416,-1.7363,-1.8508,-1.9006,-1.9445,-1.992,0.0,0.0,0.0,0.0,0.0,0.0,0.0,-1.9844,-1.9988,-1.9495,-1.9346,-2.0181,-2.0085,-1.9831,-1.9504,0.0,0.0,-1.7234,-1.7128,-1.722,-1.7128,-1.687,-1.664,-1.6729,-1.6647,-1.6606,0.0,0.0,0.0,0.0,0.0,0.0,0.0,0.0,-2.1516,-2.1374,0.0,-2.1353,0.0,0.0,0.0,0.0,0.0,-2.361,0.0,0.0,-2.7692,-2.8828,-2.8458,-2.9196,-2.9575,-2.9445,-2.751,-2.6944,-2.7454,-2.4386,0.0,0.0,0.0,0.0,0.0,0.0,-2.5774,-2.5998,-2.765,-2.8536,-2.8587,-2.8489,-2.8828,-2.9634,-2.9611,-2.9193,-2.8452,-2.7295,-2.5658,-2.349,-2.2436,0.0,0.0,0.0,0.0,0.0,0.0,0.0,0.0,0.0,0.0,0.0,0.0,0.0,0.0,0.0,0.0,0.0,0.0,0.0,0.0,-1.273,0.0,0.0,0.0,0.0,0.0,0.0,0.0,0.0,0.0,0.0,-1.7807,-1.8088,-1.8737,-1.9892,0.0,0.0,0.0,0.0,-2.098,-2.0155,-1.9942,-2.0152,-2.0702,-2.0994,-2.1309,-2.1818,0.0,0.0,-2.1897,-2.1509,-2.1144,-2.0856,-2.0966,-2.0411,-1.865,-1.8615,-1.8688,-1.8441,-1.8255,-1.8096,-1.8068,-1.7998,-1.7938,-2.5226,0.0,0.0,0.0,0.0,-2.0743,-2.1771,-2.3465,-2.3501,-2.4071,-2.5032,-2.5053,0.0,0.0,0.0,0.0,0.0,0.0,-2.7404,-2.8297,-2.9817,-3.0532,-3.0595,-3.0777,-3.0879,-3.0836,-3.0241,-3.008,-3.0257,-2.9328,-2.7441,-2.4717,0.0,0.0,0.0,0.0,-2.6636,-2.8187,-2.8527,-2.8644,-2.8675,-2.8587,-2.8902,-2.9683,-2.9062,-2.891,-2.922,-2.7794,-2.6343,-2.4916,-2.3527,0.0,0.0,0.0,0.0,0.0,0.0,0.0,0.0,0.0,0.0,0.0,0.0,0.0,0.0,0.0,0.0,0.0,0.0,0.0,-1.4535,-1.4489,-1.4367,0.0,0.0,0.0,0.0,0.0,0.0,0.0,0.0,0.0,-2.0415,-1.9398,-1.8886,0.0,0.0,-1.9804,-1.98,-2.072,-2.1694,-2.2586,-2.2417,0.0,-2.3474,-2.2843,-2.2255,-2.2308,-2.2839,-2.3226,-2.3032,-2.3317,-2.3491,-2.3158,-2.3083,-2.2736,-2.1844,-2.0966,-2.0386,-2.0113,-1.9948,-1.988,-1.9852,-1.9676,-1.9528,-3.0652,-2.7968,-2.5866,-2.4843,-2.4653,-2.4653,-2.5523,-2.6898,-2.6554,-2.6701,-2.7157,-2.6881,-2.6534,-2.617,-2.6603,0.0,0.0,0.0,-2.9639,-3.0552,-3.1414,-3.1893,-3.2072,-3.2299,-3.2427,-3.2409,-3.2115,-3.2115,-3.2409,-3.1596,-3.0166,-2.8142,0.0,0.0,-2.7358,-2.7598,-2.8394,-2.9712,-2.9709,-2.9677,-2.9657,-2.9593,-2.9737,-3.0093,-2.9354,-2.9156,-2.9616,-2.8339,-2.7215,-2.6252,-2.4835,-2.299,0.0,0.0,0.0,0.0,0.0,0.0,0.0,0.0,0.0,0.0,0.0,-1.5577,-1.5115,0.0,0.0,0.0,-1.6185,-1.6127,-1.6013,-1.587,0.0,0.0,0.0,0.0,0.0,0.0,0.0,-1.8564,-1.9335,-2.0335,-2.1607,-2.0662,-2.0235,-2.1258,-2.1093,-2.099,-2.1418,0.0,-2.3046,-2.3933,-2.3743,-2.3809,-2.4626,-2.4164,-2.3703,-2.3771,-2.4177,-2.4366,-2.4157,-2.4465,-2.4635,-2.4374,-2.4282,-2.4184,-2.3828,-2.2971,-2.2134,-2.1655,-2.1418,-2.1318,-2.1318,-2.1134,-2.0997,-3.6145,-3.4373,-2.9354,-2.8144,-2.9492,-2.9529,-3.006,-3.0921,-3.0142,-2.9201,-2.8203,-2.7651,-2.7112,-2.6647,-2.7785,0.0,-3.0362,-3.0859,-3.1408,-3.2028,-3.2701,-3.3,-3.3043,-3.3666,-3.4011,-3.3979,-3.3241,-3.3278,-3.3887,-3.2075,-3.1488,-3.2078,-3.1253,-3.0092,-2.8782,-2.9834,-3.0466,-3.0528,-3.0926,-3.1123,-3.1114,-3.1052,-3.0943,-3.0822,-3.017,-2.9776,-2.9692,-2.8938,-2.8144,-2.7332,-2.6234,-2.4587,-2.2305,0.0,0.0,0.0,0.0,0.0,0.0,0.0,0.0,0.0,0.0,0.0,0.0,0.0,0.0,0.0,-1.7642,0.0,-1.775,-1.7227,0.0,0.0,0.0,-1.8349,-1.8643,-1.9838,-2.0631,-2.0552,0.0,0.0,-2.1888,-2.1896,-2.2417,-2.3971,-2.3885,-2.3683,-2.3738,-2.4291,-2.4694,-2.4526,-2.4461,-2.4491,-2.4997,-2.5107,-2.5246,-2.5494,-2.5702,-2.5481,-2.5105,-2.4978,-2.4892,-2.4677,-2.4783,-2.4801,-2.4693,-2.4274,-2.39,-2.2946,-2.2598,-2.2445,-2.2408,-2.2304,-2.22,-3.6889,-3.6415,-3.5158,-3.3401,-3.1434,-3.1449,-3.158,-3.18,-3.1602,-3.1347,-3.109,-3.0953,-3.0748,-3.0557,-3.0887,-3.154,-3.2395,-3.2562,-3.3055,-3.3773,-3.3909,-3.3924,-3.3894,-3.4019,-3.4049,-3.3979,-3.3795,-3.3839,-3.4055,-3.3642,-3.2998,-3.2229,-3.2592,-3.2093,-3.0716,-3.0262,-3.027,-3.0725,-3.0796,-3.0962,-3.1227,-3.1175,-3.1154,-3.1162,-3.0355,-2.988,-2.9901,-2.9054,-2.8232,-2.7483,-2.7023,-2.5586,-2.2988,-2.1939,0.0,0.0,0.0,0.0,0.0,0.0,0.0,0.0,0.0,-1.8529,-1.7836,0.0,-1.9378,0.0,-1.9369,-2.0174,-2.0973,-2.051,0.0,0.0,-2.0152,-2.0491,-2.1027,-2.1636,-2.1992,-2.1852,-2.2259,-2.2701,-2.3137,-2.3584,-2.4328,-2.5463,-2.4265,-2.3459,-2.4071,-2.4932,-2.552,-2.5737,-2.621,-2.6562,-2.6375,-2.6123,-2.5907,-2.5975,-2.5839,-2.5674,-2.555,-2.523,-2.4977,-2.4905,-2.4771,-2.4633,-2.4484,-2.4328,-2.4138,-2.3696,-2.3271,-2.2927,-2.2927,-2.2909,-2.2836,-3.8075,-3.7736,-3.777,-3.6244,-3.3811,-3.3784,-3.3749,-3.3634,-3.2962,-3.2693,-3.2695,-3.2281,-3.2266,-3.2529,-3.2521,-3.2948,-3.3661,-3.3732,-3.3986,-3.4386,-3.4328,-3.4281,-3.4245,-3.4209,-3.4142,-3.4105,-3.4148,-3.4185,-3.4197,-3.4239,-3.3906,-3.3203,-3.3639,-3.3364,-3.2429,-3.1511,-3.1207,-3.1492,-3.1706,-3.2027,-3.2417,-3.201,-3.1677,-3.1456,-3.0252,-2.9507,-2.9333,-2.8443,-2.7733,-2.733,-2.6798,-2.5645,-2.3875,-2.2841,-2.1543,0.0,0.0,0.0,0.0,0.0,0.0,0.0,0.0,0.0,0.0,0.0,-2.1343,-2.0894,-2.1404,-2.1957,-2.2469,-2.2212,-2.1981,-2.1941,-2.2199,-2.2436,-2.2606,-2.3372,-2.3708,-2.3297,-2.3689,-2.4102,-2.4343,-2.4783,-2.5453,-2.6353,-2.5634,-2.5233,-2.5832,-2.6363,-2.6688,-2.6909,-2.7178,-2.7258,-2.6963,-2.6647,-2.634,-2.6152,-2.6029,-2.5921,-2.5729,-2.5536,-2.537,-2.5257,-2.5179,-2.5166,-2.5023,-2.4819,-2.4642,-2.4452,-2.402,-2.3599,-2.3378,-2.3318,-2.3258,-3.9289,-3.8656,-3.8648,-3.7761,-3.6306,-3.6133,-3.5942,-3.5653,-3.4309,-3.3705,-3.3614,-3.2802,-3.2808,-3.347,-3.3425,-3.3747,-3.4409,-3.4427,-3.4439,-3.4409,-3.4351,-3.4316,-3.4328,-3.4298,-3.4281,-3.4233,-3.4358,-3.4363,-3.4347,-3.4393,-3.4393,-3.4328,-3.4269,-3.3987,-3.3534,-3.2865,-3.2483,-3.2416,-3.2878,-3.3328,-3.381,-3.2971,-3.2281,-3.178,-3.0273,-2.9203,-2.8676,-2.7804,-2.7243,-2.7089,-2.6282,-2.5521,-2.4863,-2.3715,-2.252,0.0,-2.0836,0.0,0.0,0.0,0.0,0.0,0.0,0.0,0.0,-2.2932,-2.3618,-2.3716,-2.339,-2.3226,-2.3319,-2.3364,-2.3415,-2.3531,-2.4028,-2.4263,-2.3974,-2.495,-2.5415,-2.4725,-2.5081,-2.5388,-2.5474,-2.5778,-2.6309,-2.6932,-2.7316,-2.7579,-2.7984,-2.7845,-2.7695,-2.7815,-2.7564,-2.7273,-2.6989,-2.6832,-2.6633,-2.6313,-2.6233,-2.6179,-2.5839,-2.5852,-2.5839,-2.5633,-2.5711,-2.5809,-2.5819,-2.5443,-2.5177,-2.5081,-2.4667,-2.4189,-2.3793,-2.3675,-2.3586,-3.9614,-3.9486,-3.9513,-3.8943,-3.7917,-3.7291,-3.6624,-3.5916,-3.559,-3.5112,-3.4533,-3.4312,-3.4281,-3.443,-3.4376,-3.4419,-3.4561,-3.4561,-3.458,-3.4569,-3.4495,-3.4454,-3.4443,-3.4397,-3.4381,-3.4351,-3.4404,-3.4439,-3.4461,-3.4465,-3.4298,-3.3918,-3.3854,-3.3474,-3.2834,0.0,0.0,0.0,-3.2457,-3.2728,-3.3435,-3.2852,-3.2432,-3.2316,-3.1354,0.0,-2.9655,-2.8854,-2.8043,-2.7311,-2.703,0.0,0.0,0.0,0.0,0.0,0.0,0.0,0.0,0.0,0.0,0.0,-2.4215,-2.415,-2.3457,-2.3489,-2.3899,-2.4763,-2.4713,-2.4911,-2.5676,-2.5845,-2.5862,-2.5705,-2.5804,-2.5906,-2.5929,-2.6022,-2.5998,-2.5899,-2.5834,-2.5926,-2.6328,-2.6925,-2.7511,-2.8003,-2.8471,-2.8762,-2.885,-2.8253,-2.784,-2.779,-2.759,-2.7401,-2.7314,-2.7015,-2.6806,-2.6674,-2.6447,-2.6272,-2.6206,-2.6098,-2.6029,-2.5853,-2.5786,-2.5646,-2.5422,-2.5267,-2.5136,-2.4924,-2.4773,-2.4549,-2.4112,-2.4086,-2.4031,-3.9777,0.0,-3.9424,-3.878,0.0,-3.7524,-3.6885,-3.6111,-3.5601,-3.5166,-3.4849,-3.4801,-3.4791,-3.4791,-3.4678,-3.4645,-3.4645,-3.4604,-3.4612,-3.4602,-3.4528,-3.4517,-3.4539,-3.4517,-3.4514,-3.4506,-3.458,-3.4612,-3.4612,-3.4602,-3.4476,-3.4249,-3.4177,-3.3963,-3.36,-3.3628,-3.3469,-3.3094,-3.3007,-3.3226,-3.3808,-3.3519,-3.3201,-3.2891,0.0,0.0,0.0,0.0,0.0,0.0,0.0,0.0,0.0,0.0,0.0,-2.5632,-2.5338,-2.5281,-2.5481,-2.5412,-2.5646,-2.6416,-2.709,-2.6978,-2.5866,-2.6253,-2.6793,-2.7351,-2.6945,-2.6826,-2.7267,-2.7012,-2.6742,-2.6606,-2.6589,-2.6589,-2.6537,-2.6486,-2.6383,-2.626,-2.6189,-2.6364,-2.6925,-2.7473,-2.8127,-2.8744,-2.9111,-2.9312,-2.9243,-2.8566,-2.7989,-2.7905,-2.7715,-2.7564,-2.7488,-2.7299,-2.7015,-2.6846,-2.6686,-2.6553,-2.634,-2.6299,-2.6231,-2.6111,-2.5948,-2.5729,-2.5591,-2.5356,-2.5174,-2.5033,-2.4948,-2.482,-2.4505,-2.4319,-2.4178,-3.9848,-3.9846,-3.9112,-3.8297,-3.7499,-3.7288,-3.6758,-3.6017,0.0,0.0,0.0,-3.4917,-3.4908,-3.4898,-3.478,-3.4727,-3.4737,-3.4666,-3.4615,-3.4634,-3.4591,-3.4591,-3.4634,-3.4634,-3.4645,-3.4645,-3.4747,-3.4768,-3.4727,-3.4708,-3.4727,-3.4708,-3.4663,-3.4612,-3.4572,-3.4602,-3.4314,-3.3789,-3.375,-3.3854,-3.4154,-3.4018,-3.3692,-3.319,-3.2488,-3.1547,-3.0338,-2.9532,-2.8605,-2.7611,-2.7326,-2.7145,-2.7136,-2.7118,-2.6987,-2.6717,-2.6609,-2.6737,-2.7193,-2.7008,-2.749,-2.9046,-2.9742,-2.9569,-2.8254,-2.9093,-2.9624,-2.9486,-2.8868,-2.8441,-2.832,-2.7688,-2.7196,-2.7113,-2.701,-2.6859,-2.6708,-2.6708,-2.664,-2.6469,-2.6569,-2.6869,-2.7564,-2.807,-2.8606,-2.935,-2.9615,-2.9576,-2.9418,-2.8779,-2.8244,-2.8137,-2.7974,-2.7825,-2.769,-2.7539,-2.731,-2.7003,-2.7091,-2.703,-2.6597,-2.6599,-2.6654,-2.6353,-2.6138,-2.6002,-2.5893,-2.5591,-2.5314,-2.523,-2.5118,-2.5004,-2.4912,-2.4606,-2.4357,-3.9922,-3.9929,-3.9125,-3.8327,-3.7528,-3.6777,-3.597,-3.5258,-3.5827,-3.5666,-3.4992,-3.4927,-3.4908,-3.4879,-3.481,-3.4827,-3.4886,-3.4817,-3.4768,-3.4778,-3.4768,-3.4768,-3.4768,-3.4768,-3.4768,-3.4768,-3.4788,-3.4788,-3.4778,-3.4769,-3.4788,-3.4778,-3.4708,-3.4634,-3.4528,-3.4561,-3.4528,-3.4356,-3.4,-3.3737,-3.362,-3.3208,-3.2924,-3.2704,-3.2662,-3.2123,-3.1105,-3.0965,-3.0182,-2.8605,-2.8359,-2.817,-2.7954,-2.7946,-2.8348,-2.9214,-2.8652,-2.8793,-2.9962,-2.9379,-2.9292,-3.0054,-3.0865,-3.0813,-2.9672,-2.9624,-2.9399,-2.8792,-2.9057,-2.8991,-2.8389,-2.8217,-2.8081,-2.7896,-2.7415,-2.7039,-2.6976,-2.6926,-2.6859,-2.6809,-2.7231,-2.7766,-2.8417,-2.9094,-2.9679,-3.0244,-3.0218,-2.993,-2.9448,-2.892,-2.8598,-2.8431,-2.8268,-2.8113,-2.7965,-2.7725,-2.7539,-2.735,-2.7717,-2.7748,-2.7056,-2.7336,-2.7384,-2.6652,-2.6459,-2.627,-2.6002,-2.5866,-2.5619,-2.5342,-2.5202,-2.5184,-2.5331,-2.5159,-2.478,-4.0623,-4.0485,-3.9315,-3.8584,-3.8185,-3.7395,-3.6796,-3.6416,-3.6862,-3.6301,-3.5104,-3.502,-3.4992,-3.4936,-3.4878,-3.4868,-3.4906,-3.483,-3.4781,-3.4798,-3.4781,-3.482,-3.4858,-3.4858,-3.4859,-3.4859,-3.4859,-3.4859,-3.4859,-3.4849,-3.4858,-3.4848,-3.4747,-3.4676,-3.4666,-3.4655,-3.4623,-3.455,-3.4337,-3.4165,-3.4043,-3.3797,-3.362,-3.3524,-3.3529,-3.3095,-3.2169,-3.2109,-3.1514,-3.0219,-3.005,-2.9948,-2.9796,-2.9773,-3.002,-3.0545,-3.0163,-3.0152,-3.0768,-3.0703,-3.0766,-3.1059,-3.1823,-3.2062,-3.1483,-3.0995,-3.056,-3.016,-2.9994,-2.9687,-2.9256,-2.9188,-2.9122,-2.9039,-2.8399,-2.7935,-2.7752,-2.7376,-2.7106,-2.701,-2.7572,-2.8252,-2.8835,-2.9522,-3.0185,-3.0704,-3.0551,-3.0194,-2.9826,-2.9515,-2.9182,-2.8881,-2.8637,-2.8446,-2.8365,-2.8122,-2.79,-2.775,-2.8117,-2.8203,-2.7809,-2.7968,-2.7793,-2.7384,-2.6917,-2.6472,-2.6231,-2.6015,-2.577,-2.5564,-2.5272,-2.5268,-2.5243,-2.5123,-2.4816,-4.1097,-4.0786,-3.9818,-3.9145,-3.8746,-3.7995,-3.7614,-3.7538,-3.7652,-3.6927,-3.5766,-3.5491,-3.5464,-3.5589,-3.5344,-3.5259,-3.5249,-3.5202,-3.5059,-3.4888,-3.487,-3.4908,-3.4983,-3.5097,-3.5116,-3.5031,-3.5296,-3.5306,-3.4974,-3.5106,-3.5077,-3.4907,-3.479,-3.4759,-3.4827,-3.4758,-3.4687,-3.4645,-3.4612,-3.455,-3.4484,-3.445,-3.4393,-3.4316,-3.4257,-3.39,-3.3234,-3.3112,-3.2656,-3.1771,-3.1622,-3.1466,-3.1276,-3.1245,-3.1318,-3.1438,-3.1223,-3.113,-3.1265,-3.1783,-3.2112,-3.2127,-3.2699,-3.3011,-3.2864,-3.2188,-3.1647,-3.1453,-3.1006,-3.0643,-3.0334,-3.0217,-3.0152,-3.0051,-2.9424,-2.8891,-2.8691,-2.8208,-2.7782,-2.7638,-2.8254,-2.8955,-2.934,-2.9927,-3.0509,-3.0841,-3.0733,-3.0485,-3.0295,-3.0065,-2.9744,-2.938,-2.9036,-2.8826,-2.8764,-2.8518,-2.8277,-2.8146,-2.846,-2.8576,-2.848,-2.8272,-2.8089,-2.7905,-2.7224,-2.6662,-2.6484,-2.6245,-2.5975,-2.5811,-2.5591,-2.5397,-2.5433,-2.5226,-2.5007,-4.084,-4.0262,-4.0741,-4.0171,-3.8801,-3.7985,-3.7671,-3.7681,-3.7689,-3.766,-3.7393,-3.6621,-3.6736,-3.7278,-3.6574,-3.6306,-3.6322,-3.6287,-3.5841,-3.5195,-3.5073,-3.5075,-3.5237,-3.5826,-3.5778,-3.5398,-3.6502,-3.6397,-3.522,-3.5771,-3.5685,-3.5003,-3.4889,-3.4936,-3.4887,-3.4856,-3.4797,-3.4778,-3.4685,-3.4539,-3.4409,-3.4473,-3.4443,-3.4404,-3.4328,-3.4239,-3.4048,-3.3963,-3.348,-3.2667,-3.2529,-3.2161,-3.1531,-3.1408,-3.1695,-3.2295,-3.1696,-3.1535,-3.216,-3.29,-3.3288,-3.3339,-3.34,-3.3433,-3.3226,-3.2526,-3.1894,-3.1691,-3.1991,-3.1818,-3.1273,-3.1121,-3.1073,-3.0955,-3.0274,-2.9752,-2.9654,-2.9469,-2.9282,-2.9282,-2.9642,-3.0203,-3.0235,-3.0704,-3.1063,-3.1001,-3.0855,-3.0651,-3.0506,-3.038,-3.0215,-2.9908,-2.9538,-2.922,-2.9106,-2.885,-2.8637,-2.8501,-2.882,-2.8951,-2.8796,-2.8603,-2.8449,-2.8057,-2.7428,-2.6873,-2.6604,-2.6379,-2.6233,-2.6042,-2.5921,-2.5896,-2.6161,-2.5924,-2.5575,-4.1043,-4.0702,-4.0577,-4.015,-3.9494,-3.9162,-3.904,-3.907,-3.9137,-3.9175,-3.9088,-3.8331,-3.7884,-3.7632,-3.7251,-3.7145,-3.72,-3.7163,-3.6982,-3.663,-3.6631,-3.6613,-3.6624,-3.6891,-3.6872,-3.6624,-3.7272,-3.7224,-3.6711,-3.6863,-3.6587,-3.5885,-3.614,-3.6149,-3.5712,-3.5587,-3.5557,-3.5557,-3.5063,-3.4697,-3.4583,-3.4528,-3.4484,-3.4461,-3.4404,-3.4323,-3.4209,-3.4148,-3.3926,-3.3498,-3.3442,-3.3281,-3.2944,-3.2944,-3.3079,-3.3335,-3.3057,-3.2905,-3.3136,-3.3451,-3.3587,-3.3581,-3.3591,-3.3549,-3.3437,-3.3056,-3.279,-3.2622,-3.2279,-3.1854,-3.1574,-3.188,-3.2097,-3.1859,-3.121,-3.0687,-3.0573,-3.0071,-2.9675,-2.9592,-3.0162,-3.0572,-3.053,-3.0984,-3.1295,-3.1171,-3.1015,-3.0861,-3.0736,-3.0568,-3.0405,-3.0258,-2.9973,-2.9665,-2.9464,-2.9152,-2.8943,-2.8928,-2.9106,-2.923,-2.9053,-2.8774,-2.8513,-2.8264,-2.7653,-2.7155,-2.6858,-2.6765,-2.6647,-2.6379,-2.6056,-2.5964,-2.612,-2.6034,-2.5883,-4.1207,-4.1105,-4.0561,-4.0336,-4.0317,-4.007,-4.0036,-4.0118,-4.0167,-4.0196,-4.0176,-3.9655,-3.9026,-3.8384,-3.8136,-3.8057,-3.8148,-3.8103,-3.7952,-3.778,-3.7705,-3.7688,-3.7641,-3.7889,-3.7851,-3.7737,-3.8137,-3.8204,-3.7966,-3.7661,-3.7262,-3.6815,-3.7175,-3.7146,-3.6634,-3.6499,-3.6374,-3.6119,-3.5502,-3.5064,-3.4795,-3.4645,-3.4561,-3.4528,-3.4454,-3.4393,-3.4293,-3.4276,-3.4209,-3.4086,-3.4086,-3.4061,-3.4055,-3.4023,-3.4023,-3.3998,-3.3959,-3.3881,-3.3775,-3.3775,-3.3753,-3.3703,-3.3684,-3.3647,-3.3553,-3.3495,-3.3455,-3.3327,-3.2643,-3.2171,-3.2099,-3.2515,-3.2721,-3.2555,-3.1975,-3.1594,-3.1459,-3.0884,-3.0487,-3.0352,-3.0837,-3.1026,-3.0879,-3.1025,-3.1066,-3.0951,-3.0871,-3.0808,-3.0683,-3.0546,-3.0547,-3.0506,-3.029,-3.0033,-2.9814,-2.9502,-2.9298,-2.9154,-2.9224,-2.9203,-2.9179,-2.8914,-2.8839,-2.8767,-2.8025,-2.7584,-2.7483,-2.7345,-2.6925,-2.6566,-2.6299,-2.6165,-2.6277,-2.6218,-2.6111,-4.1207,-4.1219,-4.1162,-4.1135,-4.1086,-4.0301,-4.0026,-4.0196,-4.0157,-4.0186,-4.0298,-4.0239,-4.0211,-4.003,-3.9291,-3.9106,-3.9181,-3.909,-3.8665,-3.8063,-3.7881,-3.7731,-3.7769,-3.8525,-3.8525,-3.8057,-3.9232,-3.9519,-3.8823,-3.808,-3.7604,-3.7557,-3.7633,-3.7576,-3.75,-3.7411,-3.7001,-3.6492,-3.6147,-3.5622,-3.501,-3.4856,-3.4775,-3.4623,-3.4528,-3.4495,-3.4473,-3.4427,-3.437,-3.4281,-3.4281,-3.4233,-3.4124,-3.4111,-3.4074,-3.4023,-3.4011,-3.4016,-3.4004,-3.3967,-3.3965,-3.3881,-3.3855,-3.3807,-3.3647,-3.3591,-3.3553,-3.3408,-3.3302,-3.3145,-3.2991,-3.2905,-3.2832,-3.2684,-3.2518,-3.2364,-3.2296,-3.1827,-3.2074,-3.1812,-3.1585,-3.1425,-3.1524,-3.0963,-3.0529,-3.0368,-3.0165,-3.0008,-3.0121,-3.0399,-3.0538,-3.0531,-3.0422,-3.0274,-3.0017,-2.9732,-2.9531,-2.9375,-2.921,-2.9028,-2.9123,-2.9205,-2.9288,-2.9256,-2.8625,-2.8241,-2.8144,-2.7768,-2.7146,-2.6791,-2.6753,-2.6674,-2.6527,-2.6525,-2.6392,-4.1525,-4.2033,-4.2077,-4.1781,-4.1247,-4.1011,-4.0673,-4.0206,-4.027,-4.0306,-4.0351,-4.0358,-4.0358,-4.0332,-4.0027,-3.99,-3.9989,-3.99,-3.9702,-3.9425,-3.9382,-3.9374,-3.9412,-3.9718,-3.9718,-3.9527,-3.9986,-4.0101,-3.9824,-3.9462,-3.9004,-3.8613,-3.8976,-3.8956,-3.8452,-3.8327,-3.8146,-3.7861,-3.7337,-3.6634,-3.5856,-3.577,-3.5475,-3.482,-3.4678,-3.4602,-3.4487,-3.4517,-3.4495,-3.4439,-3.4439,-3.4397,-3.437,-3.4269,-3.4233,-3.4245,-3.4221,-3.4173,-3.4136,-3.4155,-3.4074,-3.3972,-3.3921,-3.3887,-3.3807,-3.3726,-3.3657,-3.3629,-3.3559,-3.3491,-3.3419,-3.3256,-3.286,-3.2259,-3.204,-3.1733,-3.1198,-3.0961,-3.0863,-3.0696,-3.0543,-3.0439,-3.0456,-3.0058,-2.9797,-2.9638,-2.9476,-2.957,-2.9914,-3.006,-3.0239,-3.0579,-3.0547,-3.0354,-3.0184,-2.993,-2.9694,-2.9525,-2.9362,-2.91,-2.9059,-2.8987,-2.9035,-2.9225,-2.8823,-2.8594,-2.8393,-2.7769,-2.7207,-2.7041,-2.6989,-2.6873,-2.682,-2.6712,-2.6486,-4.2223,-4.2514,-4.2876,-4.2514,-4.1759,-4.1551,-4.1199,-4.0644,-4.0456,-4.0402,-4.0438,-4.0436,-4.0436,-4.043,-4.0386,-4.0377,-4.0424,-4.0334,-4.0344,-4.0351,-4.0327,-4.031,-4.031,-4.031,-4.032,-4.0234,-4.0014,-4.0023,-4.0233,-4.0041,-3.9717,-3.9413,-3.9948,-3.991,-3.9376,-3.9242,-3.9118,-3.8794,-3.8252,-3.7462,-3.6454,-3.6274,-3.5875,-3.5078,-3.4849,-3.4739,-3.4612,-3.4623,-3.4604,-3.4561,-3.458,-3.4539,-3.4495,-3.4386,-3.4358,-3.4351,-3.434,-3.4305,-3.4245,-3.4215,-3.4185,-3.4074,-3.3998,-3.3959,-3.3934,-3.3842,-3.3815,-3.3815,-3.3748,-3.363,-3.33,-3.3106,-3.2705,-3.1912,-3.1508,-3.1029,-3.0395,-3.0247,-3.0122,-2.9979,-2.9864,-2.9762,-2.9641,-2.935,-2.9111,-2.8956,-2.8852,-2.8966,-2.9228,-2.9686,-2.9886,-3.0403,-3.0517,-3.0431,-3.0312,-3.0103,-2.9804,-2.9598,-2.9434,-2.9167,-2.9006,-2.8912,-2.8969,-2.911,-2.9037,-2.8839,-2.8413,-2.779,-2.7458,-2.7262,-2.7067,-2.6925,-2.6873,-2.6794,-2.6647,-4.3301,-4.2821,-4.3528,-4.3427,-4.2595,-4.201,-4.1628,-4.1398,-4.0727,-4.0507,-4.0484,-4.0545,-4.0592,-4.05,-4.058,-4.0561,-4.0482,-4.036,-4.036,-4.0449,-4.0362,-4.0307,-4.0316,-4.0307,-4.0318,-4.0281,-3.9553,-3.9599,-4.023,-3.971,-3.9614,-4.0135,-4.0176,-4.0195,-4.026,-4.0024,-3.968,-3.9166,-3.8899,-3.8071,-3.6558,-3.6462,-3.6044,-3.5219,-3.5039,-3.4927,-3.4809,-3.4739,-3.4718,-3.4716,-3.4708,-3.4645,-3.455,-3.4454,-3.4386,-3.4363,-3.4374,-3.4381,-3.4335,-3.4323,-3.4269,-3.4209,-3.4136,-3.4074,-3.4036,-3.3998,-3.3998,-3.3985,-3.3823,-3.3537,-3.2834,-3.2454,-3.2156,-3.1913,-3.0978,-3.0419,-3.0222,-3.017,-3.0064,-2.9747,-2.9581,-2.9739,-2.96,-2.8932,-2.837,-2.8302,-2.8151,-2.8066,-2.8283,-2.9052,-2.9698,-2.99,-3.0262,-3.0568,-3.0422,-3.0253,-2.9951,-2.9665,-2.9486,-2.9298,-2.917,-2.9093,-2.9278,-2.9432,-2.9475,-2.9236,-2.8374,-2.7793,-2.749,-2.7284,-2.7119,-2.7029,-2.6963,-2.691,-2.6873,-4.4505,-4.4416,-4.477,-4.4409,-4.3605,-4.3474,-4.2809,-4.1653,-4.1432,-4.1066,-4.0669,-4.112,-4.1089,-4.0719,-4.1042,-4.103,-4.0581,-4.0425,-4.0402,-4.0432,-4.0388,-4.0358,-4.0375,-4.0388,-4.0381,-4.0334,-4.0128,-4.0089,-4.0264,-4.0096,-4.0164,-4.0313,-4.0353,-4.0353,-4.037,-4.0326,-4.0145,-3.9973,-3.9915,-3.9343,-3.8265,-3.767,-3.6954,-3.6071,-3.542,-3.5054,-3.5,-3.4955,-3.4898,-3.484,-3.4888,-3.486,-3.4772,-3.4718,-3.4668,-3.463,-3.4564,-3.4528,-3.4506,-3.4427,-3.4351,-3.4316,-3.4233,-3.4185,-3.4179,-3.4142,-3.4099,-3.4043,-3.3593,-3.3044,-3.2674,-3.1556,-3.0857,-3.0441,-3.011,-2.9597,-2.9069,-2.8721,-2.8466,-2.8408,-2.8334,-2.8256,-2.8195,-2.7775,-2.7726,-2.7596,-2.7483,-2.7487,-2.798,-2.8687,-2.9349,-2.9669,-3.0186,-3.0617,-3.0485,-3.0316,-3.0081,-2.982,-2.9643,-2.9457,-2.9324,-2.9273,-2.9501,-2.9604,-2.9666,-2.9312,-2.8475,-2.7916,-2.7573,-2.7401,-2.7299,-2.7196,-2.7104,-2.7026,-2.6989,-4.5125,-4.5222,-4.5338,-4.5082,-4.4517,-4.439,-4.3675,-4.2661,-4.2433,-4.1874,-4.1296,-4.1593,-4.1354,-4.0792,-4.1105,-4.1054,-4.0622,-4.053,-4.0508,-4.0508,-4.0479,-4.0476,-4.0481,-4.0433,-4.0419,-4.0378,-4.0142,-4.0161,-4.0408,-4.0177,-4.0185,-4.0394,-4.0447,-4.0427,-4.0419,-4.0402,-4.0413,-4.0413,-4.0411,-4.0027,-3.9158,-3.8323,-3.7463,-3.6542,-3.5646,-3.5204,-3.5141,-3.5089,-3.5028,-3.5001,-3.503,-3.5001,-3.4936,-3.4859,-3.4781,-3.4751,-3.4689,-3.4623,-3.458,-3.4484,-3.4431,-3.4409,-3.4328,-3.4293,-3.426,-3.4106,-3.3811,-3.3694,-3.2985,-3.2351,-3.1829,-3.0991,-2.9996,-2.9412,-2.9321,-2.8968,-2.8308,-2.7965,-2.7853,-2.788,-2.7759,-2.7587,-2.7526,-2.7452,-2.7388,-2.7247,-2.741,-2.7519,-2.8083,-2.8591,-2.9158,-2.9614,-2.9964,-3.0296,-3.0497,-3.0359,-3.0189,-2.9995,-2.9836,-2.9614,-2.946,-2.9339,-2.9422,-2.9451,-2.95,-2.9209,-2.845,-2.7986,-2.764,-2.7554,-2.7427,-2.7299,-2.7181,-2.7141,-2.713,-4.5203,-4.5213,-4.5338,-4.5389,-4.5256,-4.4687,-4.4335,-4.4102,-4.3567,-4.2809,-4.2186,-4.2237,-4.167,-4.0898,-4.1105,-4.1054,-4.0641,-4.0668,-4.0687,-4.0688,-4.0647,-4.0612,-4.0593,-4.0542,-4.0519,-4.0416,-3.9868,-3.9906,-4.0473,-3.9981,-3.9841,-4.0515,-4.0531,-4.0496,-4.0481,-4.0449,-4.0441,-4.0441,-4.0481,-4.0077,-3.9231,-3.8366,-3.7498,-3.6627,-3.5775,-3.5285,-3.5234,-3.5218,-3.5176,-3.5119,-3.511,-3.5082,-3.5001,-3.4898,-3.4812,-3.4761,-3.4718,-3.4647,-3.4561,-3.455,-3.4539,-3.4547,-3.4342,-3.4341,-3.4196,-3.3586,-3.3116,-3.3015,-3.2248,-3.1444,-3.0772,-3.0275,-2.9768,-2.9022,-2.882,-2.8595,-2.8429,-2.8164,-2.8039,-2.7982,-2.781,-2.7644,-2.7686,-2.7585,-2.7531,-2.7632,-2.7952,-2.8148,-2.8271,-2.8697,-2.9322,-2.9614,-2.976,-3.0209,-3.048,-3.0438,-3.0253,-3.0103,-2.9946,-2.9748,-2.9518,-2.9382,-2.9238,-2.9273,-2.9242,-2.8931,-2.856,-2.8091,-2.7765,-2.7604,-2.7478,-2.7376,-2.7335,-2.7335,-2.7295,-4.5286,-4.5286,-4.5359,-4.5409,-4.54,-4.5281,-4.4919,-4.4402,-4.4241,-4.3687,-4.3148,-4.3627,-4.2931,-4.1796,-4.2247,-4.197,-4.0983,-4.0767,-4.0796,-4.0846,-4.0829,-4.0764,-4.0688,-4.0662,-4.0641,-4.0589,-4.0378,-4.0442,-4.0628,-4.0391,-4.0417,-4.0576,-4.0598,-4.0557,-4.0504,-4.0542,-4.0542,-4.0546,-4.0557,-4.0145,-3.9304,-3.8433,-3.7603,-3.6692,-3.5825,-3.5407,-3.5342,-3.5361,-3.5289,-3.5185,-3.522,-3.5201,-3.5132,-3.5053,-3.5028,-3.502,-3.4917,-3.484,-3.4791,-3.4749,-3.4727,-3.4651,-3.4145,-3.3692,-3.3711,-3.2968,-3.2497,-3.2231,-3.158,-3.0947,-3.0567,-3.0007,-2.9425,-2.9144,-2.8798,-2.8549,-2.8484,-2.8367,-2.8259,-2.8164,-2.8105,-2.7979,-2.7789,-2.7733,-2.7805,-2.8091,-2.8309,-2.8521,-2.8594,-2.8733,-2.9315,-2.9351,-2.9534,-3.0084,-3.0425,-3.0402,-3.0333,-3.0189,-3.0017,-2.982,-2.957,-2.9337,-2.9153,-2.9061,-2.9028,-2.8788,-2.8507,-2.8128,-2.7915,-2.773,-2.7665,-2.7615,-2.7615,-2.7615,-2.7524,-4.5328,-4.5288,-4.5359,-4.5409,-4.5448,-4.5566,-4.5373,-4.5052,-4.5042,-4.4599,-4.3994,-4.395,-4.3331,-4.2112,-4.2187,-4.1759,-4.0887,-4.0858,-4.0878,-4.0878,-4.0898,-4.0832,-4.0769,-4.075,-4.0744,-4.0732,-4.0724,-4.0738,-4.0732,-4.0745,-4.0713,-4.0681,-4.0648,-4.0622,-4.0647,-4.0668,-4.0662,-4.0577,-4.0339,-3.983,-3.9324,-3.8148,-3.7362,-3.6613,-3.5881,-3.5398,-3.5364,-3.5364,-3.5315,-3.5297,-3.5324,-3.5324,-3.5258,-3.5218,-3.5176,-3.5189,-3.5047,-3.4974,-3.4898,-3.4831,-3.463,-3.4354,-3.3908,-3.3615,-3.3191,-3.272,-3.2575,-3.1607,-3.1079,-3.0645,-3.0153,-2.9622,-2.9304,-2.9167,-2.8917,-2.8724,-2.8712,-2.8549,-2.8432,-2.8335,-2.8282,-2.8232,-2.7933,-2.7936,-2.805,-2.827,-2.8526,-2.8782,-2.9034,-2.9125,-2.9265,-2.9448,-2.9364,-2.9736,-3.0302,-3.0434,-3.0464,-3.0316,-3.0146,-2.993,-2.9687,-2.9412,-2.9206,-2.9045,-2.8912,-2.8708,-2.8486,-2.8259,-2.8128,-2.798,-2.7955,-2.7905,-2.788,-2.7815,-2.7725,-4.5388,-4.5328,-4.5388,-4.5448,-4.5513,-4.5582,-4.5637,-4.5769,-4.5763,-4.5408,-4.4705,-4.391,-4.3226,-4.2112,-4.1768,-4.1033,-4.0823,-4.0927,-4.0945,-4.0941,-4.0907,-4.0878,-4.0848,-4.0807,-4.0807,-4.0801,-4.0812,-4.0815,-4.0812,-4.0806,-4.08,-4.0776,-4.0725,-4.0732,-4.0745,-4.0769,-4.0724,-4.0404,-3.9901,-3.9328,-3.8749,-3.7623,-3.6857,-3.6412,-3.5832,-3.5432,-3.5364,-3.5357,-3.5357,-3.5393,-3.5405,-3.5357,-3.5308,-3.5308,-3.5261,-3.5176,-3.5107,-3.5018,-3.4812,-3.4633,-3.4377,-3.3866,-3.4138,-3.4014,-3.3006,-3.292,-3.2568,-3.1468,-3.1005,-3.0645,-2.9909,-2.9479,-2.9304,-2.924,-2.9108,-2.9058,-2.8982,-2.8749,-2.8531,-2.8518,-2.8401,-2.834,-2.8232,-2.815,-2.8156,-2.8523,-2.8715,-2.8872,-2.8988,-2.896,-2.9383,-2.9971,-2.9739,-2.9348,-2.9938,-3.0463,-3.0497,-3.0464,-3.0295,-3.0081,-2.9908,-2.9659,-2.9373,-2.919,-2.9098,-2.8889,-2.8581,-2.8429,-2.8323,-2.8241,-2.8152,-2.8103,-2.8069,-2.798,-2.7915,-4.5438,-4.539,-4.538,-4.5467,-4.5568,-4.5603,-4.5679,-4.5815,-4.5873,-4.5757,-4.5454,-4.4754,-4.3893,-4.3028,-4.2198,-4.1578,-4.0932,-4.0954,-4.0971,-4.098,-4.0921,-4.0941,-4.0927,-4.0903,-4.0877,-4.0877,-4.0897,-4.0872,-4.0867,-4.0867,-4.0846,-4.0787,-4.079,-4.0773,-4.0744,-4.0784,-4.0424,-3.9861,-3.9544,-3.8746,-3.7712,-3.7153,-3.6511,-3.5958,-3.5637,-3.5501,-3.5467,-3.5453,-3.546,-3.546,-3.5427,-3.5386,-3.5342,-3.5327,-3.5247,-3.5159,-3.5122,-3.4863,-3.435,-3.4167,-3.4037,-3.3805,-3.354,-3.3189,-3.3542,-3.2949,-3.2581,-3.2006,-3.1872,-3.1406,-3.0547,-2.9785,-2.9518,-2.9447,-2.9299,-2.9226,-2.9186,-2.8957,-2.8779,-2.8682,-2.8657,-2.8582,-2.8393,-2.83,-2.8427,-2.8755,-2.8885,-2.8961,-2.8919,-2.8823,-2.9201,-2.9781,-2.9575,-2.9244,-2.9961,-3.0516,-3.0761,-3.0733,-3.0547,-3.0359,-3.0167,-2.993,-2.9687,-2.9486,-2.9321,-2.9068,-2.8771,-2.8716,-2.8636,-2.8517,-2.8396,-2.8372,-2.8348,-2.821,-2.8103,-4.5476,-4.54,-4.5419,-4.5457,-4.5586,-4.5601,-4.5687,-4.5795,-4.5867,-4.5893,-4.5725,-4.5087,-4.4256,-4.3347,-4.2568,-4.1752,-4.1125,-4.0971,-4.0992,-4.098,-4.0956,-4.0971,-4.098,-4.0967,-4.095,-4.0936,-4.095,-4.0926,-4.0912,-4.0931,-4.0903,-4.0844,-4.084,-4.0859,-4.0848,-4.0854,-4.0392,-3.9633,-3.9093,-3.8263,-3.7141,-3.648,-3.6153,-3.5685,-3.5571,-3.5553,-3.5547,-3.5554,-3.5554,-3.5541,-3.5502,-3.5449,-3.5379,-3.5372,-3.5199,-3.4801,-3.4695,-3.4523,-3.4125,-3.3991,-3.3944,-3.3922,-3.3756,-3.3502,-3.3574,-3.3286,-3.3119,-3.2657,-3.2476,-3.2367,-3.1431,-3.0528,-3.0085,-2.9903,-2.9569,-2.932,-2.924,-2.9089,-2.8952,-2.8839,-2.8798,-2.8712,-2.8569,-2.8458,-2.8407,-2.8629,-2.8564,-2.8645,-2.8855,-2.8762,-2.8728,-2.9025,-2.9003,-2.9197,-2.996,-3.0561,-3.1055,-3.1018,-3.0875,-3.0716,-3.0535,-3.0279,-2.9995,-2.9776,-2.9554,-2.9236,-2.9006,-2.8975,-2.8897,-2.8732,-2.8636,-2.8645,-2.8597,-2.8444,-2.8323,-4.5485,-4.5429,-4.5419,-4.5495,-4.5594,-4.5599,-4.5692,-4.5795,-4.5867,-4.5893,-4.5757,-4.511,-4.4291,-4.3407,-4.2568,-4.1761,-4.1162,-4.0992,-4.0991,-4.0986,-4.0995,-4.0991,-4.0995,-4.1022,-4.1018,-4.1011,-4.1007,-4.0984,-4.0949,-4.0949,-4.0964,-4.0917,-4.0921,-4.0932,-4.0975,-4.0937,-4.0405,-3.9369,-3.8729,-3.7826,-3.6846,-3.6065,-3.5734,-3.5629,-3.5615,-3.5604,-3.5589,-3.5601,-3.5599,-3.5587,-3.5575,-3.5528,-3.5456,-3.5409,-3.5224,-3.4408,-3.4503,-3.4366,-3.4165,-3.4052,-3.4014,-3.4029,-3.447,-3.4342,-3.3685,-3.4011,-3.3979,-3.3431,-3.3034,-3.2773,-3.2108,-3.0905,-3.0443,-3.0327,-2.9787,-2.9553,-2.9444,-2.9414,-2.9527,-2.8982,-2.8888,-2.8785,-2.87,-2.8587,-2.851,-2.8437,-2.8389,-2.8371,-2.8561,-2.8665,-2.8602,-2.8695,-2.8769,-2.9022,-2.9728,-3.041,-3.0931,-3.1072,-3.0987,-3.0985,-3.0845,-3.0572,-3.0279,-3.0,-2.9722,-2.9493,-2.9305,-2.9236,-2.9137,-2.8967,-2.8905,-2.8936,-2.8834,-2.866,-2.8565,-4.5577,-4.5568,-4.5504,-4.5522,-4.5594,-4.5599,-4.5673,-4.5795,-4.5867,-4.5905,-4.5814,-4.5135,-4.4379,-4.3486,-4.2597,-4.1781,-4.1174,-4.0991,-4.0997,-4.1007,-4.1003,-4.1007,-4.1058,-4.1064,-4.1084,-4.1078,-4.1049,-4.1013,-4.1002,-4.0983,-4.099,-4.0986,-4.099,-4.099,-4.0999,-4.0898,-4.0214,-3.8971,-3.8454,-3.7655,-3.6376,-3.5916,-3.5718,-3.5683,-3.5688,-3.5648,-3.5621,-3.5618,-3.5606,-3.562,-3.5553,-3.5522,-3.5502,-3.5502,-3.5348,-3.5089,-3.4946,-3.4644,-3.4215,-3.411,-3.4081,-3.4112,-3.4339,-3.4734,-3.4711,-3.4871,-3.4693,-3.4196,-3.3157,-3.2351,-3.209,-3.0871,-2.9942,-2.9817,-3.0064,-3.0203,-3.029,-3.0398,-3.0236,-2.9365,-2.9075,-2.8888,-2.8822,-2.876,-2.8719,-2.867,-2.8595,-2.8385,-2.829,-2.8369,-2.8356,-2.8509,-2.8724,-2.9035,-2.9489,-3.0126,-3.0675,-3.0875,-3.0933,-3.1172,-3.103,-3.0838,-3.0568,-3.0342,-3.013,-2.993,-2.9754,-2.9598,-2.9486,-2.935,-2.9305,-2.922,-2.9144,-2.9029,-2.8858,-4.5568,-4.5605,-4.5505,-4.5486,-4.5559,-4.5584,-4.566,-4.5773,-4.5854,-4.5892,-4.5813,-4.5523,-4.4948,-4.4117,-4.3253,-4.2216,-4.1268,-4.1042,-4.1042,-4.105,-4.1056,-4.1056,-4.1106,-4.1111,-4.1115,-4.1093,-4.1064,-4.1053,-4.1048,-4.1056,-4.1011,-4.1067,-4.1067,-4.1036,-4.1003,-4.0951,-4.0018,-3.8809,-3.8311,-3.7561,-3.5974,-3.5806,-3.578,-3.5761,-3.5757,-3.5728,-3.5679,-3.5694,-3.5703,-3.5713,-3.5667,-3.5621,-3.5612,-3.555,-3.5385,-3.4995,-3.4859,-3.4672,-3.4243,-3.4172,-3.4339,-3.4775,-3.48,-3.4971,-3.5242,-3.5224,-3.4909,-3.4219,-3.3289,-3.2202,-3.2165,-3.0932,-3.0415,-3.0236,-3.0253,-3.0117,-3.0118,-3.0349,-3.0098,-2.9711,-2.9623,-2.9411,-2.9003,-2.8968,-2.8927,-2.8884,-2.8864,-2.8591,-2.8261,-2.8159,-2.8212,-2.8326,-2.8528,-2.879,-2.917,-2.971,-3.0214,-3.0438,-3.0829,-3.1076,-3.1213,-3.101,-3.0882,-3.0753,-3.0547,-3.0274,-3.0081,-2.9886,-2.9826,-2.976,-2.9633,-2.9544,-2.9515,-2.9403,-2.9213,-4.5568,-4.5596,-4.5477,-4.5467,-4.5523,-4.5566,-4.5654,-4.5712,-4.5854,-4.5892,-4.5917,-4.5911,-4.5511,-4.4666,-4.3607,-4.2401,-4.1071,-4.107,-4.1086,-4.1096,-4.1081,-4.1103,-4.1105,-4.1109,-4.1115,-4.1115,-4.1094,-4.1111,-4.11,-4.1083,-4.1007,-4.0862,-4.0911,-4.0939,-4.0769,-4.0896,-3.9857,-3.9142,-3.8415,-3.7532,-3.6246,-3.5819,-3.5795,-3.5793,-3.5806,-3.5773,-3.5747,-3.5756,-3.5784,-3.579,-3.5776,-3.5762,-3.5713,-3.5683,-3.53,-3.4641,-3.4494,-3.4469,-3.4501,-3.4545,-3.4866,-3.531,-3.5457,-3.5418,-3.5037,-3.4683,-3.4312,-3.357,-3.2634,-3.1977,-3.1835,-3.123,-3.0789,-3.0611,-3.0226,-2.9964,-3.0025,-3.0182,-3.046,-3.0242,-3.0221,-3.0082,-2.9813,-2.9856,-2.9973,-2.9605,-2.9535,-2.9148,-2.8782,-2.8243,-2.8191,-2.8191,-2.832,-2.8529,-2.8844,-2.9239,-2.9615,-2.9847,-3.0404,-3.0881,-3.1057,-3.1176,-3.1092,-3.0948,-3.0753,-3.0506,-3.0338,-3.0177,-3.013,-3.0065,-2.9941,-2.9875,-2.9826,-2.9694,-2.9515,-4.564,-4.5586,-4.5532,-4.5495,-4.5513,-4.5573,-4.564,-4.5723,-4.5848,-4.5911,-4.5892,-4.5936,-4.5555,-4.4613,-4.3212,-4.1988,-4.1305,-4.1059,-4.1118,-4.1111,-4.1099,-4.1103,-4.1104,-4.1106,-4.1106,-4.1106,-4.1106,-4.1101,-4.0976,-4.0976,-4.0664,-4.0309,-4.0561,-4.0713,-4.0014,-4.041,-4.0557,-3.9607,-3.8766,-3.7566,-3.6197,-3.5895,-3.5853,-3.5811,-3.5799,-3.5803,-3.5791,-3.581,-3.5797,-3.5808,-3.5747,-3.5723,-3.5702,-3.5648,-3.5612,-3.5469,-3.5433,-3.5427,-3.5322,-3.5292,-3.5203,-3.5415,-3.5467,-3.5115,-3.4443,-3.3599,-3.3054,-3.2789,-3.1909,-3.1423,-3.1219,-3.0598,-3.0185,-3.0256,-3.0373,-3.0424,-3.0506,-3.0127,-3.0381,-3.0472,-3.0332,-3.0717,-3.0815,-3.0948,-3.1011,-3.0585,-3.013,-2.967,-2.9161,-2.855,-2.8168,-2.8187,-2.8152,-2.8329,-2.8414,-2.8813,-2.9143,-2.9332,-2.9847,-3.0525,-3.0881,-3.1059,-3.1185,-3.1043,-3.0841,-3.0567,-3.0286,-3.0218,-3.0357,-3.0342,-3.0258,-3.0194,-3.0146,-2.9995,-2.9826,-4.5695,-4.5601,-4.5495,-4.5467,-4.5504,-4.5575,-4.5643,-4.5731,-4.5828,-4.5892,-4.5923,-4.5975,-4.5551,-4.4603,-4.351,-4.2594,-4.1833,-4.1303,-4.1105,-4.1099,-4.1108,-4.1109,-4.1108,-4.1109,-4.1109,-4.1111,-4.1034,-4.072,-4.0577,-4.0342,-4.0088,-3.9876,-3.9694,-3.9453,-3.9113,-3.9433,-3.9036,-3.8249,-3.7442,-3.6674,-3.6081,-3.5894,-3.5882,-3.5866,-3.5856,-3.5849,-3.5845,-3.5853,-3.5815,-3.5807,-3.5786,-3.5801,-3.5788,-3.5769,-3.5758,-3.5683,-3.5194,-3.5156,-3.5502,-3.5593,-3.5336,-3.5016,-3.485,-3.4475,-3.3582,-3.2654,-3.2036,-3.2022,-3.1178,-3.0719,-3.0658,-3.03,-3.0137,-3.0147,-3.0341,-3.0287,-3.0377,-3.0386,-3.0287,-3.0373,-3.0461,-3.069,-3.0809,-3.06,-3.0407,-3.0077,-2.9777,-2.9535,-2.904,-2.8492,-2.825,-2.8164,-2.813,-2.8113,-2.8131,-2.8306,-2.8727,-2.8954,-2.9104,-2.9813,-3.0594,-3.0883,-3.0909,-3.0849,-3.063,-3.0383,-3.0192,-3.0286,-3.0453,-3.0497,-3.0547,-3.0472,-3.0414,-3.0333,-3.0108,-4.5773,-4.564,-4.5505,-4.5496,-4.5559,-4.5594,-4.5662,-4.5739,-4.5841,-4.5905,-4.5858,-4.5753,-4.522,-4.4435,-4.3565,-4.2624,-4.1971,-4.1386,-4.1168,-4.1103,-4.1109,-4.1111,-4.1112,-4.1112,-4.1114,-4.1074,-4.0767,-4.0456,-3.9926,-3.9394,-3.9101,-3.9242,-3.8915,-3.8479,-3.8319,-3.8465,-3.83,-3.7442,-3.6833,-3.6321,-3.5963,-3.5883,-3.5897,-3.5889,-3.59,-3.5891,-3.5891,-3.5882,-3.5862,-3.5849,-3.5852,-3.5864,-3.5842,-3.5578,-3.5445,-3.522,-3.4657,-3.4391,-3.4676,-3.4793,-3.4686,-3.4284,-3.3789,-3.3346,-3.2789,-3.1821,-3.1232,-3.1277,-3.0759,-3.0336,-3.0227,-3.0245,-3.0178,-3.0135,-3.0148,-2.9991,-2.9895,-3.0037,-3.0029,-2.9954,-3.002,-3.0123,-3.0142,-2.9868,-2.9646,-2.9466,-2.9334,-2.9304,-2.9004,-2.8577,-2.8663,-2.8649,-2.858,-2.8439,-2.8173,-2.823,-2.85,-2.8745,-2.8917,-2.9297,-3.0177,-3.0439,-3.0402,-3.0365,-3.0327,-3.0354,-3.0241,-3.0376,-3.0508,-3.0432,-3.0406,-3.0634,-3.0657,-3.0597,-3.0401,-4.5852,-4.5765,-4.5637,-4.5603,-4.5693,-4.5616,-4.5665,-4.5788,-4.5873,-4.5918,-4.5875,-4.5254,-4.4588,-4.3793,-4.3043,-4.2163,-4.1328,-4.1152,-4.1109,-4.1103,-4.1109,-4.1112,-4.1114,-4.1116,-4.1061,-4.089,-4.048,-4.0091,-3.9487,-3.8291,-3.7817,-3.7498,-3.7902,-3.7817,-3.7736,-3.7771,-3.7706,-3.7119,-3.6766,-3.6469,-3.6094,-3.5919,-3.5916,-3.5919,-3.5911,-3.5889,-3.5889,-3.5811,-3.5844,-3.581,-3.5599,-3.5671,-3.5499,-3.5013,-3.4737,-3.451,-3.3842,-3.3545,-3.3596,-3.3723,-3.3462,-3.3096,-3.2604,-3.212,-3.1851,-3.1047,-3.0575,-3.0631,-3.0436,-3.0355,-3.0317,-3.0299,-3.0246,-3.0199,-3.0142,-3.0038,-2.9943,-2.9878,-2.9832,-2.9596,-2.9603,-2.9761,-2.9717,-2.9512,-2.9514,-2.9372,-2.9241,-2.9181,-2.9281,-2.903,-2.9274,-2.9359,-2.9259,-2.8993,-2.8477,-2.8593,-2.8986,-2.918,-2.9319,-2.9544,-2.9959,-3.0019,-2.9867,-2.9989,-2.9989,-3.014,-3.0153,-2.9858,-2.975,-3.0066,-3.026,-3.0518,-3.0774,-3.0838,-3.0609,-4.588,-4.5852,-4.5742,-4.5715,-4.5684,-4.5684,-4.5712,-4.5805,-4.588,-4.5938,-4.5964,-4.5191,-4.4937,-4.4522,-4.3112,-4.2523,-4.2456,-4.1464,-4.1248,-4.1103,-4.1109,-4.1114,-4.1115,-4.1019,-4.0883,-4.0461,-3.9994,-3.9154,-3.8158,-3.7514,-3.6984,-3.6842,-3.6993,-3.6759,-3.6735,-3.6907,-3.6767,-3.6664,-3.6489,-3.6253,-3.6116,-3.5962,-3.5963,-3.5965,-3.5955,-3.5958,-3.5884,-3.5385,-3.5513,-3.5487,-3.4915,-3.4845,-3.4912,-3.4266,-3.3905,-3.3737,-3.3017,-3.2616,-3.2655,-3.2857,-3.3041,-3.2286,-3.1632,-3.11,-3.1129,-3.0639,-3.0502,-3.0483,-3.0472,-3.0406,-3.0377,-3.0336,-3.0286,-3.0233,-3.0164,-3.0076,-2.9999,-2.9918,-2.9816,-2.9664,-2.9501,-2.946,-2.9357,-2.9233,-2.93,-2.9344,-2.9201,-2.9119,-2.9256,-2.9344,-2.9503,-2.9688,-2.9588,-2.9579,-2.9098,-2.9283,-2.9558,-2.9704,-2.9827,-2.9984,-3.0136,-2.9392,-2.9315,-2.9481,-2.952,-2.9401,-2.9246,-2.8953,-2.9025,-2.9451,-2.9971,-3.0451,-3.0712,-3.0971,-3.0834,-4.5931,-4.5893,-4.588,-4.5807,-4.5727,-4.5727,-4.5764,-4.5821,-4.5886,-4.5938,-4.5944,-4.523,-4.4962,-4.4702,-4.3419,-4.2362,-4.2344,-4.1649,-4.123,-4.1103,-4.1109,-4.1114,-4.1115,-4.1058,-4.0865,-4.0227,-3.9546,-3.8765,-3.7984,-3.7244,-3.6618,-3.6205,-3.6007,-3.6082,-3.6077,-3.6018,-3.6016,-3.6013,-3.6009,-3.6013,-3.5994,-3.5996,-3.5999,-3.6003,-3.6,-3.6,-3.5767,-3.5312,-3.5052,-3.489,-3.4454,-3.3899,-3.3774,-3.3572,-3.3115,-3.2737,-3.2284,-3.1751,-3.1863,-3.2026,-3.2217,-3.1538,-3.1093,-3.0689,-3.055,-3.0535,-3.0535,-3.0495,-3.0485,-3.0469,-3.0411,-3.0336,-3.0312,-3.026,-3.0211,-3.0132,-3.0046,-2.9975,-2.9876,-2.9755,-2.9589,-2.9474,-2.9361,-2.9267,-2.9147,-2.9174,-2.8997,-2.9092,-2.9448,-2.95,-2.9483,-2.9656,-2.9773,-2.9796,-2.9805,-3.0244,-3.0643,-3.0689,-3.0744,-3.0561,-3.0397,-2.9664,-2.9336,-2.9767,-2.9583,-2.8804,-2.8636,-2.8816,-2.8863,-2.8939,-2.9657,-3.0485,-3.0573,-3.0818,-3.1007,-4.5964,-4.5898,-4.596,-4.5918,-4.5807,-4.5807,-4.5847,-4.5906,-4.5912,-4.595,-4.5878,-4.5155,-4.446,-4.3808,-4.2815,-4.21,-4.1729,-4.1345,-4.1099,-4.1108,-4.1109,-4.1112,-4.1058,-4.0982,-4.0652,-4.058,-3.9488,-3.8454,-3.8162,-3.6893,-3.617,-3.6052,-3.6009,-3.6004,-3.6013,-3.6006,-3.6006,-3.6009,-3.6004,-3.6012,-3.6021,-3.6003,-3.5987,-3.5795,-3.5775,-3.5737,-3.5288,-3.462,-3.4363,-3.4422,-3.359,-3.3171,-3.3267,-3.2569,-3.2169,-3.2043,-3.1369,-3.0942,-3.0803,-3.0821,-3.0892,-3.0936,-3.0696,-3.0617,-3.0595,-3.0592,-3.0569,-3.053,-3.0505,-3.0474,-3.04,-3.0342,-3.0324,-3.0292,-3.0225,-3.0161,-3.0095,-2.9999,-2.9883,-2.9823,-2.9763,-2.9654,-2.9503,-2.9351,-2.9108,-2.897,-2.8798,-2.8979,-2.9403,-2.9437,-2.9318,-2.9386,-2.9554,-2.9781,-3.0021,-3.1173,-3.1683,-3.1715,-3.1586,-3.1344,-3.1031,-3.054,-3.035,-3.0323,-2.9804,-2.9183,-2.9002,-2.8908,-2.8982,-2.9152,-2.9903,-3.055,-3.059,-3.0749,-3.1048,-4.5994,-4.596,-4.5991,-4.598,-4.5925,-4.5886,-4.5893,-4.5968,-4.6003,-4.6005,-4.5691,-4.4673,-4.4316,-4.3808,-4.2587,-4.1735,-4.1831,-4.1211,-4.1101,-4.1114,-4.1112,-4.1114,-4.1,-4.0632,-4.0128,-3.9292,-3.8259,-3.7499,-3.6758,-3.6191,-3.6092,-3.6012,-3.6009,-3.6021,-3.6019,-3.6017,-3.6017,-3.6012,-3.601,-3.6014,-3.6004,-3.5966,-3.5715,-3.5212,-3.5174,-3.492,-3.4433,-3.3669,-3.3434,-3.359,-3.2744,-3.217,-3.2306,-3.175,-3.1313,-3.1269,-3.0835,-3.081,-3.0745,-3.0776,-3.0717,-3.0694,-3.0672,-3.063,-3.0608,-3.0604,-3.0591,-3.0568,-3.0535,-3.0491,-3.046,-3.0352,-3.0317,-3.0286,-3.0245,-3.0176,-3.0102,-2.998,-2.988,-2.9883,-2.9841,-2.9773,-2.9645,-2.9463,-2.9228,-2.9037,-2.8875,-2.881,-2.9101,-2.9028,-2.8923,-2.8979,-2.9142,-2.9517,-3.0096,-3.122,-3.1958,-3.2007,-3.1982,-3.1913,-3.16,-3.1394,-3.102,-3.0848,-3.0227,-2.964,-2.9529,-2.9402,-2.9253,-2.9474,-3.0435,-3.0993,-3.1109,-3.1239,-3.1401,-4.5758,-4.5989,-4.5994,-4.5994,-4.5989,-4.5941,-4.596,-4.6008,-4.6066,-4.6061,-4.5823,-4.4939,-4.4389,-4.3994,-4.2944,-4.1596,-4.1965,-4.1411,-4.1103,-4.1116,-4.11,-4.1102,-4.0909,-4.0519,-4.0094,-3.8983,-3.8144,-3.7402,-3.6699,-3.6211,-3.6035,-3.6012,-3.6008,-3.6008,-3.6007,-3.6006,-3.6005,-3.6022,-3.6022,-3.6006,-3.5912,-3.5679,-3.5269,-3.4804,-3.4433,-3.4023,-3.334,-3.2773,-3.2324,-3.2402,-3.1931,-3.1165,-3.1339,-3.1219,-3.0804,-3.0801,-3.0792,-3.0788,-3.079,-3.0774,-3.0745,-3.0746,-3.0727,-3.0676,-3.0641,-3.0649,-3.061,-3.0589,-3.0534,-3.0501,-3.0423,-3.0337,-3.0188,-3.0139,-3.0093,-3.0025,-3.0063,-2.995,-2.9942,-2.9945,-2.9951,-2.9878,-2.9765,-2.9579,-2.9372,-2.9171,-2.8987,-2.8917,-2.8876,-2.8822,-2.881,-2.8912,-2.9156,-2.9625,-3.0306,-3.1256,-3.1864,-3.2192,-3.2337,-3.2474,-3.2627,-3.2476,-3.1918,-3.1419,-3.1105,-3.0732,-3.0204,-2.9958,-3.0154,-3.0556,-3.1253,-3.1617,-3.169,-3.174,-3.1785,-4.522,-4.5924,-4.5963,-4.5963,-4.5997,-4.5989,-4.5997,-4.5989,-4.6085,-4.608,-4.6066,-4.5897,-4.4972,-4.3802,-4.3468,-4.2524,-4.146,-4.1169,-4.1116,-4.11,-4.1108,-4.111,-4.1053,-4.0838,-4.0039,-3.9511,-3.8671,-3.7518,-3.7108,-3.6386,-3.6016,-3.6014,-3.6015,-3.6014,-3.6013,-3.6013,-3.6013,-3.6011,-3.6011,-3.5897,-3.5664,-3.5175,-3.4687,-3.418,-3.3651,-3.3261,-3.2754,-3.2324,-3.207,-3.1836,-3.1366,-3.1072,-3.0914,-3.0834,-3.0812,-3.0807,-3.0795,-3.0791,-3.0788,-3.0798,-3.0794,-3.0778,-3.073,-3.0707,-3.0687,-3.0683,-3.0649,-3.0533,-3.0447,-3.0414,-3.0356,-3.0144,-2.9915,-2.9856,-2.9807,-2.9856,-2.9968,-2.9975,-2.9977,-3.0011,-3.0046,-2.9994,-2.9834,-2.9654,-2.9464,-2.927,-2.9115,-2.9067,-2.8998,-2.894,-2.897,-2.9083,-2.9389,-2.9885,-3.0552,-3.1041,-3.1627,-3.1889,-3.2815,-3.3098,-3.3332,-3.3442,-3.2998,-3.2556,-3.2293,-3.1792,-3.0903,-3.0948,-3.1434,-3.1828,-3.1925,-3.1954,-3.1932,-3.2074,-3.2126,-4.4375,-4.5128,-4.5133,-4.5458,-4.5963,-4.5991,-4.5986,-4.5997,-4.6075,-4.6108,-4.605,-4.4849,-4.4215,-4.3532,-4.2395,-4.1679,-4.1307,-4.1104,-4.111,-4.1112,-4.1113,-4.1113,-4.0937,-4.0566,-3.9763,-3.8941,-3.8118,-3.7413,-3.6537,-3.5992,-3.6013,-3.6014,-3.6015,-3.6015,-3.6015,-3.6014,-3.6015,-3.5976,-3.5957,-3.5605,-3.5194,-3.4707,-3.4023,-3.3221,-3.2751,-3.2322,-3.1814,-3.1581,-3.1366,-3.1211,-3.1074,-3.0916,-3.0897,-3.0876,-3.0856,-3.0856,-3.083,-3.0784,-3.0803,-3.0804,-3.0802,-3.0791,-3.0769,-3.0736,-3.0714,-3.0626,-3.0587,-3.0399,-2.9982,-2.976,-2.9529,-2.9323,-2.9115,-2.8973,-2.8938,-2.9034,-2.9148,-2.9298,-2.9377,-2.9832,-2.9874,-2.9912,-2.979,-2.9754,-2.957,-2.9384,-2.9249,-2.9192,-2.9145,-2.9089,-2.91,-2.9211,-2.9344,-2.9751,-2.986,-3.0268,-3.0998,-3.1691,-3.2637,-3.348,-3.3769,-3.3843,-3.3832,-3.3565,-3.3067,-3.2261,-3.1336,-3.1632,-3.2205,-3.2087,-3.2143,-3.2172,-3.2234,-3.2348,-3.2404,-4.3524,-4.4244,-4.4273,-4.4764,-4.5497,-4.5866,-4.6032,-4.6037,-4.6084,-4.6117,-4.5946,-4.4756,-4.3923,-4.3434,-4.2337,-4.1523,-4.1138,-4.1107,-4.1112,-4.1113,-4.1111,-4.1111,-4.0836,-4.05,-3.9693,-3.8732,-3.7908,-3.7339,-3.6309,-3.5985,-3.6008,-3.6009,-3.6012,-3.6011,-3.6008,-3.6003,-3.6021,-3.5851,-3.5619,-3.521,-3.4702,-3.4079,-3.2966,-3.2319,-3.1888,-3.1342,-3.0991,-3.0914,-3.0914,-3.0915,-3.0918,-3.0918,-3.0898,-3.0898,-3.0898,-3.0897,-3.0836,-3.0833,-3.0832,-3.0819,-3.0806,-3.0794,-3.0765,-3.0528,-3.0292,-3.0103,-3.0122,-3.0016,-2.9379,-2.8856,-2.859,-2.8336,-2.8091,-2.786,-2.794,-2.8006,-2.8192,-2.8395,-2.8864,-2.9408,-2.9631,-2.9703,-2.971,-2.9712,-2.969,-2.9523,-2.9414,-2.9341,-2.9296,-2.9251,-2.9265,-2.9347,-2.9357,-2.9487,-2.959,-2.988,-3.0757,-3.1638,-3.2518,-3.3307,-3.3912,-3.4179,-3.4068,-3.392,-3.3685,-3.297,-3.2366,-3.2438,-3.2768,-3.2657,-3.2603,-3.2709,-3.2749,-3.2681,-3.269,-4.268,-4.3417,-4.349,-4.4001,-4.4758,-4.5419,-4.5721,-4.5899,-4.5747,-4.5907,-4.5764,-4.5094,-4.4163,-4.3265,-4.2322,-4.1622,-4.1255,-4.111,-4.1113,-4.1093,-4.1106,-4.1101,-4.1099,-4.0974,-4.0067,-3.9099,-3.8235,-3.7474,-3.6323,-3.5965,-3.5996,-3.6001,-3.6017,-3.5994,-3.597,-3.6004,-3.5983,-3.5845,-3.5152,-3.4472,-3.4082,-3.3172,-3.2047,-3.1844,-3.1395,-3.0889,-3.0891,-3.0891,-3.0909,-3.0913,-3.0914,-3.0915,-3.0917,-3.0917,-3.0918,-3.0898,-3.0859,-3.0858,-3.0857,-3.0851,-3.0823,-3.0796,-3.0708,-3.0269,-2.9944,-2.9769,-2.9783,-2.927,-2.8602,-2.8113,-2.781,-2.742,-2.7116,-2.6968,-2.6968,-2.7167,-2.7459,-2.7822,-2.842,-2.8927,-2.9215,-2.9372,-2.9874,-2.9907,-2.9806,-2.9681,-2.9561,-2.9502,-2.9443,-2.939,-2.9458,-2.95,-2.95,-2.9519,-2.9572,-2.9977,-3.0796,-3.1644,-3.2486,-3.3347,-3.4097,-3.4291,-3.4305,-3.4169,-3.4052,-3.4086,-3.3778,-3.3623,-3.3412,-3.3408,-3.3392,-3.34,-3.3334,-3.3119,-3.2934,-4.1804,-4.2658,-4.3251,-4.3641,-4.3811,-4.4006,-4.4175,-4.4182,-4.4203,-4.4616,-4.4933,-4.4283,-4.3515,-4.2749,-4.1913,-4.1314,-4.1204,-4.1112,-4.1112,-4.1066,-4.1055,-4.0917,-4.1049,-4.09,-4.0322,-3.9611,-3.8705,-3.7569,-3.6287,-3.5947,-3.597,-3.5949,-3.5972,-3.5978,-3.5945,-3.5984,-3.5925,-3.5702,-3.4595,-3.3846,-3.3498,-3.2763,-3.1873,-3.1385,-3.0821,-3.0824,-3.0846,-3.0867,-3.0888,-3.091,-3.0913,-3.0914,-3.0915,-3.0915,-3.0916,-3.0916,-3.0898,-3.0898,-3.0898,-3.0859,-3.0798,-3.054,-3.0321,-2.9924,-2.9641,-2.9548,-2.9164,-2.8474,-2.787,-2.7404,-2.7013,-2.6569,-2.6246,-2.6148,-2.6087,-2.6414,-2.673,-2.7306,-2.7924,-2.8394,-2.8748,-2.9234,-2.9783,-3.0007,-2.991,-2.9806,-2.9708,-2.9636,-2.9608,-2.9579,-2.972,-2.9758,-2.9711,-2.9701,-2.9756,-3.0252,-3.1158,-3.1738,-3.2449,-3.335,-3.4278,-3.4431,-3.4487,-3.4443,-3.4409,-3.4381,-3.4335,-3.4201,-3.4043,-3.3985,-3.3855,-3.3753,-3.3661,-3.3488,-3.3256,-4.1323,-4.1844,-4.2629,-4.2977,-4.3027,-4.3365,-4.3572,-4.3599,-4.3607,-4.3653,-4.3721,-4.3267,-4.2802,-4.2269,-4.1491,-4.1106,-4.111,-4.1113,-4.111,-4.1077,-4.0774,-4.0501,-4.0531,-4.0537,-3.983,-3.9177,-3.8299,-3.72,-3.6097,-3.5926,-3.5926,-3.5904,-3.5938,-3.594,-3.5904,-3.5912,-3.5739,-3.5259,-3.4009,-3.3314,-3.2896,-3.2009,-3.1394,-3.0851,-3.0795,-3.0799,-3.08,-3.0823,-3.0843,-3.0865,-3.0889,-3.0911,-3.0912,-3.0913,-3.0914,-3.0914,-3.0915,-3.0915,-3.0915,-3.0877,-3.0703,-3.0293,-2.998,-2.9607,-2.8288,-2.812,-2.8094,-2.7443,-2.6809,-2.6323,-2.6276,-2.5932,-2.5812,-2.5736,-2.5677,-2.5827,-2.5924,-2.615,-2.7064,-2.8007,-2.8402,-2.8871,-2.9453,-3.0095,-2.9999,-2.9967,-2.9874,-2.9813,-2.9779,-2.98,-2.9923,-3.0178,-3.0254,-3.0283,-3.0424,-3.096,-3.1684,-3.2162,-3.2584,-3.3467,-3.436,-3.4563,-3.466,-3.4636,-3.4594,-3.4591,-3.4528,-3.4443,-3.4351,-3.4221,-3.4111,-3.4016,-3.3926,-3.382,-3.3684,-4.0994,-4.1189,-4.1866,-4.2139,-4.2263,-4.2925,-4.3208,-4.3214,-4.3231,-4.2875,-4.2373,-4.2278,-4.2239,-4.1935,-4.1519,-4.1271,-4.1109,-4.1113,-4.1108,-4.0745,-4.0381,-4.0029,-3.9827,-3.9735,-3.918,-3.8488,-3.7653,-3.6827,-3.5931,-3.5894,-3.5894,-3.5892,-3.5897,-3.5883,-3.5897,-3.5802,-3.5593,-3.4786,-3.3807,-3.2988,-3.214,-3.1295,-3.0977,-3.0807,-3.0792,-3.0795,-3.0798,-3.0798,-3.0796,-3.0819,-3.0843,-3.0865,-3.0888,-3.0889,-3.0871,-3.0872,-3.0871,-3.0872,-3.0892,-3.0893,-3.0388,-2.9902,-2.9628,-2.8809,-2.7477,-2.7062,-2.7057,-2.6809,-2.6158,-2.5819,-2.5795,-2.5646,-2.5566,-2.5448,-2.54,-2.5373,-2.536,-2.5403,-2.6427,-2.7565,-2.8141,-2.8613,-2.9389,-3.0035,-3.0136,-3.0095,-3.0072,-3.0022,-3.001,-3.0081,-3.0178,-3.073,-3.1149,-3.1172,-3.1223,-3.1657,-3.2326,-3.2798,-3.3279,-3.3919,-3.4429,-3.4678,-3.4811,-3.4781,-3.4769,-3.4749,-3.4708,-3.4645,-3.4539,-3.4431,-3.4351,-3.4276,-3.4173,-3.4111,-3.412,-4.0455,-4.1111,-4.1271,-4.1342,-4.1376,-4.156,-4.1563,-4.1576,-4.1615,-4.1462,-4.1466,-4.1369,-4.1347,-4.1369,-4.1244,-4.1109,-4.1107,-4.1113,-4.0602,-4.0123,-4.0424,-3.9815,-3.9339,-3.9403,-3.8702,-3.8007,-3.7336,-3.671,-3.6006,-3.5889,-3.5883,-3.5894,-3.588,-3.5899,-3.588,-3.5752,-3.5473,-3.4608,-3.3785,-3.2969,-3.2119,-3.1408,-3.0913,-3.0786,-3.0794,-3.0795,-3.0795,-3.0794,-3.0789,-3.0809,-3.0812,-3.0817,-3.0821,-3.0843,-3.0824,-3.0826,-3.0825,-3.0826,-3.0847,-3.0732,-3.021,-2.947,-2.9021,-2.8125,-2.7226,-2.6873,-2.6908,-2.7033,-2.6546,-2.6311,-2.6171,-2.5878,-2.5715,-2.5507,-2.5408,-2.5397,-2.5366,-2.5654,-2.6259,-2.7234,-2.8049,-2.8902,-2.9959,-3.0305,-3.0273,-3.0271,-3.0307,-3.0304,-3.0552,-3.0525,-3.0537,-3.1294,-3.2031,-3.2213,-3.2313,-3.2422,-3.2943,-3.3429,-3.3856,-3.4292,-3.4633,-3.4841,-3.4946,-3.4898,-3.4879,-3.486,-3.4811,-3.479,-3.4728,-3.4626,-3.4583,-3.4506,-3.4427,-3.4514,-3.463]},{"header":{"parameterUnit":"m.s-1","parameterCategory":1,"la1":31.0,"la2":29.5877,"lo1":-88.7671,"lo2":-86.6584,"dy":0.0162,"dx":0.0185,"nx":115,"ny":88,"refTime":"2024-04-20T00:00:00:Z","depth":0,"parameterNumber":3,"parameterNumberName":"V-component_of_WINDS"},"data":[0.0,0.0,0.0,0.0,0.0,0.0,0.0,0.0,0.0,0.0,0.0,0.0,0.0,0.0,0.0,0.0,0.0,0.0,0.0,0.0,0.0,0.0,0.0,0.0,0.0,0.0,0.0,0.0,0.0,0.0,0.0,0.0,0.0,0.0,0.0,0.0,0.0,0.0,0.0,0.0,0.0,0.0,0.0,0.0,0.0,0.0,0.0,0.0,0.0,0.0,0.0,0.0,0.0,0.0,0.0,0.0,0.0,0.0,0.0,0.0,0.0,0.0,0.0,0.0,0.0,0.0,0.0,0.0,0.0,0.0,0.0,0.0,0.0,0.0,0.0,0.0,0.0,0.0,0.0,0.0,0.0,0.0,0.0,0.0,0.0,0.0,0.0,0.0,0.0,0.0,0.0,0.0,0.0,0.0,0.0,0.0,0.0,0.0,0.0,0.0,0.0,0.0,0.0,0.0,0.0,0.0,0.0,0.0,0.0,0.0,0.0,0.0,0.0,0.0,0.0,0.0,0.0,0.0,0.0,0.0,0.0,0.0,0.0,0.0,0.0,0.0,0.0,0.0,0.0,0.0,0.0,0.0,0.0,0.0,0.0,0.0,0.0,0.0,0.0,0.0,0.0,0.0,0.0,0.0,0.0,0.0,0.0,0.0,0.0,0.0,0.0,0.0,0.0,0.0,0.0,0.0,0.0,0.0,0.0,0.0,0.0,0.0,0.0,0.0,0.0,0.0,0.0,0.0,0.0,0.0,0.0,0.0,0.0,0.0,0.0,0.0,0.0,0.0,0.0,0.0,0.0,0.0,0.0,0.0,0.0,0.0,0.0,0.0,0.0,0.0,0.0,0.0,0.0,0.0,0.0,0.0,0.0,0.0,0.0,0.0,0.0,0.0,0.0,0.0,0.0,0.0,0.0,0.0,0.0,0.0,0.0,0.0,0.0,0.0,0.0,0.0,0.0,0.0,0.0,0.0,0.0,0.0,0.0,0.0,0.0,0.0,0.0,0.0,0.0,0.0,0.0,0.0,0.0,0.0,0.0,0.0,0.0,0.0,0.0,0.0,0.0,0.0,0.0,0.0,0.0,0.0,0.0,0.0,0.0,0.0,0.0,0.0,0.0,0.0,0.0,0.0,0.0,0.0,0.0,0.0,0.0,0.0,0.0,0.0,0.0,0.0,0.0,0.0,0.0,0.0,0.0,0.0,0.0,0.0,0.0,0.0,0.0,0.0,0.0,0.0,0.0,0.0,0.0,0.0,0.0,0.0,0.0,0.0,0.0,0.0,0.0,0.0,0.0,0.0,0.0,0.0,0.0,0.0,0.0,0.0,0.0,0.0,0.0,0.0,0.0,0.0,0.0,0.0,0.0,0.0,0.0,0.0,0.0,0.0,0.0,0.0,0.0,0.0,0.0,0.0,0.0,0.0,0.0,0.0,0.0,0.0,0.0,0.0,0.0,0.0,0.0,0.0,0.0,0.0,0.0,0.0,0.0,0.0,0.0,0.0,0.0,0.0,0.0,0.0,0.0,0.0,0.0,0.0,0.0,0.0,0.0,0.0,0.0,0.0,0.0,0.0,0.0,0.0,0.0,0.0,0.0,0.0,0.0,0.0,0.0,0.0,0.0,0.0,0.0,0.0,0.0,0.0,0.0,0.0,0.0,0.0,0.0,0.0,0.0,0.0,0.0,0.0,0.0,0.0,0.0,0.0,0.0,0.0,0.0,0.0,0.0,0.0,0.0,0.0,0.0,0.0,0.0,0.0,0.0,0.0,0.0,0.0,0.0,0.0,0.0,0.0,0.0,0.0,0.0,0.0,0.0,0.0,0.0,0.0,0.0,0.0,0.0,0.0,0.0,0.0,0.0,0.0,0.0,0.0,0.0,0.0,0.0,0.0,0.0,0.0,0.0,0.0,0.0,0.0,0.0,0.0,0.0,0.0,0.0,0.0,0.0,0.0,0.0,0.0,0.0,0.0,0.0,0.0,0.0,0.0,0.0,0.0,0.0,0.0,0.0,0.0,0.0,0.0,0.0,0.0,0.0,0.0,0.0,0.0,0.0,0.0,0.0,0.0,0.0,0.0,0.0,0.0,0.0,0.0,0.0,0.0,0.0,0.0,0.0,0.0,0.0,0.0,0.0,0.0,0.0,0.0,0.0,0.0,0.0,0.0,0.0,0.0,0.0,0.0,0.0,0.0,0.0,0.0,0.0,0.0,0.0,0.0,0.0,0.0,0.0,0.0,0.0,0.0,0.0,0.0,0.0,0.0,0.0,0.0,0.0,0.0,0.0,0.0,0.0,0.0,0.0,0.0,0.0,0.0,0.0,0.0,0.0,0.0,0.0,0.0,0.0,0.0,0.0,0.0,0.0,0.0,0.0,0.0,0.0,0.0,0.0,0.0,0.0,0.0,0.0,0.0,0.0,0.0,0.0,0.0,0.0,0.0,0.0,0.0,0.0,0.0,0.0,0.0,0.0,0.0,0.0,0.0,0.0,0.0,0.0,0.0,0.0,0.0,0.0,0.0,0.0,0.0,0.0,0.0,0.0,0.0,0.0,0.0,0.0,0.0,0.0,0.0,0.0,0.0,0.0,0.0,0.0,0.0,0.0,0.0,0.0,0.0,0.0,0.0,0.0,0.0,0.0,0.0,0.0,0.0,0.0,0.0,0.0,0.0,0.0,0.0,0.0,0.0,0.0,0.0,0.0,0.0,0.0,0.0,0.0,0.0,0.0,0.0,0.0,0.0,0.0,0.0,0.0,0.0,0.0,0.0,0.0,0.0,0.0,0.0,0.0,0.0,0.0,0.0,0.0,0.0,0.0,0.0,0.0,0.0,0.0,0.0,0.0,0.0,0.0,0.0,0.0,0.0,0.0,0.0,0.0,0.0,0.0,0.0,0.0,0.0,0.0,0.0,0.0,0.0,0.0,0.0,0.0,0.0,0.0,0.0,0.0,0.0,0.0,0.0,0.0,0.0,0.0,0.0,0.0,0.0,0.0,0.0,0.0,0.0,0.0,0.0,0.0,0.0,0.0,0.0,0.0,0.0,0.0,0.0,0.0,0.0,0.0,0.0,0.0,0.0,0.0,0.0,0.0,0.0,0.0,0.0,0.0,0.0,0.0,0.0,0.0,0.0,0.0,0.0,0.0,0.0,0.0,0.0,0.0,0.0,0.0,0.0,0.0,0.0,0.0,0.0,0.0,0.0,0.0,0.0,0.0,0.0,0.0,0.0,0.0,0.0,0.0,0.0,0.0,0.0,0.0,0.0,0.0,0.0,0.0,0.0,0.0,0.0,0.0,0.0,0.0,0.0,0.0,0.0,0.0,0.0,0.0,0.0,0.0,0.0,0.0,0.0,0.0,0.0,0.0,0.0,0.0,0.0,0.0,0.0,0.0,0.0,0.0,0.0,0.0,0.0,0.0,0.0,0.0,0.0,0.0,0.0,0.0,0.0,0.0,0.0,0.0,0.0,0.0,0.0,0.0,0.0,0.0,0.0,0.0,0.0,0.0,0.0,0.0,0.0,0.0,0.0,0.0,0.0,0.0,0.0,0.0,0.0,0.0,0.0,0.0,0.0,0.0,0.0,0.0,0.0,0.0,0.0,0.0,0.0,0.0,0.0,0.0,0.0,0.0,0.0,0.0,0.0,0.0,0.0,0.0,0.0,0.0,0.0,0.0,0.0,0.0,0.0,0.0,0.0,0.0,0.0,0.0,0.0,0.0,0.0,0.0,0.0,0.0,0.0,0.0,0.0,0.0,0.0,0.0,0.0,0.0,0.0,0.0,0.0,0.0,0.0,0.0,0.0,0.0,0.0,0.0,0.0,0.0,0.0,0.0,0.0,0.0,0.0,0.0,0.0,0.0,0.0,0.0,0.0,0.0,0.0,0.0,0.0,0.0,0.0,0.0,0.0,0.0,0.0,0.0,0.0,0.0,0.0,0.0,0.0,0.0,0.0,0.0,0.0,0.0,0.0,0.0,0.0,0.0,0.0,0.0,0.0,0.0,0.0,0.0,0.0,0.0,0.0,0.0,0.0,0.0,0.0,0.0,0.0,0.0,0.0,0.0,0.0,0.0,0.0,0.0,0.0,0.0,0.0,0.0,0.0,0.0,0.0,0.0,0.0,0.0,0.0,0.0,0.0,0.0,0.0,0.0,0.0,0.0,0.0,0.0,0.0,0.0,0.0,0.0,0.0,0.0,0.0,0.0,0.0,0.0,0.0,0.0,0.0,0.0,0.0,0.0,0.0,0.0,0.0,0.0,0.0,0.0,0.0,-0.4812,0.0,0.0,0.0,0.0,0.0,0.0,0.0,0.0,0.0,0.0,0.0,0.0,0.0,0.0,0.0,0.0,0.0,0.0,0.0,0.0,0.0,0.0,0.0,0.0,0.0,0.0,0.0,0.0,0.0,0.0,0.0,0.0,0.0,0.0,0.0,0.0,0.0,0.0,0.0,0.0,0.0,0.0,0.0,0.0,0.0,0.0,0.0,0.0,0.0,0.0,0.0,0.0,0.0,0.0,0.0,0.0,0.0,0.0,0.0,0.0,0.0,0.0,0.0,0.0,0.0,0.0,0.0,0.0,0.0,0.0,0.0,0.0,0.0,0.0,0.0,0.0,0.0,0.0,0.0,0.0,0.0,0.0,0.0,0.0,0.0,0.0,0.0,0.0,0.0,0.0,0.0,0.0,0.0,0.0,0.0,0.0,0.0,0.0,0.0,0.0,0.0,0.0,0.0,0.0,0.0,0.0,0.0,0.0,0.0,0.0,-0.5127,-0.5146,-0.5039,-0.4922,-0.4844,0.0,0.0,0.0,0.0,0.0,0.0,0.0,0.0,0.0,0.0,0.0,0.0,0.0,0.0,0.0,0.0,0.0,0.0,0.0,0.0,0.0,0.0,0.0,0.0,0.0,0.0,0.0,0.0,0.0,0.0,0.0,0.0,0.0,0.0,0.0,0.0,0.0,0.0,0.0,0.0,0.0,0.0,0.0,0.0,0.0,0.0,0.0,0.0,0.0,0.0,0.0,0.0,0.0,0.0,0.0,0.0,0.0,0.0,0.0,0.0,0.0,0.0,0.0,0.0,0.0,0.0,0.0,0.0,0.0,0.0,0.0,0.0,0.0,0.0,0.0,0.0,0.0,0.0,0.0,0.0,0.0,0.0,0.0,0.0,0.0,0.0,0.0,0.0,0.0,0.0,0.0,0.0,0.0,0.0,0.0,0.0,0.0,0.0,0.0,0.0,0.0,0.0,0.0,0.0,0.0,0.0,0.0,0.0,0.0,0.0,0.0,0.0,-0.5059,-0.4941,-0.4883,0.0,0.0,0.0,0.0,0.0,0.0,0.0,0.0,0.0,0.0,0.0,0.0,0.0,0.0,0.0,0.0,0.0,0.0,0.0,0.0,0.0,0.0,0.0,0.0,0.0,0.0,0.0,0.0,0.0,0.0,0.0,0.0,0.0,0.0,0.0,0.0,0.0,0.0,0.0,0.0,0.0,0.0,0.0,0.0,0.0,0.0,0.0,0.0,0.0,0.0,0.0,0.0,0.0,0.0,0.0,0.0,0.0,0.0,0.0,0.0,0.0,0.0,0.0,0.0,0.0,0.0,0.0,0.0,0.0,0.0,0.0,0.0,0.0,0.0,0.0,0.0,0.0,0.0,0.0,0.0,0.0,0.0,0.0,0.0,0.0,0.0,0.0,0.0,0.0,0.0,0.0,0.0,0.0,0.0,0.0,0.0,0.0,0.0,0.0,0.0,0.0,0.0,0.0,0.0,0.0,0.0,0.0,0.0,0.0,0.0,-0.5234,-0.5272,-0.503,0.0,-0.4822,0.0,0.0,0.0,0.0,0.0,0.0,0.0,0.0,0.0,0.0,0.0,0.0,0.0,0.0,0.0,0.0,0.0,0.0,0.0,0.0,0.0,0.0,0.0,0.0,0.0,0.0,0.0,0.0,0.0,0.0,0.0,0.0,0.0,0.0,0.0,0.0,0.0,0.0,0.0,0.0,0.0,0.0,0.0,0.0,0.0,0.0,0.0,0.0,0.0,0.0,0.0,0.0,0.0,0.0,0.0,0.0,0.0,0.0,0.0,0.0,0.0,0.0,0.0,0.0,0.0,0.0,0.0,0.0,0.0,0.0,0.0,0.0,0.0,0.0,0.0,0.0,0.0,0.0,0.0,0.0,0.0,0.0,0.0,0.0,0.0,0.0,0.0,0.0,0.0,0.0,0.0,0.0,0.0,0.0,0.0,0.0,0.0,0.0,0.0,0.0,0.0,0.0,0.0,0.0,0.0,0.0,0.0,0.0,0.0,0.0,-0.5253,-0.5234,-0.4942,-0.4765,0.0,0.0,0.0,0.0,0.0,0.0,0.0,0.0,0.0,0.0,0.0,0.0,0.0,0.0,0.0,0.0,0.0,0.0,0.0,0.0,0.0,0.0,0.0,0.0,0.0,0.0,0.0,0.0,0.0,0.0,0.0,0.0,0.0,0.0,0.0,0.0,0.0,0.0,0.0,0.0,0.0,0.0,0.0,0.0,0.0,0.0,0.0,0.0,0.0,0.0,0.0,0.0,0.0,0.0,0.0,0.0,0.0,0.0,0.0,0.0,0.0,0.0,0.0,0.0,0.0,0.0,0.0,0.0,0.0,0.0,0.0,0.0,0.0,0.0,0.0,0.0,0.0,0.0,0.0,0.0,0.0,0.0,0.0,0.0,0.0,0.0,0.0,0.0,0.0,0.0,0.0,0.0,0.0,0.0,0.0,0.0,0.0,0.0,0.0,0.0,0.0,0.0,0.0,0.0,0.0,0.0,0.0,0.0,0.0,0.0,-0.5542,-0.5452,-0.5447,-0.5105,-0.4937,-0.4978,0.0,0.0,0.0,0.0,0.0,0.0,0.0,0.0,0.0,0.0,0.0,0.0,0.0,0.0,0.0,0.0,0.0,0.0,0.0,0.0,0.0,0.0,0.0,0.0,0.0,0.0,0.0,0.0,0.0,0.0,0.0,0.0,0.0,0.0,0.0,0.0,0.0,0.0,0.0,0.0,0.0,0.0,0.0,0.0,0.0,0.0,0.0,0.0,0.0,0.0,0.0,0.0,0.0,0.0,0.0,0.0,0.0,0.0,0.0,0.0,0.0,0.0,0.0,0.0,0.0,0.0,0.0,0.0,0.0,0.0,0.0,0.0,0.0,0.0,0.0,0.0,0.0,0.0,0.0,0.0,0.0,0.0,0.0,0.0,0.0,0.0,0.0,0.0,0.0,0.0,0.0,0.0,0.0,0.0,0.0,0.0,0.0,0.0,0.0,0.0,0.0,0.0,0.0,0.0,0.0,0.0,0.0,0.0,-0.6338,-0.6043,-0.5937,-0.6018,-0.5681,-0.5521,0.0,0.0,0.0,0.0,0.0,0.0,0.0,0.0,0.0,0.0,0.0,0.0,0.0,0.0,0.0,0.0,0.0,0.0,0.0,0.0,0.0,0.0,0.0,0.0,0.0,0.0,0.0,0.0,0.0,0.0,0.0,0.0,0.0,0.0,0.0,0.0,0.0,0.0,0.0,0.0,0.0,0.0,0.0,0.0,0.0,0.0,0.0,0.0,0.0,0.0,0.0,0.0,0.0,0.0,0.0,0.0,0.0,0.0,0.0,0.0,0.0,0.0,0.0,0.0,0.0,0.0,0.0,0.0,0.0,0.0,0.0,0.0,0.0,0.0,0.0,0.0,0.0,0.0,0.0,0.0,0.0,0.0,0.0,0.0,0.0,0.0,0.0,0.0,0.0,0.0,0.0,0.0,0.0,0.0,0.0,0.0,0.0,0.0,0.0,0.0,0.0,0.0,0.0,0.0,0.0,0.0,0.0,0.0,0.0,-0.6756,-0.6298,-0.6034,-0.6046,-0.5811,-0.5666,0.0,0.0,0.0,0.0,0.0,0.0,0.0,0.0,0.0,0.0,0.0,0.0,0.0,0.0,0.0,0.0,0.0,0.0,0.0,0.0,0.0,0.0,0.0,0.0,0.0,0.0,0.0,0.0,0.0,0.0,0.0,0.0,0.0,0.0,0.0,0.0,0.0,0.0,0.0,0.0,0.0,0.0,0.0,0.0,0.0,0.0,0.0,0.0,0.0,0.0,0.0,0.0,0.0,0.0,0.0,0.0,0.0,0.0,0.0,0.0,0.0,0.0,0.0,0.0,0.0,0.0,0.0,0.0,0.0,0.0,0.0,0.0,0.0,0.0,0.0,0.0,0.0,0.0,0.0,0.0,0.0,0.0,0.0,0.0,0.0,0.0,0.0,0.0,0.0,0.0,0.0,0.0,0.0,0.0,0.0,0.0,0.0,0.0,0.0,0.0,0.0,0.0,0.0,0.0,0.0,0.0,0.0,0.0,0.0,-0.7089,0.0,-0.6419,-0.648,-0.627,-0.6154,0.0,0.0,0.0,0.0,0.0,0.0,0.0,0.0,0.0,0.0,0.0,0.0,0.0,0.0,0.0,0.0,0.0,0.0,0.0,0.0,0.0,0.0,0.0,0.0,0.0,0.0,0.0,0.0,0.0,0.0,0.0,0.0,0.0,0.0,0.0,0.0,0.0,0.0,0.0,0.0,0.0,0.0,0.0,0.0,0.0,0.0,0.0,0.0,0.0,0.0,0.0,0.0,0.0,0.0,0.0,0.0,0.0,0.0,0.0,0.0,0.0,0.0,0.0,0.0,0.0,0.0,0.0,0.0,0.0,0.0,0.0,0.0,0.0,0.0,0.0,0.0,0.0,0.0,0.0,0.0,0.0,0.0,0.0,0.0,0.0,0.0,0.0,0.0,0.0,0.0,0.0,0.0,0.0,0.0,0.0,0.0,0.0,0.0,0.0,0.0,0.0,0.0,0.0,0.0,0.0,0.0,0.0,0.0,-0.74,-0.7326,-0.715,-0.7209,-0.7486,-0.7139,-0.709,0.0,0.0,0.0,0.0,0.0,0.0,0.0,0.0,0.0,0.0,0.0,0.0,0.0,0.0,0.0,0.0,0.0,0.0,0.0,0.0,0.0,0.0,0.0,0.0,0.0,0.0,0.0,0.0,0.0,0.0,0.0,0.0,0.0,0.0,0.0,0.0,0.0,0.0,0.0,0.0,0.0,0.0,0.0,0.0,0.0,0.0,0.0,0.0,0.0,0.0,0.0,0.0,0.0,0.0,0.0,0.0,0.0,0.0,0.0,0.0,0.0,0.0,0.0,0.0,0.0,0.0,0.0,0.0,0.0,0.0,0.0,0.0,0.0,0.0,0.0,0.0,0.0,0.0,0.0,0.0,0.0,0.0,0.0,0.0,0.0,0.0,0.0,0.0,0.0,0.0,0.0,0.0,0.0,0.0,0.0,0.0,0.0,0.0,0.0,0.0,0.0,0.0,0.0,0.0,0.0,0.0,0.0,0.0,0.0,-0.8401,-0.8335,-0.8415,-0.8635,-0.8333,-0.8115,0.0,0.0,0.0,0.0,0.0,0.0,0.0,0.0,0.0,0.0,0.0,0.0,0.0,0.0,0.0,0.0,0.0,0.0,0.0,0.0,0.0,0.0,0.0,0.0,0.0,0.0,0.0,0.0,0.0,0.0,0.0,0.0,0.0,0.0,0.0,0.0,0.0,0.0,0.0,0.0,0.0,0.0,0.0,0.0,0.0,0.0,0.0,0.0,0.0,0.0,0.0,0.0,0.0,0.0,0.0,0.0,0.0,0.0,0.0,0.0,0.0,0.0,0.0,0.0,0.0,0.0,0.0,0.0,0.0,0.0,0.0,0.0,0.0,0.0,0.0,0.0,0.0,0.0,0.0,0.0,0.0,0.0,0.0,0.0,0.0,0.0,0.0,0.0,0.0,0.0,0.0,0.0,0.0,0.0,0.0,0.0,0.0,0.0,0.0,0.0,0.0,0.0,0.0,0.0,0.0,0.0,0.0,0.0,0.0,-0.9673,-0.9424,-0.9419,-0.9596,-0.9372,-0.918,-0.9078,0.0,0.0,0.0,0.0,0.0,0.0,0.0,0.0,0.0,0.0,0.0,0.0,0.0,0.0,0.0,0.0,0.0,0.0,0.0,0.0,0.0,0.0,0.0,0.0,0.0,0.0,0.0,0.0,0.0,0.0,0.0,0.0,0.0,0.0,0.0,0.0,0.0,0.0,0.0,0.0,0.0,0.0,0.0,0.0,0.0,0.0,0.0,0.0,0.0,0.0,0.0,0.0,0.0,0.0,0.0,0.0,0.0,0.0,0.0,0.0,0.0,0.0,0.0,0.0,0.0,0.0,0.0,0.0,0.0,0.0,0.0,0.0,0.0,0.0,0.0,0.0,0.0,0.0,0.0,0.0,0.0,0.0,0.0,0.0,0.0,0.0,0.0,0.0,0.0,0.0,0.0,0.0,0.0,0.0,0.0,0.0,0.0,0.0,0.0,0.0,0.0,0.0,0.0,0.0,0.0,0.0,0.0,0.0,-1.111,-1.0488,-1.023,-1.0371,-1.0225,-1.0235,0.0,0.0,0.0,0.0,0.0,0.0,0.0,0.0,0.0,0.0,0.0,0.0,0.0,0.0,0.0,0.0,0.0,0.0,0.0,0.0,0.0,0.0,0.0,0.0,0.0,0.0,0.0,0.0,0.0,0.0,0.0,0.0,0.0,0.0,0.0,0.0,0.0,0.0,0.0,0.0,0.0,0.0,0.0,0.0,0.0,0.0,0.0,0.0,0.0,0.0,0.0,0.0,0.0,0.0,0.0,0.0,0.0,0.0,0.0,0.0,0.0,0.0,0.0,0.0,0.0,0.0,0.0,0.0,0.0,0.0,0.0,0.0,0.0,0.0,0.0,0.0,0.0,0.0,0.0,0.0,0.0,0.0,0.0,0.0,0.0,0.0,0.0,0.0,0.0,0.0,0.0,0.0,0.0,0.0,0.0,0.0,0.0,0.0,0.0,0.0,0.0,0.0,0.0,0.0,0.0,0.0,0.0,0.0,0.0,-1.2215,-1.2282,-1.1962,-1.1291,-1.0984,-1.072,0.0,0.0,0.0,0.0,0.0,0.0,0.0,0.0,0.0,0.0,0.0,0.0,0.0,0.0,0.0,0.0,0.0,0.0,0.0,0.0,0.0,0.0,0.0,0.0,0.0,0.0,0.0,0.0,0.0,0.0,0.0,0.0,0.0,0.0,0.0,0.0,0.0,0.0,0.0,0.0,0.0,0.0,0.0,0.0,0.0,0.0,0.0,0.0,0.0,0.0,0.0,0.0,0.0,0.0,0.0,0.0,0.0,0.0,0.0,0.0,0.0,0.0,0.0,0.0,0.0,0.0,0.0,0.0,0.0,0.0,0.0,0.0,0.0,0.0,0.0,0.0,0.0,0.0,0.0,0.0,0.0,0.0,0.0,0.0,0.0,0.0,0.0,0.0,0.0,0.0,0.0,0.0,0.0,0.0,0.0,0.0,0.0,0.0,0.0,0.0,0.0,0.0,0.0,0.0,0.0,0.0,0.0,0.0,-1.2323,-1.3311,-1.3167,-1.2892,-1.2596,-1.2252,-1.1892,0.0,0.0,0.0,0.0,0.0,0.0,0.0,0.0,0.0,0.0,0.0,0.0,0.0,0.0,0.0,0.0,0.0,0.0,0.0,0.0,0.0,0.0,0.0,0.0,0.0,0.0,0.0,0.0,0.0,0.0,0.0,0.0,0.0,0.0,0.0,0.0,0.0,0.0,0.0,0.0,0.0,0.0,0.0,0.0,0.0,0.0,0.0,0.0,0.0,0.0,0.0,0.0,0.0,0.0,0.0,0.0,0.0,0.0,0.0,0.0,0.0,0.0,0.0,0.0,0.0,0.0,0.0,0.0,0.0,0.0,0.0,0.0,0.0,0.0,0.0,0.0,0.0,0.0,0.0,0.0,0.0,0.0,0.0,0.0,0.0,0.0,0.0,0.0,0.0,0.0,0.0,0.0,0.0,0.0,0.0,0.0,0.0,0.0,0.0,0.0,0.0,0.0,0.0,0.0,0.0,0.0,0.0,0.0,-1.3044,-1.4102,-1.3489,-1.3385,-1.3902,-1.3614,-1.3198,0.0,0.0,0.0,0.0,0.0,0.0,0.0,0.0,0.0,0.0,0.0,0.0,0.0,0.0,0.0,0.0,0.0,0.0,0.0,0.0,0.0,0.0,0.0,0.0,0.0,0.0,0.0,0.0,0.0,0.0,0.0,0.0,0.0,0.0,0.0,0.0,0.0,0.0,0.0,0.0,0.0,0.0,0.0,0.0,0.0,0.0,0.0,0.0,0.0,0.0,0.0,0.0,0.0,0.0,0.0,0.0,0.0,0.0,0.0,0.0,0.0,0.0,0.0,0.0,0.0,0.0,0.0,0.0,0.0,0.0,0.0,0.0,0.0,0.0,0.0,0.0,0.0,0.0,0.0,0.0,0.0,0.0,0.0,0.0,0.0,0.0,0.0,0.0,0.0,0.0,0.0,0.0,0.0,0.0,0.0,0.0,0.0,0.0,0.0,0.0,0.0,0.0,0.0,0.0,0.0,0.0,0.0,0.0,-1.3409,-1.371,-1.3905,-1.4043,-1.4053,-1.3501,-1.2883,0.0,0.0,0.0,0.0,0.0,0.0,0.0,0.0,0.0,0.0,0.0,0.0,0.0,0.0,0.0,0.0,0.0,0.0,0.0,0.0,0.0,0.0,0.0,0.0,0.0,0.0,0.0,0.0,0.0,0.0,0.0,0.0,0.0,0.0,0.0,0.0,0.0,0.0,0.0,0.0,0.0,0.0,0.0,0.0,0.0,0.0,0.0,0.0,-1.2227,0.0,0.0,0.0,0.0,0.0,0.0,0.0,0.0,0.0,0.0,0.0,0.0,0.0,0.0,0.0,0.0,0.0,0.0,0.0,0.0,0.0,0.0,0.0,0.0,0.0,0.0,0.0,0.0,0.0,0.0,0.0,0.0,0.0,0.0,0.0,0.0,0.0,0.0,0.0,0.0,0.0,0.0,0.0,0.0,0.0,0.0,0.0,0.0,0.0,0.0,0.0,0.0,0.0,0.0,0.0,0.0,0.0,0.0,0.0,-1.365,-1.3883,-1.394,-1.4101,-1.4298,-1.3611,-1.3012,0.0,0.0,0.0,0.0,0.0,0.0,0.0,0.0,0.0,0.0,0.0,0.0,0.0,0.0,0.0,0.0,0.0,0.0,0.0,0.0,0.0,0.0,0.0,0.0,0.0,0.0,0.0,0.0,0.0,0.0,0.0,0.0,0.0,0.0,0.0,0.0,0.0,0.0,0.0,0.0,0.0,0.0,0.0,0.0,0.0,0.0,0.0,0.0,0.0,0.0,0.0,0.0,0.0,0.0,0.0,0.0,0.0,0.0,0.0,0.0,0.0,0.0,0.0,0.0,0.0,0.0,0.0,0.0,0.0,0.0,0.0,0.0,0.0,0.0,0.0,0.0,0.0,0.0,0.0,0.0,0.0,0.0,0.0,0.0,0.0,0.0,0.0,0.0,0.0,0.0,0.0,0.0,0.0,0.0,0.0,0.0,0.0,0.0,0.0,0.0,0.0,0.0,0.0,0.0,0.0,0.0,0.0,-1.3224,-1.3786,-1.3988,-1.3785,-1.3933,-1.4475,-1.3871,-1.338,-1.3055,0.0,0.0,0.0,0.0,0.0,0.0,0.0,0.0,0.0,0.0,0.0,0.0,0.0,0.0,0.0,0.0,0.0,0.0,0.0,0.0,0.0,0.0,0.0,0.0,0.0,0.0,0.0,0.0,0.0,0.0,0.0,0.0,0.0,0.0,0.0,0.0,0.0,0.0,-1.1603,-1.2169,0.0,0.0,0.0,0.0,0.0,0.0,0.0,0.0,-1.4048,0.0,0.0,0.0,0.0,0.0,0.0,0.0,0.0,0.0,0.0,0.0,0.0,0.0,0.0,0.0,0.0,0.0,0.0,0.0,0.0,0.0,0.0,0.0,0.0,0.0,0.0,0.0,0.0,0.0,0.0,0.0,0.0,0.0,0.0,0.0,0.0,0.0,0.0,0.0,0.0,0.0,0.0,0.0,0.0,0.0,0.0,0.0,0.0,0.0,0.0,0.0,0.0,0.0,0.0,0.0,0.0,-1.2562,-1.3501,-1.3756,-1.3234,-1.3685,-1.3974,-1.4111,-1.4085,-1.37,-1.2871,0.0,0.0,0.0,0.0,0.0,0.0,0.0,0.0,0.0,0.0,0.0,0.0,0.0,0.0,0.0,0.0,0.0,0.0,0.0,0.0,0.0,0.0,0.0,0.0,0.0,0.0,0.0,0.0,0.0,0.0,0.0,0.0,0.0,0.0,0.0,0.0,0.0,0.0,0.0,-1.2624,-1.2987,0.0,0.0,0.0,0.0,0.0,0.0,0.0,0.0,-1.4106,0.0,0.0,0.0,0.0,0.0,0.0,0.0,0.0,0.0,0.0,0.0,0.0,0.0,0.0,0.0,0.0,0.0,0.0,0.0,0.0,0.0,0.0,0.0,0.0,0.0,0.0,0.0,0.0,0.0,0.0,0.0,0.0,0.0,0.0,0.0,0.0,0.0,0.0,0.0,0.0,0.0,0.0,0.0,0.0,0.0,0.0,0.0,0.0,0.0,0.0,0.0,0.0,0.0,0.0,0.0,-1.2329,-1.3195,-1.3292,-1.2643,-1.3338,-1.3761,-1.3743,-1.3768,-1.3459,0.0,0.0,0.0,0.0,0.0,0.0,0.0,0.0,0.0,0.0,0.0,0.0,0.0,0.0,0.0,0.0,0.0,0.0,0.0,0.0,0.0,0.0,0.0,0.0,0.0,0.0,0.0,0.0,0.0,0.0,0.0,0.0,0.0,0.0,0.0,0.0,0.0,0.0,0.0,0.0,-1.3217,-1.3336,-1.3148,0.0,0.0,0.0,0.0,0.0,0.0,-1.5831,-1.5374,0.0,0.0,0.0,0.0,0.0,0.0,0.0,0.0,0.0,0.0,0.0,0.0,0.0,0.0,0.0,0.0,0.0,0.0,0.0,0.0,0.0,0.0,0.0,0.0,0.0,0.0,0.0,0.0,0.0,0.0,0.0,0.0,0.0,0.0,0.0,0.0,0.0,0.0,0.0,0.0,0.0,0.0,0.0,0.0,0.0,0.0,0.0,0.0,0.0,0.0,0.0,0.0,0.0,0.0,0.0,-1.2355,-1.294,-1.2955,-1.2411,-1.3093,-1.345,-1.3494,-1.3521,-1.3225,0.0,0.0,0.0,0.0,0.0,0.0,0.0,0.0,0.0,0.0,0.0,0.0,0.0,0.0,0.0,0.0,0.0,0.0,0.0,0.0,0.0,0.0,0.0,0.0,0.0,0.0,0.0,0.0,0.0,0.0,0.0,0.0,0.0,0.0,0.0,0.0,0.0,0.0,0.0,0.0,0.0,-1.3816,-1.3713,-1.4298,0.0,0.0,0.0,0.0,-1.7762,-1.7289,0.0,0.0,0.0,0.0,0.0,0.0,0.0,0.0,0.0,0.0,0.0,0.0,0.0,0.0,0.0,0.0,0.0,0.0,0.0,0.0,0.0,0.0,0.0,0.0,0.0,0.0,0.0,0.0,0.0,0.0,0.0,0.0,0.0,0.0,0.0,0.0,0.0,0.0,0.0,0.0,0.0,0.0,0.0,0.0,0.0,0.0,0.0,0.0,0.0,0.0,0.0,0.0,0.0,0.0,0.0,0.0,-1.3466,-1.3404,-1.3217,-1.2932,-1.3191,-1.3385,-1.3502,-1.3784,-1.3399,0.0,0.0,0.0,0.0,0.0,0.0,0.0,0.0,0.0,0.0,0.0,0.0,0.0,0.0,0.0,0.0,0.0,0.0,0.0,0.0,0.0,0.0,0.0,0.0,0.0,0.0,0.0,0.0,0.0,0.0,0.0,0.0,0.0,0.0,0.0,0.0,0.0,0.0,0.0,0.0,0.0,-1.4718,-1.3751,-1.5364,-1.6588,0.0,0.0,-1.7548,-1.8176,-1.8057,0.0,0.0,0.0,0.0,0.0,0.0,0.0,0.0,0.0,0.0,0.0,0.0,0.0,0.0,0.0,0.0,0.0,0.0,0.0,0.0,0.0,0.0,0.0,0.0,0.0,0.0,0.0,0.0,0.0,0.0,0.0,0.0,0.0,0.0,0.0,0.0,0.0,0.0,0.0,0.0,0.0,0.0,0.0,0.0,0.0,0.0,0.0,0.0,0.0,0.0,0.0,0.0,0.0,0.0,0.0,-1.2855,-1.336,-1.2894,-1.2613,-1.2617,-1.2882,-1.308,-1.3224,-1.369,-1.3363,0.0,0.0,0.0,0.0,0.0,0.0,0.0,0.0,0.0,0.0,0.0,0.0,0.0,0.0,0.0,0.0,0.0,0.0,0.0,0.0,0.0,0.0,0.0,0.0,0.0,0.0,0.0,0.0,0.0,0.0,0.0,0.0,0.0,0.0,0.0,0.0,0.0,0.0,0.0,0.0,0.0,0.0,-1.5316,-1.5983,0.0,0.0,0.0,-1.822,-1.9621,0.0,0.0,0.0,0.0,0.0,0.0,0.0,0.0,0.0,0.0,0.0,0.0,0.0,0.0,0.0,0.0,0.0,0.0,0.0,0.0,0.0,0.0,0.0,0.0,0.0,0.0,0.0,0.0,0.0,0.0,0.0,0.0,0.0,0.0,0.0,0.0,0.0,0.0,0.0,0.0,0.0,0.0,0.0,0.0,0.0,0.0,0.0,0.0,0.0,0.0,0.0,0.0,0.0,0.0,0.0,0.0,0.0,-1.3494,-1.2601,-1.2244,-1.2408,-1.2629,-1.2836,-1.3011,-1.3357,0.0,0.0,0.0,0.0,0.0,0.0,0.0,0.0,0.0,0.0,0.0,0.0,0.0,0.0,0.0,0.0,0.0,0.0,0.0,0.0,0.0,0.0,0.0,0.0,0.0,0.0,0.0,-0.7743,0.0,0.0,0.0,0.0,0.0,0.0,0.0,0.0,0.0,0.0,0.0,0.0,0.0,0.0,-1.6101,-1.6687,-1.682,-1.7268,0.0,0.0,-1.9262,-2.0623,-1.9858,-1.9105,0.0,0.0,0.0,0.0,0.0,0.0,0.0,0.0,0.0,0.0,0.0,0.0,0.0,0.0,0.0,0.0,0.0,0.0,0.0,0.0,0.0,0.0,0.0,0.0,0.0,0.0,0.0,0.0,0.0,0.0,0.0,0.0,0.0,0.0,0.0,0.0,0.0,0.0,0.0,0.0,0.0,0.0,0.0,0.0,0.0,0.0,0.0,0.0,0.0,0.0,0.0,0.0,0.0,0.0,0.0,-1.4329,-1.3185,-1.262,-1.2773,-1.2674,-1.2752,-1.2981,-1.2802,-1.2627,0.0,0.0,0.0,0.0,0.0,0.0,0.0,0.0,0.0,0.0,0.0,0.0,0.0,0.0,0.0,0.0,0.0,0.0,0.0,0.0,0.0,0.0,0.0,0.0,0.0,0.0,0.0,0.0,0.0,0.0,0.0,0.0,0.0,0.0,0.0,0.0,0.0,0.0,0.0,0.0,0.0,-1.6572,-1.718,-1.8193,-1.881,0.0,0.0,-2.1198,-2.0557,-2.0872,-2.0969,-2.0304,0.0,0.0,0.0,0.0,0.0,0.0,0.0,0.0,0.0,0.0,0.0,0.0,0.0,0.0,0.0,0.0,0.0,0.0,0.0,0.0,0.0,0.0,0.0,0.0,0.0,0.0,0.0,0.0,0.0,0.0,0.0,0.0,0.0,0.0,0.0,0.0,0.0,0.0,0.0,0.0,0.0,0.0,0.0,0.0,0.0,0.0,0.0,0.0,0.0,0.0,0.0,0.0,0.0,-1.365,-1.4149,-1.3339,-1.2813,-1.2707,-1.2837,-1.2845,-1.2752,-1.2818,-1.2727,0.0,0.0,0.0,0.0,0.0,0.0,0.0,0.0,0.0,0.0,0.0,0.0,0.0,0.0,0.0,0.0,0.0,0.0,0.0,0.0,0.0,0.0,0.0,0.0,0.0,0.0,0.0,0.0,-0.8344,-0.8701,-0.9825,0.0,0.0,0.0,0.0,0.0,0.0,0.0,0.0,0.0,0.0,-1.7237,-1.7834,-1.8315,0.0,0.0,-2.0559,-2.1314,-2.1391,-2.1495,-2.1498,-2.1262,-2.1237,0.0,0.0,0.0,0.0,0.0,0.0,0.0,0.0,0.0,0.0,0.0,0.0,0.0,0.0,0.0,0.0,0.0,0.0,0.0,0.0,0.0,0.0,0.0,0.0,0.0,0.0,0.0,0.0,0.0,0.0,0.0,0.0,0.0,0.0,0.0,0.0,0.0,0.0,0.0,0.0,0.0,0.0,0.0,0.0,0.0,0.0,0.0,0.0,0.0,0.0,0.0,0.0,-1.3732,-1.4026,-1.3245,-1.272,-1.2467,-1.2672,-1.272,-1.2529,-1.2666,-1.2665,0.0,0.0,0.0,0.0,0.0,0.0,0.0,0.0,0.0,0.0,0.0,0.0,0.0,0.0,0.0,0.0,0.0,0.0,0.0,0.0,0.0,0.0,0.0,0.0,0.0,0.0,0.0,0.0,-0.8843,-0.9271,-1.0426,0.0,0.0,0.0,0.0,0.0,0.0,0.0,0.0,0.0,0.0,-1.7701,-1.8744,-1.9084,-1.9647,-2.079,-2.1476,-2.1944,-2.2236,-2.2207,-2.2124,-2.2054,0.0,0.0,0.0,0.0,0.0,0.0,0.0,0.0,0.0,0.0,0.0,0.0,0.0,0.0,0.0,0.0,0.0,0.0,0.0,0.0,0.0,0.0,0.0,0.0,0.0,0.0,0.0,0.0,0.0,0.0,-0.8242,0.0,0.0,0.0,0.0,0.0,0.0,0.0,0.0,0.0,0.0,0.0,0.0,0.0,0.0,0.0,0.0,0.0,0.0,0.0,0.0,0.0,0.0,-1.3629,-1.4057,-1.2941,-1.2259,-1.2127,-1.2135,-1.2205,-1.2305,-1.2205,-1.2339,-1.2804,0.0,0.0,0.0,0.0,0.0,0.0,0.0,0.0,0.0,0.0,0.0,0.0,0.0,0.0,0.0,0.0,0.0,0.0,0.0,0.0,0.0,0.0,0.0,0.0,0.0,0.0,-1.0703,-1.0598,-1.0739,0.0,0.0,0.0,0.0,0.0,0.0,0.0,0.0,0.0,0.0,-1.7772,-1.7894,-1.9964,-2.0876,-2.148,-2.2193,-2.3142,-2.3593,-2.295,-2.3047,-2.3031,0.0,0.0,0.0,0.0,0.0,0.0,0.0,0.0,0.0,0.0,0.0,0.0,0.0,0.0,0.0,0.0,0.0,0.0,0.0,0.0,0.0,0.0,0.0,0.0,0.0,0.0,0.0,-0.729,-0.821,0.0,0.0,0.0,0.0,0.0,0.0,0.0,0.0,0.0,0.0,0.0,-1.1064,-1.1235,0.0,0.0,0.0,0.0,0.0,0.0,0.0,0.0,0.0,0.0,0.0,0.0,-1.3908,-1.3895,-1.2992,-1.2389,-1.2135,-1.2318,-1.2389,-1.2321,-1.2468,-1.2726,-1.3113,0.0,0.0,0.0,0.0,0.0,0.0,0.0,0.0,0.0,0.0,0.0,0.0,0.0,0.0,0.0,0.0,0.0,0.0,0.0,0.0,0.0,0.0,0.0,0.0,0.0,-1.0008,0.0,0.0,0.0,0.0,0.0,0.0,0.0,0.0,0.0,0.0,0.0,-1.7782,-1.8301,-1.8782,-1.9533,-2.0783,-2.1253,-2.1665,0.0,0.0,0.0,0.0,0.0,0.0,0.0,0.0,0.0,0.0,0.0,0.0,0.0,0.0,-2.2657,-2.2102,-2.1875,-2.1777,-2.1793,0.0,0.0,0.0,0.0,0.0,0.0,0.0,0.0,0.0,0.0,0.0,0.0,0.0,0.0,-0.7984,0.0,-0.8975,0.0,0.0,0.0,0.0,0.0,0.0,0.0,0.0,-1.1176,-1.1227,-1.1149,-1.1378,-1.1545,0.0,-1.1778,-1.2448,0.0,0.0,0.0,0.0,0.0,0.0,0.0,0.0,-1.4094,-1.3922,-1.2875,-1.2184,-1.1956,-1.2247,-1.2403,-1.2296,-1.2543,-1.2751,-1.2889,-1.2526,-1.2359,0.0,0.0,0.0,0.0,0.0,0.0,0.0,0.0,0.0,0.0,0.0,0.0,0.0,0.0,0.0,0.0,0.0,0.0,0.0,0.0,0.0,0.0,0.0,-1.0333,0.0,0.0,0.0,0.0,0.0,0.0,0.0,0.0,0.0,-1.689,-1.7566,-1.8177,-1.867,-1.9468,-2.0401,-2.1456,0.0,0.0,0.0,0.0,0.0,0.0,0.0,-2.467,-2.4628,-2.4399,-2.4267,-2.4319,-2.4474,-2.4654,-2.4964,0.0,0.0,-2.3885,-2.3575,-2.3484,-2.3575,-2.3761,-2.3875,-2.3836,-2.3941,-2.3993,0.0,0.0,0.0,0.0,0.0,0.0,0.0,0.0,-0.8313,-0.8826,0.0,-0.9229,0.0,0.0,0.0,0.0,0.0,-1.1293,0.0,0.0,-1.0699,-1.1066,-1.1934,-1.2093,-1.225,-1.2461,-1.2682,-1.2924,-1.3169,-1.2325,0.0,0.0,0.0,0.0,0.0,0.0,-1.4213,-1.4006,-1.2565,-1.1747,-1.1622,-1.191,-1.2163,-1.2313,-1.2417,-1.2354,-1.215,-1.2403,-1.2033,-1.0953,-1.234,0.0,0.0,0.0,0.0,0.0,0.0,0.0,0.0,0.0,0.0,0.0,0.0,0.0,0.0,0.0,0.0,0.0,0.0,0.0,0.0,-1.0777,0.0,0.0,0.0,0.0,0.0,0.0,0.0,0.0,0.0,0.0,-1.84,-1.8206,-1.8413,-1.9633,0.0,0.0,0.0,0.0,-2.2896,-2.4945,-2.524,-2.5448,-2.6084,-2.5925,-2.5565,-2.521,0.0,0.0,-2.5245,-2.5576,-2.5879,-2.6161,-2.6123,-2.5891,-2.5147,-2.4759,-2.4631,-2.4865,-2.4953,-2.5021,-2.5041,-2.5116,-2.5206,-0.9494,0.0,0.0,0.0,0.0,-0.8145,-0.8248,-0.8338,-0.8293,-0.8731,-0.9453,-0.9398,0.0,0.0,0.0,0.0,0.0,0.0,-1.1916,-1.1505,-1.1595,-1.153,-1.1363,-1.1545,-1.1661,-1.1721,-1.1798,-1.1887,-1.1918,-1.1664,-1.2506,-1.4415,0.0,0.0,0.0,0.0,-1.3718,-1.3219,-1.2072,-1.1428,-1.1404,-1.1622,-1.1935,-1.2295,-1.2261,-1.2271,-1.2441,-1.2194,-1.1901,-1.1685,-1.173,0.0,0.0,0.0,0.0,0.0,0.0,0.0,0.0,0.0,0.0,0.0,0.0,0.0,0.0,0.0,0.0,0.0,0.0,0.0,-1.1407,-1.1371,-1.1896,0.0,0.0,0.0,0.0,0.0,0.0,0.0,0.0,0.0,-1.9289,-1.9188,-1.9557,0.0,0.0,-2.2483,-2.4126,-2.3783,-2.3778,-2.492,-2.4679,0.0,-2.4682,-2.4765,-2.4825,-2.483,-2.5034,-2.5236,-2.5412,-2.5839,-2.6261,-2.6581,-2.6672,-2.6738,-2.6795,-2.6123,-2.5686,-2.5802,-2.588,-2.5908,-2.593,-2.6112,-2.6271,-0.9886,-0.9358,-0.9223,-0.895,-0.8549,-0.8609,-0.8602,-0.8545,-0.8468,-0.8772,-0.9318,-0.9158,-0.9559,-1.0408,-1.1156,0.0,0.0,0.0,-1.1937,-1.1196,-1.1512,-1.1451,-1.1121,-1.1359,-1.1523,-1.1516,-1.1412,-1.1412,-1.1516,-1.1696,-1.2457,-1.3764,0.0,0.0,-1.4777,-1.4024,-1.3467,-1.3074,-1.2079,-1.1578,-1.1682,-1.1844,-1.2166,-1.2581,-1.2272,-1.2189,-1.2457,-1.2066,-1.1763,-1.1722,-1.1581,-1.1494,0.0,0.0,0.0,0.0,0.0,0.0,0.0,0.0,0.0,0.0,0.0,-1.1685,-1.1519,0.0,0.0,0.0,-1.1072,-1.153,-1.2177,-1.2427,0.0,0.0,0.0,0.0,0.0,0.0,0.0,-1.8282,-1.807,-1.831,-1.9669,-1.9737,-2.0147,-2.1444,-2.1986,-2.2807,-2.4262,0.0,-2.3657,-2.4675,-2.4533,-2.4441,-2.4788,-2.4859,-2.4869,-2.4885,-2.5091,-2.5342,-2.5623,-2.595,-2.6245,-2.6541,-2.6968,-2.7395,-2.7654,-2.7255,-2.691,-2.6922,-2.6987,-2.7041,-2.7041,-2.7234,-2.7364,-1.0492,-0.9938,-0.9893,-0.9691,-0.9476,-0.9488,-0.9298,-0.894,-0.8821,-0.9032,-0.9334,-0.8818,-0.9269,-1.053,-1.1722,0.0,-1.0976,-1.1769,-1.1471,-1.0329,-1.0783,-1.1001,-1.1056,-1.1469,-1.1669,-1.17,-1.1446,-1.1458,-1.1668,-1.2032,-1.2364,-1.2676,-1.2945,-1.3516,-1.4233,-1.3754,-1.3445,-1.3353,-1.2456,-1.2064,-1.2139,-1.2349,-1.262,-1.2964,-1.2343,-1.2068,-1.2223,-1.195,-1.1622,-1.1286,-1.1714,-1.1465,-1.049,0.0,0.0,0.0,0.0,0.0,0.0,0.0,0.0,0.0,0.0,0.0,0.0,0.0,0.0,0.0,-1.1705,0.0,-1.2985,-1.3703,0.0,0.0,0.0,-1.6341,-1.6064,-1.6831,-1.7465,-1.7709,0.0,0.0,-1.9708,-1.9932,-2.0317,-2.1069,-2.1459,-2.2085,-2.3327,-2.295,-2.2977,-2.4419,-2.4622,-2.4922,-2.5437,-2.5494,-2.5356,-2.5162,-2.5202,-2.537,-2.5715,-2.5865,-2.6002,-2.6233,-2.6987,-2.7605,-2.7727,-2.7862,-2.8107,-2.7836,-2.7968,-2.8091,-2.8046,-2.8103,-2.8161,-1.0447,-1.0399,-1.0248,-0.9854,-0.9274,-0.9428,-0.9467,-0.9344,-0.9324,-0.936,-0.9468,-0.9316,-0.9584,-1.0113,-1.0297,-1.0439,-1.0526,-1.058,-1.0581,-1.0446,-1.0732,-1.0941,-1.1095,-1.1341,-1.1558,-1.17,-1.1636,-1.1569,-1.1477,-1.142,-1.1726,-1.2452,-1.2756,-1.3417,-1.4405,-1.4313,-1.3835,-1.3042,-1.2874,-1.247,-1.1792,-1.1928,-1.2037,-1.1962,-1.1881,-1.1808,-1.1703,-1.1665,-1.1406,-1.0965,-1.1366,-1.1392,-1.0965,-1.2067,0.0,0.0,0.0,0.0,0.0,0.0,0.0,0.0,0.0,-1.3868,-1.3779,0.0,-1.3663,0.0,-1.2669,-1.3007,-1.4415,-1.4295,0.0,0.0,-1.6392,-1.6779,-1.7142,-1.7133,-1.7532,-1.8622,-1.8595,-1.8796,-1.9674,-2.0143,-2.0504,-2.085,-2.1562,-2.2605,-2.4018,-2.3608,-2.3436,-2.4264,-2.407,-2.3916,-2.4381,-2.4736,-2.4963,-2.492,-2.5061,-2.523,-2.5328,-2.5674,-2.5921,-2.6016,-2.6332,-2.6648,-2.6837,-2.69,-2.7045,-2.72,-2.7488,-2.775,-2.775,-2.779,-2.7825,-1.0559,-1.0465,-1.0342,-0.9924,-0.9416,-0.9727,-0.9917,-0.9963,-0.9686,-0.9491,-0.9414,-0.9371,-0.9558,-0.9906,-0.9865,-1.0073,-1.0412,-1.0313,-1.035,-1.0513,-1.07,-1.085,-1.0962,-1.1074,-1.1217,-1.1453,-1.126,-1.1149,-1.1111,-1.0919,-1.1058,-1.1554,-1.1788,-1.2433,-1.3474,-1.436,-1.4552,-1.4021,-1.3581,-1.2858,-1.1839,-1.1928,-1.2199,-1.255,-1.2453,-1.2563,-1.2868,-1.285,-1.2712,-1.2419,-1.2639,-1.2647,-1.2296,-1.3055,-1.3364,0.0,0.0,0.0,0.0,0.0,0.0,0.0,0.0,0.0,0.0,0.0,-1.46,-1.4427,-1.3767,-1.3954,-1.5479,-1.5302,-1.5463,-1.6384,-1.669,-1.683,-1.6766,-1.6942,-1.7344,-1.7957,-1.8055,-1.8286,-1.8806,-1.945,-2.002,-2.0359,-2.1225,-2.2325,-2.3413,-2.3376,-2.3302,-2.3702,-2.3573,-2.3539,-2.3907,-2.4258,-2.4563,-2.4763,-2.4863,-2.4977,-2.5174,-2.537,-2.5536,-2.5702,-2.6187,-2.6577,-2.6658,-2.6849,-2.701,-2.7157,-2.715,-2.7207,-2.7372,-2.7423,-2.7473,-1.0711,-1.0358,-1.0311,-1.0074,-0.9771,-1.0105,-1.0349,-1.0434,-0.9879,-0.9506,-0.9322,-0.9251,-0.9446,-0.9756,-0.998,-1.0197,-1.0438,-1.0443,-1.0406,-1.0438,-1.0625,-1.0738,-1.07,-1.0732,-1.085,-1.0999,-1.0669,-1.0588,-1.0706,-1.0556,-1.0556,-1.07,-1.0887,-1.1496,-1.2538,-1.4247,-1.519,-1.5332,-1.4168,-1.3128,-1.2181,-1.2368,-1.296,-1.3901,-1.3637,-1.3812,-1.4533,-1.4435,-1.4371,-1.4328,-1.4344,-1.4147,-1.3641,-1.4039,-1.3902,0.0,-1.3531,0.0,0.0,0.0,0.0,0.0,0.0,0.0,0.0,-1.4857,-1.5485,-1.5549,-1.4794,-1.4833,-1.6139,-1.6246,-1.6206,-1.621,-1.6591,-1.6559,-1.5868,-1.6553,-1.6982,-1.6677,-1.7197,-1.7612,-1.7796,-1.8515,-1.9247,-1.9883,-2.0771,-2.1644,-2.236,-2.275,-2.2932,-2.2878,-2.318,-2.3552,-2.3878,-2.4054,-2.4245,-2.4591,-2.4677,-2.4734,-2.5061,-2.502,-2.5061,-2.541,-2.605,-2.661,-2.6736,-2.6987,-2.7236,-2.7192,-2.6802,-2.663,-2.7011,-2.7115,-2.7192,-1.0707,-1.058,-1.0403,-1.0344,-1.0471,-1.0167,-0.9942,-0.9792,-0.987,-0.9696,-0.9293,-0.9435,-0.9547,-0.967,-0.9857,-0.9991,-0.9992,-0.9992,-0.9997,-1.0035,-1.0218,-1.0288,-1.0325,-1.0475,-1.0594,-1.0625,-1.0519,-1.0406,-1.0331,-1.025,-1.0732,-1.1638,-1.1822,-1.264,-1.4022,0.0,0.0,0.0,-1.361,-1.2892,-1.296,-1.403,-1.4695,-1.4855,-1.4746,0.0,-1.4584,-1.4308,-1.4096,-1.4028,-1.4146,0.0,0.0,0.0,0.0,0.0,0.0,0.0,0.0,0.0,0.0,0.0,-1.4948,-1.5164,-1.498,-1.5327,-1.5483,-1.5361,-1.5368,-1.5566,-1.5927,-1.5877,-1.5887,-1.6102,-1.6202,-1.6149,-1.5889,-1.6221,-1.6443,-1.6381,-1.6736,-1.7201,-1.7759,-1.8375,-1.904,-1.9699,-2.0591,-2.1186,-2.1396,-2.2273,-2.2848,-2.2909,-2.315,-2.3403,-2.3535,-2.3848,-2.4083,-2.4229,-2.4447,-2.4607,-2.4706,-2.482,-2.4863,-2.5075,-2.5339,-2.5646,-2.5869,-2.5993,-2.6201,-2.6322,-2.6277,-2.6326,-2.6779,-2.675,-2.6747,-1.0472,0.0,-0.9967,-0.9804,0.0,-0.9748,-0.941,-0.9045,-0.9456,-0.9423,-0.9013,-0.9122,-0.916,-0.916,-0.9576,-0.9771,-0.9771,-0.9841,-0.9884,-0.9922,-1.0105,-1.0143,-1.0067,-1.0143,-1.0223,-1.018,-0.9997,-0.9884,-0.9884,-0.9922,-1.0212,-1.0757,-1.0981,-1.1446,-1.2188,-1.2281,-1.2764,-1.3708,-1.2877,-1.2299,-1.2013,-1.2741,-1.3498,-1.4089,0.0,0.0,0.0,0.0,0.0,0.0,0.0,0.0,0.0,0.0,0.0,-1.3237,-1.3543,-1.3691,-1.3441,-1.3654,-1.3961,-1.4343,-1.4901,-1.5341,-1.5503,-1.5503,-1.5469,-1.5356,-1.5439,-1.5527,-1.5584,-1.5439,-1.5439,-1.5633,-1.5662,-1.5662,-1.5788,-1.5836,-1.5931,-1.6171,-1.6285,-1.6595,-1.7278,-1.8012,-1.8617,-1.9206,-2.0195,-2.086,-2.0955,-2.187,-2.2665,-2.28,-2.3,-2.318,-2.3271,-2.3522,-2.3848,-2.4067,-2.4187,-2.4332,-2.4563,-2.4578,-2.4622,-2.4778,-2.4948,-2.5174,-2.5314,-2.5522,-2.5729,-2.5866,-2.5948,-2.6098,-2.6394,-2.6539,-2.6852,-1.012,-0.9889,-0.9435,-0.915,-0.8959,-0.9167,-0.8952,-0.8439,0.0,0.0,0.0,-0.8665,-0.8703,-0.8742,-0.9279,-0.9549,-0.9511,-0.9695,-0.9803,-0.9809,-0.996,-0.996,-0.9809,-0.9809,-0.9771,-0.9771,-0.9473,-0.9397,-0.9549,-0.9544,-0.9549,-0.9544,-0.9776,-0.9884,-0.9954,-0.9922,-1.0614,-1.2007,-1.2117,-1.1822,-1.118,-1.1465,-1.2221,-1.3368,-1.3332,-1.3554,-1.4106,-1.4165,-1.4107,-1.3955,-1.4339,-1.4471,-1.4239,-1.423,-1.3974,-1.343,-1.3339,-1.3258,-1.308,-1.3282,-1.3631,-1.4049,-1.4627,-1.5188,-1.5702,-1.5551,-1.538,-1.5308,-1.5349,-1.5362,-1.5297,-1.5151,-1.5114,-1.5262,-1.5165,-1.5235,-1.5498,-1.5459,-1.5536,-1.5865,-1.5964,-1.6185,-1.6809,-1.7625,-1.8312,-1.8743,-1.9695,-2.0518,-2.0743,-2.1588,-2.2316,-2.2482,-2.2653,-2.2836,-2.303,-2.321,-2.348,-2.3891,-2.3968,-2.4125,-2.4371,-2.4427,-2.4424,-2.452,-2.475,-2.4892,-2.5005,-2.5314,-2.5591,-2.5674,-2.5784,-2.5949,-2.6252,-2.6619,-2.7111,-0.9907,-0.9632,-0.9213,-0.8937,-0.875,-0.8787,-0.8636,-0.8424,-0.8477,-0.848,-0.8441,-0.8627,-0.8703,-0.8737,-0.9165,-0.9251,-0.9103,-0.9289,-0.9397,-0.9359,-0.9397,-0.9397,-0.9397,-0.9397,-0.9397,-0.9397,-0.9322,-0.9322,-0.9359,-0.9316,-0.9322,-0.9359,-0.9544,-0.9809,-1.0105,-0.9992,-1.0105,-1.0545,-1.1459,-1.2154,-1.2528,-1.3375,-1.406,-1.4518,-1.4371,-1.4428,-1.4587,-1.4563,-1.4437,-1.4107,-1.4294,-1.393,-1.2887,-1.281,-1.2584,-1.2101,-1.1978,-1.2296,-1.3184,-1.3196,-1.3388,-1.3975,-1.427,-1.4656,-1.5159,-1.5339,-1.5263,-1.4948,-1.5409,-1.5659,-1.5374,-1.5241,-1.5287,-1.5463,-1.508,-1.4872,-1.5107,-1.5156,-1.5235,-1.5362,-1.5881,-1.6396,-1.6907,-1.7525,-1.8143,-1.8715,-1.9344,-1.9998,-2.0667,-2.14,-2.1796,-2.2013,-2.2285,-2.2512,-2.2696,-2.2957,-2.321,-2.3463,-2.3935,-2.4227,-2.4096,-2.4398,-2.4549,-2.4369,-2.4405,-2.4551,-2.4892,-2.5033,-2.5286,-2.5564,-2.5702,-2.5965,-2.6635,-2.7039,-2.7281,-1.0081,-0.9907,-0.9258,-0.8952,-0.886,-0.8633,-0.8622,-0.8701,-0.851,-0.8339,-0.8225,-0.8327,-0.8441,-0.8589,-0.898,-0.9099,-0.9027,-0.9089,-0.9198,-0.9284,-0.9198,-0.9127,-0.9137,-0.9137,-0.9056,-0.8975,-0.8975,-0.8975,-0.8975,-0.9094,-0.9137,-0.9175,-0.9473,-0.9657,-0.9695,-0.9733,-0.9846,-1.003,-1.0539,-1.1019,-1.1391,-1.1927,-1.2361,-1.2618,-1.2661,-1.2704,-1.2712,-1.281,-1.2772,-1.2633,-1.2833,-1.2674,-1.2228,-1.218,-1.2091,-1.1878,-1.1996,-1.2336,-1.2942,-1.339,-1.3779,-1.4032,-1.4335,-1.4611,-1.4975,-1.4909,-1.4823,-1.4751,-1.4955,-1.5045,-1.4987,-1.5033,-1.516,-1.5319,-1.4941,-1.4775,-1.4951,-1.4825,-1.4832,-1.5165,-1.552,-1.6025,-1.6774,-1.7303,-1.7869,-1.8449,-1.8998,-1.9561,-2.0118,-2.0571,-2.1008,-2.142,-2.1776,-2.2025,-2.2161,-2.2469,-2.2744,-2.2927,-2.3646,-2.4088,-2.4067,-2.442,-2.4589,-2.4549,-2.4396,-2.4363,-2.4622,-2.485,-2.5104,-2.5342,-2.5605,-2.5938,-2.6369,-2.659,-2.6904,-1.0199,-1.0075,-0.9422,-0.9127,-0.9034,-0.8641,-0.8641,-0.8882,-0.8563,-0.8313,-0.8134,-0.8112,-0.8228,-0.838,-0.8649,-0.875,-0.8707,-0.8736,-0.8823,-0.8941,-0.8856,-0.8784,-0.8803,-0.8832,-0.8755,-0.8613,-0.8678,-0.8721,-0.868,-0.8875,-0.899,-0.8946,-0.9241,-0.9354,-0.9251,-0.9435,-0.962,-0.9771,-0.9884,-1.003,-1.0255,-1.0368,-1.0556,-1.0738,-1.0925,-1.1015,-1.1039,-1.128,-1.1404,-1.1446,-1.1627,-1.1765,-1.1771,-1.1799,-1.1826,-1.195,-1.2181,-1.2419,-1.2711,-1.345,-1.3921,-1.3886,-1.4091,-1.4353,-1.4589,-1.4331,-1.4297,-1.4625,-1.4706,-1.4739,-1.4795,-1.4901,-1.5033,-1.5147,-1.4871,-1.48,-1.5015,-1.4802,-1.4772,-1.5242,-1.5501,-1.5968,-1.66,-1.7148,-1.7703,-1.8257,-1.8741,-1.9142,-1.944,-1.9758,-2.0204,-2.0764,-2.1242,-2.1526,-2.1577,-2.1932,-2.2242,-2.2439,-2.3201,-2.3767,-2.4003,-2.4307,-2.4579,-2.458,-2.4406,-2.4271,-2.4321,-2.4635,-2.492,-2.509,-2.5314,-2.5619,-2.5994,-2.5951,-2.6351,-0.9852,-0.9666,-0.9593,-0.9459,-0.9226,-0.8857,-0.874,-0.8699,-0.8485,-0.8349,-0.829,-0.8161,-0.8186,-0.8264,-0.8192,-0.8049,-0.7886,-0.8045,-0.8069,-0.8004,-0.8097,-0.8178,-0.8257,-0.8395,-0.8342,-0.8254,-0.8679,-0.878,-0.8496,-0.8794,-0.8897,-0.8727,-0.878,-0.8913,-0.9022,-0.9218,-0.9365,-0.9359,-0.97,-1.0067,-1.0438,-1.0293,-1.0325,-1.0519,-1.07,-1.0919,-1.1063,-1.1446,-1.1651,-1.1608,-1.1759,-1.1745,-1.1476,-1.1471,-1.1654,-1.2115,-1.193,-1.2026,-1.2628,-1.3042,-1.3281,-1.3259,-1.3157,-1.3339,-1.3848,-1.3598,-1.3785,-1.4484,-1.5088,-1.5134,-1.4917,-1.5053,-1.5197,-1.5391,-1.5094,-1.4915,-1.5109,-1.5382,-1.5611,-1.5611,-1.6136,-1.6699,-1.6802,-1.7283,-1.7799,-1.8216,-1.8539,-1.8875,-1.9108,-1.9308,-1.9528,-2.0031,-2.0539,-2.0987,-2.1146,-2.1494,-2.1776,-2.2018,-2.272,-2.334,-2.3685,-2.3948,-2.4191,-2.4497,-2.4266,-2.4037,-2.4218,-2.4492,-2.4677,-2.4821,-2.5032,-2.5282,-2.5877,-2.5699,-2.5855,-1.0091,-1.0007,-0.9695,-0.9547,-0.9436,-0.9312,-0.9148,-0.902,-0.8632,-0.8461,-0.8398,-0.8016,-0.8052,-0.8472,-0.8386,-0.8235,-0.8077,-0.8154,-0.8156,-0.8121,-0.8205,-0.8285,-0.8413,-0.8474,-0.847,-0.8413,-0.8648,-0.8679,-0.856,-0.868,-0.8742,-0.8739,-0.8927,-0.9055,-0.9028,-0.9203,-0.932,-0.932,-0.9354,-0.9582,-0.9916,-1.0105,-1.0255,-1.0331,-1.0519,-1.0781,-1.1074,-1.126,-1.1434,-1.1657,-1.176,-1.1745,-1.1585,-1.1585,-1.1673,-1.1886,-1.1909,-1.2098,-1.2595,-1.2757,-1.2893,-1.3017,-1.2936,-1.3046,-1.3382,-1.3439,-1.3624,-1.3973,-1.4414,-1.4643,-1.4598,-1.4866,-1.5138,-1.5367,-1.5138,-1.5008,-1.5326,-1.528,-1.5325,-1.5652,-1.6037,-1.647,-1.6793,-1.7263,-1.7706,-1.8042,-1.8269,-1.8452,-1.8697,-1.9008,-1.9231,-1.9462,-1.9933,-2.0388,-2.0679,-2.1083,-2.1368,-2.1651,-2.2385,-2.3147,-2.3369,-2.3772,-2.4085,-2.4407,-2.4038,-2.3866,-2.4024,-2.4099,-2.4258,-2.4492,-2.4835,-2.5128,-2.5445,-2.5196,-2.5324,-1.0322,-1.0249,-0.9925,-0.9777,-0.9772,-0.9712,-0.9519,-0.917,-0.8859,-0.8636,-0.8448,-0.7978,-0.8029,-0.8422,-0.8367,-0.8176,-0.7935,-0.8056,-0.811,-0.8073,-0.8143,-0.8312,-0.8431,-0.8487,-0.8478,-0.8452,-0.8542,-0.8601,-0.8591,-0.8608,-0.8603,-0.8711,-0.9054,-0.909,-0.8964,-0.9185,-0.928,-0.9173,-0.914,-0.9273,-0.9446,-0.9771,-0.9992,-1.0105,-1.0288,-1.0556,-1.0812,-1.0931,-1.1074,-1.1446,-1.1446,-1.1521,-1.1601,-1.1632,-1.1632,-1.1706,-1.1818,-1.204,-1.2335,-1.2335,-1.2452,-1.2643,-1.2636,-1.279,-1.309,-1.3236,-1.339,-1.355,-1.3772,-1.403,-1.4291,-1.4604,-1.4955,-1.5267,-1.5123,-1.5197,-1.5429,-1.5314,-1.5409,-1.5758,-1.6096,-1.6324,-1.6766,-1.7109,-1.7398,-1.76,-1.7779,-1.7967,-1.8255,-1.8673,-1.9042,-1.9108,-1.9483,-1.9878,-2.0205,-2.0658,-2.0946,-2.1279,-2.1972,-2.2611,-2.3054,-2.3571,-2.4092,-2.4299,-2.3936,-2.382,-2.3996,-2.4034,-2.3979,-2.429,-2.4578,-2.4721,-2.4773,-2.4664,-2.4778,-1.0322,-1.0277,-1.0263,-1.0208,-1.0244,-1.0001,-0.9563,-0.8911,-0.9087,-0.8863,-0.8245,-0.8141,-0.8181,-0.819,-0.7905,-0.7425,-0.7129,-0.751,-0.7647,-0.7571,-0.7879,-0.802,-0.8028,-0.8233,-0.8233,-0.8176,-0.8473,-0.8626,-0.8607,-0.8617,-0.8595,-0.8628,-0.8905,-0.8891,-0.8787,-0.9241,-0.9268,-0.8887,-0.9222,-0.9378,-0.9095,-0.9218,-0.9521,-0.9846,-1.0105,-1.0218,-1.0293,-1.0443,-1.0631,-1.085,-1.085,-1.0999,-1.1335,-1.1372,-1.1484,-1.1632,-1.1669,-1.1713,-1.175,-1.1737,-1.1861,-1.204,-1.2114,-1.2305,-1.279,-1.2936,-1.309,-1.3455,-1.3455,-1.3687,-1.4004,-1.435,-1.4661,-1.4895,-1.5207,-1.535,-1.5448,-1.5609,-1.5992,-1.6078,-1.6224,-1.6446,-1.6762,-1.6855,-1.6835,-1.6964,-1.7284,-1.7632,-1.7787,-1.8311,-1.876,-1.9031,-1.9241,-1.9473,-1.9868,-2.0291,-2.0582,-2.0905,-2.1368,-2.1875,-2.2651,-2.3335,-2.3823,-2.4171,-2.386,-2.3802,-2.4037,-2.4085,-2.3964,-2.407,-2.4141,-2.4229,-2.4361,-2.4305,-2.445,-1.0257,-1.0237,-1.0053,-1.0031,-0.9998,-0.9468,-0.9017,-0.8684,-0.8285,-0.8109,-0.7981,-0.7845,-0.7845,-0.7977,-0.8007,-0.7846,-0.7592,-0.7846,-0.7942,-0.7932,-0.8236,-0.8369,-0.8377,-0.8442,-0.8442,-0.8402,-0.8499,-0.8615,-0.8601,-0.8613,-0.8602,-0.8649,-0.8819,-0.8904,-0.8833,-0.9025,-0.9026,-0.8872,-0.8964,-0.888,-0.8857,-0.8877,-0.901,-0.9127,-0.9576,-0.9922,-1.0175,-1.0143,-1.0218,-1.0406,-1.0406,-1.0475,-1.0631,-1.0887,-1.0999,-1.0962,-1.1037,-1.1186,-1.1298,-1.1304,-1.1484,-1.1781,-1.1929,-1.2083,-1.2305,-1.2526,-1.2709,-1.2783,-1.2966,-1.3193,-1.3375,-1.3775,-1.416,-1.4363,-1.4517,-1.4671,-1.4756,-1.4934,-1.5136,-1.5472,-1.573,-1.593,-1.6024,-1.6066,-1.6179,-1.6429,-1.6677,-1.6986,-1.7445,-1.7928,-1.835,-1.8693,-1.9042,-1.9384,-1.9648,-1.9998,-2.0313,-2.0625,-2.0992,-2.1386,-2.1997,-2.2444,-2.2889,-2.356,-2.3497,-2.3623,-2.3772,-2.3874,-2.3807,-2.3819,-2.3878,-2.4037,-2.4096,-2.4157,-2.4376,-1.0283,-1.0158,-0.9899,-0.9815,-0.9785,-0.9116,-0.871,-0.85,-0.7955,-0.7716,-0.7632,-0.754,-0.754,-0.7676,-0.7804,-0.7848,-0.7812,-0.8069,-0.8116,-0.7981,-0.8296,-0.8476,-0.8476,-0.8476,-0.8524,-0.8552,-0.846,-0.8416,-0.846,-0.8329,-0.8352,-0.8467,-0.8674,-0.8757,-0.8729,-0.888,-0.8986,-0.8823,-0.8743,-0.8692,-0.8626,-0.8625,-0.8613,-0.8665,-0.9013,-0.943,-0.9884,-0.9846,-0.9841,-0.9992,-0.9997,-1.0067,-1.0218,-1.0513,-1.0669,-1.0625,-1.0663,-1.0775,-1.0962,-1.0993,-1.1149,-1.1484,-1.1706,-1.1818,-1.1892,-1.215,-1.2224,-1.2224,-1.2409,-1.2615,-1.2658,-1.2999,-1.3421,-1.3793,-1.3987,-1.41,-1.4214,-1.4346,-1.4651,-1.5029,-1.5299,-1.5369,-1.5348,-1.5483,-1.5642,-1.5804,-1.6034,-1.643,-1.6875,-1.7486,-1.7913,-1.8268,-1.8793,-1.9154,-1.945,-1.9736,-2.015,-2.0485,-2.0754,-2.1094,-2.1414,-2.1737,-2.2179,-2.2794,-2.3201,-2.3354,-2.3474,-2.3578,-2.3607,-2.3595,-2.3789,-2.3979,-2.4037,-2.4125,-2.4258,-1.0396,-1.0132,-0.9849,-0.9677,-0.9638,-0.9025,-0.8659,-0.8422,-0.8193,-0.769,-0.7275,-0.7377,-0.734,-0.7187,-0.7292,-0.7289,-0.7503,-0.7937,-0.7937,-0.768,-0.8028,-0.8201,-0.8157,-0.8201,-0.834,-0.8516,-0.8182,-0.8056,-0.8185,-0.7899,-0.788,-0.8165,-0.8448,-0.8452,-0.8237,-0.8782,-0.8979,-0.8683,-0.8713,-0.8658,-0.844,-0.8334,-0.8321,-0.8333,-0.8412,-0.8708,-0.9246,-0.943,-0.9506,-0.9587,-0.9544,-0.9771,-1.003,-1.0288,-1.0513,-1.0588,-1.055,-1.0594,-1.0743,-1.0781,-1.0887,-1.1074,-1.1298,-1.1484,-1.1595,-1.1706,-1.1706,-1.1744,-1.1853,-1.1959,-1.1951,-1.2134,-1.2586,-1.3341,-1.359,-1.3743,-1.3892,-1.4189,-1.4501,-1.475,-1.4951,-1.5071,-1.5,-1.5061,-1.5164,-1.5207,-1.5484,-1.5879,-1.6247,-1.6985,-1.7581,-1.7966,-1.8499,-1.9008,-1.9241,-1.9506,-1.9966,-2.0388,-2.0646,-2.0946,-2.129,-2.1626,-2.2063,-2.2635,-2.3184,-2.3359,-2.3337,-2.3424,-2.3479,-2.3509,-2.373,-2.3861,-2.3907,-2.3966,-2.4037,-1.048,-0.9999,-0.9567,-0.9389,-0.9318,-0.85,-0.8128,-0.8144,-0.7632,-0.7241,-0.7125,-0.7158,-0.7107,-0.718,-0.7375,-0.7327,-0.7064,-0.7492,-0.7716,-0.7768,-0.7896,-0.7845,-0.7757,-0.7896,-0.8032,-0.8069,-0.78,-0.7793,-0.7918,-0.7658,-0.7716,-0.7973,-0.8072,-0.8072,-0.7984,-0.8204,-0.8213,-0.8178,-0.8166,-0.8139,-0.8046,-0.7835,-0.7729,-0.775,-0.7893,-0.8093,-0.8241,-0.8594,-0.8822,-0.897,-0.8861,-0.8894,-0.9155,-0.9506,-0.9614,-0.9604,-0.9911,-1.0105,-1.018,-1.0443,-1.0625,-1.0738,-1.0999,-1.1149,-1.1105,-1.1217,-1.1285,-1.1267,-1.1321,-1.1297,-1.1291,-1.1408,-1.1884,-1.2609,-1.2742,-1.2946,-1.3171,-1.3507,-1.3769,-1.3932,-1.4127,-1.4281,-1.4444,-1.4575,-1.4626,-1.4789,-1.5078,-1.5393,-1.5911,-1.6562,-1.7288,-1.7783,-1.8362,-1.8854,-1.9142,-1.9407,-1.9769,-2.0161,-2.0421,-2.0722,-2.1111,-2.1415,-2.1829,-2.2409,-2.297,-2.3264,-2.3213,-2.3217,-2.3291,-2.3403,-2.3522,-2.3641,-2.3717,-2.3806,-2.3878,-1.0314,-0.9974,-0.943,-0.9223,-0.9158,-0.8177,-0.7849,-0.7859,-0.7244,-0.6913,-0.6818,-0.682,-0.6828,-0.6872,-0.7017,-0.6962,-0.6707,-0.6782,-0.6915,-0.7143,-0.7411,-0.7319,-0.7183,-0.7448,-0.7628,-0.7529,-0.7304,-0.7308,-0.758,-0.722,-0.7176,-0.7441,-0.7588,-0.7584,-0.7628,-0.7716,-0.7764,-0.7764,-0.7672,-0.7599,-0.7567,-0.7362,-0.7282,-0.731,-0.7496,-0.7603,-0.771,-0.794,-0.8208,-0.8403,-0.8369,-0.8403,-0.8589,-0.8975,-0.9198,-0.9311,-0.9539,-0.9846,-0.9997,-1.0255,-1.0363,-1.0438,-1.07,-1.0812,-1.072,-1.0754,-1.0782,-1.0826,-1.0797,-1.0785,-1.0805,-1.0898,-1.129,-1.1771,-1.1995,-1.2184,-1.253,-1.3003,-1.3285,-1.341,-1.3614,-1.383,-1.395,-1.4139,-1.4219,-1.4488,-1.4805,-1.5175,-1.5687,-1.6258,-1.6919,-1.7531,-1.8049,-1.852,-1.9011,-1.9341,-1.9605,-1.99,-2.0172,-2.0496,-2.082,-2.1024,-2.1376,-2.2092,-2.2738,-2.3079,-2.309,-2.307,-2.309,-2.3223,-2.3373,-2.3522,-2.3628,-2.3645,-2.3688,-0.9969,-0.992,-0.943,-0.9183,-0.9053,-0.8181,-0.7818,-0.7677,-0.7095,-0.6637,-0.6446,-0.6501,-0.646,-0.634,-0.6281,-0.6227,-0.621,-0.5897,-0.5764,-0.5899,-0.6302,-0.6523,-0.652,-0.683,-0.6962,-0.699,-0.6716,-0.6723,-0.7,-0.6511,-0.6399,-0.6871,-0.701,-0.7095,-0.7183,-0.736,-0.7404,-0.7404,-0.7183,-0.7112,-0.7182,-0.7024,-0.6992,-0.7078,-0.7157,-0.7219,-0.7369,-0.7446,-0.7638,-0.7987,-0.8025,-0.8059,-0.8322,-0.8742,-0.9003,-0.9273,-0.9506,-0.969,-0.9992,-1.003,-1.0067,-1.011,-1.0254,-1.0458,-1.0332,-1.0188,-1.0124,-1.0252,-1.0284,-1.0293,-1.0334,-1.0461,-1.0724,-1.0995,-1.1462,-1.1808,-1.2104,-1.2613,-1.2889,-1.3011,-1.3376,-1.367,-1.3541,-1.3791,-1.4028,-1.4385,-1.4784,-1.5164,-1.555,-1.603,-1.6632,-1.7184,-1.7705,-1.8286,-1.8816,-1.9252,-1.9506,-1.9736,-2.0009,-2.0302,-2.0669,-2.0862,-2.1097,-2.1809,-2.2337,-2.2706,-2.2922,-2.285,-2.2939,-2.3163,-2.3313,-2.3433,-2.345,-2.345,-2.3467,-0.9677,-0.9677,-0.9331,-0.9084,-0.8825,-0.8188,-0.7769,-0.743,-0.6958,-0.6578,-0.6352,-0.618,-0.6081,-0.6014,-0.5891,-0.5758,-0.5623,-0.5322,-0.5099,-0.5015,-0.5149,-0.5638,-0.6035,-0.6077,-0.621,-0.6293,-0.6125,-0.6089,-0.6299,-0.6036,-0.613,-0.6745,-0.6612,-0.6741,-0.7051,-0.683,-0.683,-0.6922,-0.6741,-0.6718,-0.6886,-0.6647,-0.663,-0.6842,-0.6802,-0.6802,-0.683,-0.6834,-0.7099,-0.7599,-0.7526,-0.7522,-0.7748,-0.8012,-0.8208,-0.8408,-0.8746,-0.897,-0.916,-0.9392,-0.9549,-0.9528,-0.967,-0.9621,-0.9627,-0.9453,-0.9395,-0.9471,-0.9467,-0.9535,-0.9638,-0.9786,-0.9988,-1.0321,-1.109,-1.1716,-1.1872,-1.2151,-1.2398,-1.2613,-1.2697,-1.2972,-1.3329,-1.3489,-1.3787,-1.439,-1.4776,-1.5045,-1.5364,-1.5682,-1.6166,-1.6818,-1.7397,-1.8077,-1.8645,-1.909,-1.9417,-1.9605,-1.9868,-2.0161,-2.0561,-2.0926,-2.1181,-2.1602,-2.1875,-2.219,-2.2423,-2.2525,-2.2757,-2.3012,-2.306,-2.312,-2.312,-2.312,-2.3198,-0.948,-0.9575,-0.9331,-0.8981,-0.8577,-0.8035,-0.7542,-0.7085,-0.6631,-0.6417,-0.6232,-0.5835,-0.5753,-0.5872,-0.546,-0.5266,-0.5156,-0.4746,-0.4567,-0.4567,-0.4569,-0.4968,-0.5458,-0.5455,-0.55,-0.5589,-0.5497,-0.5544,-0.5725,-0.5636,-0.5858,-0.608,-0.6166,-0.6207,-0.6302,-0.6169,-0.6077,-0.6245,-0.6119,-0.6219,-0.6536,-0.6341,-0.642,-0.6621,-0.661,-0.6641,-0.6714,-0.6714,-0.6865,-0.7061,-0.7026,-0.7026,-0.7253,-0.7446,-0.7638,-0.7761,-0.8212,-0.8518,-0.8742,-0.9008,-0.9158,-0.9205,-0.9284,-0.9243,-0.9166,-0.9112,-0.9264,-0.91,-0.9096,-0.9187,-0.9327,-0.9518,-0.9734,-1.0079,-1.0776,-1.1279,-1.131,-1.1716,-1.1996,-1.2174,-1.2297,-1.2459,-1.3025,-1.3064,-1.3417,-1.3903,-1.4223,-1.4626,-1.5034,-1.5323,-1.5725,-1.6408,-1.6953,-1.7516,-1.8207,-1.8742,-1.9175,-1.9407,-1.9671,-1.9998,-2.0356,-2.0786,-2.1074,-2.1296,-2.1443,-2.1683,-2.2006,-2.2328,-2.2525,-2.2708,-2.2739,-2.28,-2.283,-2.2878,-2.2957,-0.9286,-0.948,-0.9286,-0.8886,-0.8333,-0.7832,-0.7381,-0.6789,-0.6279,-0.6129,-0.6084,-0.5537,-0.5499,-0.5731,-0.5036,-0.4766,-0.4877,-0.4302,-0.4123,-0.4168,-0.43,-0.4567,-0.4835,-0.501,-0.501,-0.5055,-0.4966,-0.5102,-0.5282,-0.5327,-0.5371,-0.5549,-0.5633,-0.5589,-0.5636,-0.5458,-0.5497,-0.5678,-0.5608,-0.5746,-0.6051,-0.6043,-0.6127,-0.6298,-0.6439,-0.6567,-0.6714,-0.6753,-0.6753,-0.656,-0.6602,-0.6753,-0.6903,-0.7103,-0.7334,-0.7638,-0.7863,-0.8165,-0.8438,-0.8595,-0.8811,-0.8837,-0.9107,-0.9194,-0.8805,-0.8975,-0.9147,-0.8875,-0.9,-0.9187,-0.9323,-0.9578,-0.9734,-0.9926,-1.0308,-1.0504,-1.0656,-1.1216,-1.1709,-1.174,-1.2019,-1.2212,-1.2459,-1.2644,-1.2868,-1.3605,-1.3928,-1.4316,-1.4651,-1.4836,-1.5378,-1.6104,-1.6527,-1.6902,-1.7635,-1.8395,-1.8826,-1.9175,-1.944,-1.9769,-2.0031,-2.0432,-2.0807,-2.1063,-2.119,-2.1474,-2.1882,-2.2111,-2.2278,-2.2414,-2.2494,-2.2555,-2.2629,-2.2708,-2.2757,-0.873,-0.8977,-0.913,-0.8786,-0.8137,-0.7939,-0.749,-0.6745,-0.6192,-0.6024,-0.5934,-0.5396,-0.5195,-0.5188,-0.4715,-0.4462,-0.4438,-0.4034,-0.3855,-0.3765,-0.4166,-0.4168,-0.4302,-0.4525,-0.4748,-0.4748,-0.475,-0.4792,-0.4837,-0.4837,-0.5015,-0.5324,-0.5144,-0.5277,-0.55,-0.5188,-0.5232,-0.5469,-0.5338,-0.5402,-0.5594,-0.5635,-0.5701,-0.5816,-0.5964,-0.618,-0.6374,-0.6451,-0.6412,-0.6412,-0.6486,-0.6598,-0.683,-0.6907,-0.7011,-0.7153,-0.7425,-0.7609,-0.7576,-0.777,-0.7897,-0.8116,-0.813,-0.8006,-0.8208,-0.8483,-0.8654,-0.8688,-0.8951,-0.9229,-0.9375,-0.9391,-0.952,-0.9675,-0.9874,-1.0028,-1.0085,-1.0611,-1.1083,-1.1334,-1.1397,-1.1584,-1.2089,-1.2305,-1.2694,-1.3294,-1.3662,-1.4047,-1.4222,-1.4371,-1.4879,-1.5503,-1.5933,-1.6294,-1.7168,-1.7886,-1.8392,-1.8741,-1.9042,-1.9341,-1.9638,-1.9998,-2.0356,-2.0646,-2.0914,-2.1265,-2.1632,-2.1737,-2.1874,-2.203,-2.2185,-2.2216,-2.2247,-2.2389,-2.2555,-0.8531,-0.8825,-0.8931,-0.863,-0.8038,-0.7836,-0.7441,-0.6742,-0.6089,-0.5889,-0.5817,-0.5237,-0.4945,-0.4987,-0.4568,-0.4296,-0.4096,-0.3855,-0.3631,-0.354,-0.3808,-0.3855,-0.3765,-0.39,-0.4078,-0.4212,-0.4078,-0.4121,-0.4255,-0.4257,-0.4344,-0.4699,-0.4563,-0.4565,-0.4835,-0.461,-0.4691,-0.4954,-0.5017,-0.5037,-0.5178,-0.5249,-0.5323,-0.5413,-0.5515,-0.5631,-0.5909,-0.575,-0.575,-0.5828,-0.5941,-0.6251,-0.6637,-0.6676,-0.6643,-0.6646,-0.6783,-0.6945,-0.6943,-0.7109,-0.7331,-0.752,-0.7638,-0.7696,-0.7906,-0.8184,-0.8527,-0.8598,-0.8892,-0.9281,-0.9422,-0.937,-0.9414,-0.9536,-0.9679,-0.981,-0.9926,-1.0301,-1.0681,-1.0926,-1.109,-1.131,-1.1615,-1.1934,-1.2205,-1.2672,-1.2867,-1.3206,-1.3725,-1.3873,-1.4167,-1.4709,-1.5178,-1.577,-1.6693,-1.7378,-1.793,-1.8226,-1.8506,-1.8731,-1.8988,-1.9429,-1.99,-2.0226,-2.055,-2.0999,-2.1316,-2.1391,-2.1529,-2.1749,-2.1874,-2.1831,-2.1894,-2.2123,-2.2278,-0.8482,-0.8676,-0.8726,-0.8432,-0.7988,-0.7733,-0.7288,-0.6742,-0.5937,-0.5737,-0.572,-0.504,-0.4802,-0.4802,-0.4568,-0.4205,-0.3918,-0.3631,-0.3406,-0.3226,-0.3361,-0.3406,-0.3361,-0.3274,-0.3318,-0.3633,-0.3452,-0.3496,-0.3673,-0.3673,-0.3719,-0.3805,-0.376,-0.3851,-0.381,-0.3807,-0.4024,-0.4355,-0.4455,-0.4603,-0.4728,-0.4828,-0.4943,-0.5126,-0.5085,-0.5162,-0.5398,-0.5321,-0.5201,-0.5279,-0.5356,-0.5786,-0.6212,-0.6363,-0.629,-0.63,-0.6434,-0.6525,-0.6641,-0.6812,-0.6998,-0.7117,-0.7484,-0.7613,-0.7506,-0.8009,-0.8393,-0.8568,-0.8774,-0.9282,-0.9473,-0.9338,-0.938,-0.9489,-0.9642,-0.9853,-0.9995,-1.02,-1.0528,-1.0656,-1.0909,-1.1122,-1.1341,-1.1622,-1.1809,-1.2034,-1.2197,-1.2484,-1.3016,-1.3443,-1.3757,-1.419,-1.4738,-1.535,-1.6225,-1.6727,-1.7278,-1.7625,-1.7891,-1.8206,-1.8442,-1.8965,-1.9429,-1.9857,-2.0237,-2.0603,-2.0903,-2.0999,-2.1169,-2.1434,-2.1486,-2.1411,-2.158,-2.1843,-2.1968,-0.8088,-0.8137,-0.8382,-0.8283,-0.7988,-0.7733,-0.7285,-0.6742,-0.5937,-0.5636,-0.5575,-0.4993,-0.4713,-0.4619,-0.4477,-0.4207,-0.3783,-0.3406,-0.3092,-0.2957,-0.3002,-0.2957,-0.2781,-0.2691,-0.2693,-0.2782,-0.2915,-0.3138,-0.3272,-0.327,-0.3181,-0.3226,-0.3181,-0.3181,-0.3317,-0.3353,-0.3562,-0.3838,-0.3914,-0.4041,-0.4225,-0.4291,-0.4465,-0.4737,-0.4698,-0.4851,-0.5046,-0.5204,-0.5282,-0.5323,-0.5631,-0.5825,-0.5941,-0.5941,-0.6034,-0.6266,-0.6398,-0.6421,-0.638,-0.6515,-0.6663,-0.6708,-0.6869,-0.6988,-0.7101,-0.7571,-0.8009,-0.8328,-0.8614,-0.9124,-0.9467,-0.9181,-0.9083,-0.9223,-0.9479,-0.9814,-0.9988,-1.0282,-1.0633,-1.0688,-1.0798,-1.0909,-1.1136,-1.1401,-1.1713,-1.1985,-1.2212,-1.2453,-1.2855,-1.3153,-1.3411,-1.3905,-1.4439,-1.5074,-1.5762,-1.6145,-1.6568,-1.6895,-1.7235,-1.7726,-1.8051,-1.8529,-1.9008,-1.933,-1.966,-1.9998,-2.0259,-2.0485,-2.0646,-2.0839,-2.0903,-2.0987,-2.1126,-2.1285,-2.1549,-0.8137,-0.8041,-0.8588,-0.8584,-0.8187,-0.7935,-0.7487,-0.6892,-0.6037,-0.5584,-0.5422,-0.5036,-0.4724,-0.4588,-0.4403,-0.3972,-0.3384,-0.3005,-0.2735,-0.2601,-0.2511,-0.2511,-0.2334,-0.2244,-0.2155,-0.2199,-0.2377,-0.2556,-0.2645,-0.2511,-0.2598,-0.2647,-0.2647,-0.2825,-0.3002,-0.3178,-0.3325,-0.3481,-0.3562,-0.3617,-0.3781,-0.3882,-0.4116,-0.4272,-0.4311,-0.4387,-0.4618,-0.4501,-0.4582,-0.4662,-0.4854,-0.5046,-0.5243,-0.5392,-0.5565,-0.6013,-0.6225,-0.627,-0.6115,-0.6179,-0.6132,-0.6249,-0.6332,-0.6481,-0.6731,-0.7126,-0.758,-0.7979,-0.857,-0.8931,-0.892,-0.876,-0.8721,-0.8777,-0.8997,-0.9244,-0.9568,-0.9934,-1.0254,-1.0594,-1.0892,-1.096,-1.088,-1.1192,-1.1614,-1.1927,-1.2178,-1.2469,-1.2731,-1.2907,-1.3118,-1.3473,-1.3953,-1.4393,-1.4983,-1.5343,-1.577,-1.6142,-1.6652,-1.7137,-1.7614,-1.8085,-1.8418,-1.8707,-1.9042,-1.9473,-1.9769,-2.0064,-2.0118,-2.0215,-2.0366,-2.0495,-2.0571,-2.0732,-2.1031,-0.8137,-0.8091,-0.8737,-0.8786,-0.8386,-0.8035,-0.764,-0.7036,-0.6037,-0.5584,-0.5536,-0.5079,-0.4783,-0.4596,-0.4199,-0.3663,-0.2872,-0.2602,-0.2333,-0.2154,-0.2063,-0.2019,-0.1974,-0.1885,-0.175,-0.175,-0.1794,-0.184,-0.2064,-0.2018,-0.197,-0.2141,-0.2323,-0.2504,-0.2717,-0.286,-0.3137,-0.3252,-0.3276,-0.3284,-0.341,-0.3567,-0.3802,-0.3999,-0.3882,-0.3997,-0.4231,-0.4153,-0.4077,-0.4196,-0.4314,-0.4431,-0.4662,-0.4737,-0.5079,-0.5642,-0.5811,-0.5845,-0.5773,-0.5742,-0.5717,-0.579,-0.5973,-0.6086,-0.6336,-0.6742,-0.7293,-0.775,-0.8136,-0.8494,-0.8344,-0.8186,-0.825,-0.8382,-0.8382,-0.8521,-0.9144,-0.9625,-0.9971,-1.0376,-1.085,-1.106,-1.0999,-1.1274,-1.1731,-1.2074,-1.2347,-1.241,-1.2664,-1.2723,-1.2885,-1.3071,-1.3394,-1.3684,-1.4107,-1.4499,-1.4927,-1.5331,-1.6039,-1.668,-1.7171,-1.7639,-1.7906,-1.823,-1.8707,-1.9108,-1.9374,-1.9551,-1.966,-1.9758,-1.9911,-2.0009,-2.0118,-2.0313,-2.0571,-0.7842,-0.8038,-0.8336,-0.8432,-0.8333,-0.7882,-0.7484,-0.7089,-0.6087,-0.5586,-0.5584,-0.5031,-0.4738,-0.4541,-0.4018,-0.3443,-0.2888,-0.2466,-0.211,-0.184,-0.166,-0.157,-0.1525,-0.148,-0.148,-0.148,-0.148,-0.1615,-0.1789,-0.1789,-0.1775,-0.1848,-0.1904,-0.2,-0.2272,-0.2516,-0.2658,-0.2813,-0.2796,-0.2874,-0.3087,-0.318,-0.3413,-0.3645,-0.3763,-0.3724,-0.3841,-0.3843,-0.396,-0.404,-0.4389,-0.4584,-0.474,-0.4851,-0.4965,-0.5143,-0.5256,-0.5295,-0.52,-0.5274,-0.534,-0.5372,-0.5419,-0.5522,-0.588,-0.6379,-0.6913,-0.7307,-0.7477,-0.758,-0.7675,-0.7664,-0.7701,-0.7895,-0.8067,-0.8473,-0.9036,-0.9211,-0.9579,-1.0122,-1.0593,-1.1028,-1.1216,-1.1533,-1.1865,-1.2202,-1.2442,-1.248,-1.2528,-1.2562,-1.2652,-1.2846,-1.3016,-1.3285,-1.3515,-1.3859,-1.4253,-1.4664,-1.5331,-1.6145,-1.668,-1.7128,-1.7464,-1.7833,-1.8257,-1.8412,-1.8423,-1.8609,-1.9015,-1.933,-1.9462,-1.9561,-1.9671,-1.99,-2.0118,-0.7391,-0.7836,-0.8535,-0.8684,-0.8382,-0.7985,-0.7587,-0.7039,-0.6084,-0.5584,-0.5486,-0.5035,-0.4587,-0.4246,-0.3759,-0.3212,-0.2604,-0.23,-0.1974,-0.166,-0.1436,-0.1391,-0.1436,-0.1391,-0.1391,-0.1346,-0.1299,-0.1333,-0.1506,-0.1541,-0.1531,-0.1436,-0.1603,-0.1766,-0.1921,-0.2153,-0.2259,-0.2339,-0.2413,-0.2484,-0.2563,-0.2707,-0.2863,-0.3059,-0.3176,-0.3255,-0.3294,-0.3413,-0.3606,-0.3684,-0.388,-0.3921,-0.4038,-0.4036,-0.3956,-0.4105,-0.4243,-0.455,-0.491,-0.4963,-0.4966,-0.4999,-0.5053,-0.5191,-0.5582,-0.6015,-0.6336,-0.6406,-0.6627,-0.681,-0.6902,-0.6891,-0.6992,-0.7203,-0.7565,-0.8009,-0.8496,-0.8893,-0.9223,-0.9796,-1.034,-1.0755,-1.1176,-1.1517,-1.1748,-1.2,-1.222,-1.2347,-1.2364,-1.2352,-1.2467,-1.2613,-1.2783,-1.296,-1.3155,-1.3425,-1.3856,-1.4239,-1.4551,-1.5355,-1.6096,-1.6594,-1.6914,-1.7144,-1.7374,-1.7453,-1.7432,-1.7929,-1.8525,-1.8826,-1.9042,-1.9088,-1.9144,-1.9417,-1.9693,-0.6892,-0.7484,-0.8485,-0.8638,-0.8187,-0.7988,-0.759,-0.6989,-0.6137,-0.5636,-0.5377,-0.491,-0.4354,-0.3936,-0.3572,-0.3074,-0.2246,-0.2214,-0.1887,-0.157,-0.1391,-0.1346,-0.1301,-0.1301,-0.1256,-0.1255,-0.1068,-0.1015,-0.1089,-0.1247,-0.1237,-0.1113,-0.1529,-0.168,-0.1757,-0.1974,-0.2133,-0.2085,-0.2132,-0.2182,-0.2278,-0.2313,-0.2392,-0.251,-0.2628,-0.2746,-0.2746,-0.2863,-0.3098,-0.3255,-0.3215,-0.3295,-0.353,-0.3426,-0.3374,-0.3469,-0.3604,-0.388,-0.4296,-0.4465,-0.4528,-0.459,-0.4749,-0.4946,-0.523,-0.5682,-0.5859,-0.5726,-0.5944,-0.6069,-0.6115,-0.6222,-0.6449,-0.6646,-0.6856,-0.7269,-0.7731,-0.826,-0.8788,-0.9373,-0.9935,-1.0482,-1.0896,-1.1353,-1.1603,-1.1793,-1.1963,-1.2138,-1.2199,-1.2204,-1.2352,-1.2531,-1.2687,-1.2811,-1.2876,-1.3126,-1.3517,-1.3865,-1.4182,-1.4647,-1.5459,-1.5972,-1.6293,-1.6444,-1.6595,-1.6869,-1.711,-1.7582,-1.8015,-1.8105,-1.8224,-1.8452,-1.8603,-1.8888,-1.9274,-0.6342,-0.6942,-0.7739,-0.7939,-0.7646,-0.7633,-0.7335,-0.6792,-0.6192,-0.5689,-0.5227,-0.4607,-0.4195,-0.388,-0.3482,-0.2948,-0.2211,-0.2202,-0.1885,-0.157,-0.1391,-0.1301,-0.1256,-0.1166,-0.103,-0.0848,-0.0795,-0.07,-0.0603,-0.0877,-0.1073,-0.1269,-0.1448,-0.161,-0.1689,-0.1773,-0.1894,-0.1905,-0.1927,-0.1991,-0.205,-0.204,-0.2079,-0.2354,-0.2472,-0.251,-0.251,-0.2504,-0.2585,-0.2779,-0.2724,-0.2807,-0.2989,-0.2948,-0.2963,-0.3095,-0.311,-0.3341,-0.3605,-0.3879,-0.3923,-0.4027,-0.4329,-0.4693,-0.4902,-0.523,-0.5322,-0.5229,-0.5435,-0.5557,-0.5653,-0.5855,-0.6119,-0.635,-0.6613,-0.7073,-0.7466,-0.7797,-0.8343,-0.8943,-0.9512,-1.003,-1.0341,-1.0742,-1.1403,-1.1607,-1.1777,-1.1976,-1.2091,-1.2136,-1.2313,-1.2462,-1.2646,-1.2719,-1.2679,-1.2993,-1.3401,-1.3723,-1.4024,-1.441,-1.4937,-1.5296,-1.5548,-1.5862,-1.6029,-1.6407,-1.6628,-1.6636,-1.6789,-1.7141,-1.7471,-1.7842,-1.8218,-1.8529,-1.8942,-0.5989,-0.6342,-0.6836,-0.7138,-0.7338,-0.7338,-0.7036,-0.6539,-0.6142,-0.5691,-0.5135,-0.4451,-0.403,-0.3846,-0.3346,-0.2834,-0.2318,-0.2218,-0.1846,-0.157,-0.1391,-0.1256,-0.1211,-0.1164,-0.1115,-0.0795,-0.0698,-0.0683,-0.0666,-0.0614,-0.0767,-0.1005,-0.1171,-0.1163,-0.1283,-0.141,-0.1485,-0.1601,-0.1593,-0.1622,-0.1616,-0.157,-0.1531,-0.1492,-0.1727,-0.1649,-0.1567,-0.1777,-0.1939,-0.2054,-0.2136,-0.2322,-0.248,-0.2471,-0.2594,-0.2729,-0.2671,-0.2782,-0.3001,-0.3345,-0.3655,-0.3893,-0.4235,-0.4509,-0.4583,-0.4818,-0.4933,-0.493,-0.4997,-0.5156,-0.5322,-0.5657,-0.6024,-0.6185,-0.6515,-0.6909,-0.7237,-0.7563,-0.7954,-0.8576,-0.9055,-0.9572,-0.9823,-1.0066,-1.0809,-1.1411,-1.1613,-1.1765,-1.1895,-1.2042,-1.222,-1.2335,-1.2521,-1.2594,-1.2577,-1.2885,-1.3276,-1.3615,-1.3908,-1.4262,-1.4577,-1.4455,-1.4696,-1.5062,-1.5285,-1.5387,-1.5387,-1.5314,-1.5636,-1.6283,-1.6914,-1.7492,-1.7821,-1.8152,-1.8573,-0.5589,-0.5889,-0.5989,-0.6387,-0.6936,-0.6936,-0.6686,-0.6287,-0.6092,-0.5691,-0.5133,-0.4256,-0.3736,-0.3567,-0.3179,-0.2591,-0.2219,-0.2046,-0.18,-0.157,-0.1391,-0.1256,-0.1211,-0.1165,-0.107,-0.079,-0.0604,-0.0592,-0.0539,-0.0366,-0.0479,-0.0671,-0.0786,-0.0905,-0.1102,-0.11,-0.1179,-0.1258,-0.1375,-0.1258,-0.1257,-0.1178,-0.11,-0.0943,-0.1061,-0.1061,-0.1015,-0.1195,-0.1339,-0.1485,-0.1617,-0.1777,-0.1918,-0.2017,-0.2134,-0.2217,-0.2258,-0.2325,-0.2648,-0.3013,-0.3457,-0.3733,-0.399,-0.4211,-0.4361,-0.4461,-0.4597,-0.4728,-0.4794,-0.4894,-0.5123,-0.5554,-0.5892,-0.6053,-0.6387,-0.6749,-0.704,-0.7335,-0.7727,-0.8182,-0.8624,-0.9011,-0.9434,-0.9722,-1.0429,-1.109,-1.1386,-1.157,-1.1786,-1.1919,-1.2062,-1.2208,-1.2333,-1.238,-1.246,-1.2877,-1.3284,-1.3664,-1.397,-1.4089,-1.4255,-1.407,-1.4032,-1.4398,-1.4509,-1.4322,-1.4395,-1.4603,-1.5065,-1.5631,-1.6354,-1.7116,-1.7474,-1.7793,-1.8128,-0.5135,-0.5534,-0.5338,-0.5689,-0.6387,-0.6387,-0.6239,-0.5942,-0.5892,-0.5591,-0.5024,-0.4,-0.3401,-0.3207,-0.2853,-0.2391,-0.2004,-0.185,-0.166,-0.1436,-0.1391,-0.1301,-0.1165,-0.1073,-0.0976,-0.0708,-0.056,-0.0461,-0.0375,-0.0282,-0.0316,-0.0472,-0.0668,-0.0904,-0.1258,-0.1454,-0.1454,-0.1375,-0.1493,-0.1297,-0.1022,-0.0943,-0.0825,-0.0664,-0.0663,-0.0624,-0.0616,-0.0793,-0.09,-0.0901,-0.1246,-0.1448,-0.1489,-0.1778,-0.1932,-0.2065,-0.2194,-0.2401,-0.2661,-0.29,-0.3179,-0.3491,-0.3701,-0.3861,-0.4028,-0.4197,-0.4364,-0.4495,-0.4661,-0.4861,-0.519,-0.5521,-0.5723,-0.5991,-0.6321,-0.6618,-0.6913,-0.7237,-0.7624,-0.7852,-0.8079,-0.8398,-0.8914,-0.9466,-1.0129,-1.0688,-1.109,-1.1379,-1.1582,-1.1707,-1.1845,-1.1835,-1.1941,-1.2108,-1.2244,-1.2833,-1.3286,-1.3708,-1.3857,-1.3873,-1.3857,-1.3757,-1.3751,-1.3859,-1.3819,-1.3763,-1.3872,-1.4021,-1.4489,-1.4974,-1.5983,-1.6717,-1.7087,-1.7441,-1.7746,-0.5037,-0.5338,-0.524,-0.534,-0.5639,-0.5787,-0.5737,-0.5441,-0.514,-0.4937,-0.4752,-0.3908,-0.3488,-0.3207,-0.2745,-0.2279,-0.1918,-0.1799,-0.1615,-0.1256,-0.1301,-0.1256,-0.1118,-0.102,-0.0832,-0.06,-0.0417,-0.0286,-0.012,-0.0118,-0.0315,-0.0471,-0.0707,-0.1022,-0.1061,-0.114,-0.114,-0.1297,-0.1336,-0.1218,-0.0904,-0.0863,-0.074,-0.0423,-0.0384,-0.0343,-0.0263,-0.0441,-0.0474,-0.0476,-0.0822,-0.1053,-0.1093,-0.1317,-0.147,-0.157,-0.165,-0.1749,-0.215,-0.2523,-0.2958,-0.3192,-0.3393,-0.3591,-0.3928,-0.3961,-0.4061,-0.4228,-0.4461,-0.4625,-0.4824,-0.5352,-0.5653,-0.5921,-0.6222,-0.6552,-0.6881,-0.7232,-0.7554,-0.7624,-0.7787,-0.8117,-0.8571,-0.9113,-0.9779,-1.039,-1.0832,-1.1059,-1.128,-1.1361,-1.1466,-1.1379,-1.1443,-1.1664,-1.2007,-1.2456,-1.2871,-1.3217,-1.3329,-1.3341,-1.3332,-1.3366,-1.3247,-1.3253,-1.3261,-1.3235,-1.334,-1.3477,-1.3797,-1.4375,-1.5382,-1.6177,-1.6585,-1.6961,-1.7316,-0.486,-0.5087,-0.5037,-0.5037,-0.5087,-0.5336,-0.5338,-0.509,-0.4537,-0.4384,-0.4412,-0.3783,-0.3299,-0.3076,-0.2674,-0.2316,-0.197,-0.1672,-0.157,-0.1166,-0.1031,-0.0942,-0.0848,-0.084,-0.0525,-0.0298,-0.0208,-0.0122,0.008,0.0118,-0.0157,-0.0511,-0.0746,-0.0746,-0.0786,-0.0825,-0.0864,-0.0983,-0.0983,-0.0825,-0.0627,-0.0545,-0.0539,-0.0228,-0.0075,-0.0037,-0.0073,-0.0107,-0.0141,-0.0177,-0.0383,-0.0646,-0.0718,-0.0852,-0.1008,-0.1076,-0.1311,-0.1412,-0.1748,-0.2287,-0.2656,-0.2859,-0.306,-0.336,-0.3661,-0.3594,-0.3758,-0.3925,-0.4189,-0.4422,-0.4683,-0.5213,-0.5493,-0.5756,-0.6088,-0.6416,-0.6699,-0.7018,-0.7223,-0.7293,-0.7433,-0.7797,-0.822,-0.8797,-0.9402,-1.0009,-1.0586,-1.0776,-1.094,-1.1028,-1.1059,-1.0954,-1.0973,-1.1224,-1.152,-1.1881,-1.2311,-1.2762,-1.2819,-1.2792,-1.2935,-1.2998,-1.2815,-1.2694,-1.2844,-1.2926,-1.2821,-1.2949,-1.3425,-1.4006,-1.4823,-1.5506,-1.6017,-1.6435,-1.6811,-0.4753,-0.4776,-0.478,-0.478,-0.4834,-0.5087,-0.519,-0.5087,-0.4336,-0.4183,-0.4334,-0.3562,-0.3095,-0.2727,-0.2421,-0.2136,-0.1901,-0.1348,-0.1166,-0.1031,-0.0673,-0.0493,-0.0403,-0.0356,-0.0087,0.0129,0.0253,0.0286,0.0324,0.0238,-0.0039,-0.0275,-0.0236,-0.0314,-0.0432,-0.0393,-0.0432,-0.055,-0.0589,-0.0352,-0.0117,-0.0269,-0.0151,0.0075,0.0257,0.0181,0.0143,0.0035,0.0035,-0.0069,-0.0308,-0.0373,-0.0472,-0.0605,-0.0706,-0.0908,-0.1244,-0.1344,-0.1412,-0.1951,-0.2288,-0.249,-0.2824,-0.3058,-0.3259,-0.3293,-0.3424,-0.358,-0.3806,-0.4207,-0.4604,-0.4943,-0.5241,-0.5567,-0.5929,-0.6176,-0.6404,-0.6645,-0.6817,-0.6929,-0.704,-0.7339,-0.7889,-0.8468,-0.9043,-0.9652,-1.0168,-1.0364,-1.0555,-1.0713,-1.0688,-1.055,-1.0624,-1.0803,-1.1082,-1.1337,-1.1668,-1.2082,-1.2228,-1.2252,-1.2462,-1.2503,-1.2296,-1.2253,-1.2558,-1.2603,-1.2407,-1.2661,-1.3222,-1.3839,-1.4297,-1.4985,-1.5574,-1.5904,-1.6237,-0.4566,-0.4494,-0.4644,-0.4728,-0.478,-0.4885,-0.4935,-0.4834,-0.4234,-0.4085,-0.4079,-0.3431,-0.2995,-0.2663,-0.2361,-0.182,-0.1307,-0.0852,-0.0493,-0.0269,-0.0135,-0.0135,0.0,0.0221,0.0434,0.0595,0.0749,0.0816,0.0678,0.051,0.0432,0.0314,0.0157,0.0079,0.0157,0.0314,0.0157,-0.0039,-0.0078,0.0078,0.023,0.0114,0.0223,0.0362,0.0464,0.0388,0.0347,0.0241,0.024,0.0136,-0.0169,-0.0304,-0.0337,-0.0404,-0.0438,-0.0471,-0.0774,-0.1008,-0.1042,-0.148,-0.1884,-0.2052,-0.2354,-0.2757,-0.2991,-0.3084,-0.308,-0.3195,-0.3416,-0.3786,-0.4183,-0.4513,-0.4938,-0.5403,-0.5691,-0.5907,-0.6129,-0.6361,-0.6546,-0.675,-0.6828,-0.7181,-0.767,-0.8112,-0.8689,-0.93,-0.9716,-0.9945,-1.0142,-1.0301,-1.0269,-1.013,-1.0104,-1.0244,-1.0464,-1.0718,-1.1053,-1.1378,-1.1517,-1.1651,-1.171,-1.1736,-1.1649,-1.1763,-1.1995,-1.1982,-1.1833,-1.2261,-1.2727,-1.3127,-1.3602,-1.4366,-1.5031,-1.5386,-1.5674,-0.4239,-0.4309,-0.4409,-0.4606,-0.4732,-0.477,-0.4686,-0.4433,-0.4133,-0.3984,-0.3919,-0.3375,-0.2975,-0.2657,-0.2358,-0.1813,-0.1077,-0.0718,-0.0314,0.0,0.0404,0.0448,0.0579,0.0795,0.1039,0.1183,0.1282,0.1345,0.1189,0.0903,0.0746,0.0668,0.0511,0.0589,0.0746,0.0943,0.1022,0.0782,0.0622,0.0576,0.0568,0.0483,0.0432,0.0599,0.0661,0.0581,0.0541,0.0472,0.0472,0.0405,0.0067,0.0,-0.0067,-0.0101,-0.0169,-0.0236,-0.0505,-0.0639,-0.0706,-0.1144,-0.1446,-0.1681,-0.1848,-0.2168,-0.2451,-0.2601,-0.2602,-0.2692,-0.2991,-0.3288,-0.37,-0.4109,-0.4669,-0.5195,-0.5399,-0.5571,-0.5832,-0.61,-0.6333,-0.6587,-0.6841,-0.7131,-0.7511,-0.7892,-0.8269,-0.878,-0.9204,-0.9498,-0.9696,-0.9894,-0.9792,-0.9606,-0.9574,-0.9617,-0.9865,-1.0107,-1.044,-1.0701,-1.0841,-1.0943,-1.0978,-1.1105,-1.1193,-1.1267,-1.1353,-1.1393,-1.1462,-1.1726,-1.213,-1.2536,-1.3048,-1.3716,-1.4367,-1.4807,-1.507,-0.3828,-0.4133,-0.4188,-0.4382,-0.4655,-0.4724,-0.4453,-0.4016,-0.3952,-0.3915,-0.3752,-0.3302,-0.2895,-0.2551,-0.2264,-0.1772,-0.108,-0.0538,-0.0045,0.0134,0.0762,0.0987,0.1076,0.1341,0.1574,0.1793,0.1878,0.1841,0.1784,0.1492,0.1178,0.1021,0.114,0.1257,0.1374,0.1493,0.1532,0.1565,0.1304,0.1166,0.1153,0.0869,0.0489,0.0834,0.0856,0.0775,0.0674,0.0674,0.0742,0.0573,0.0472,0.0405,0.027,0.0169,0.0067,0.0,-0.0202,-0.0236,-0.037,-0.0707,-0.1009,-0.121,-0.1441,-0.1619,-0.1831,-0.2114,-0.2181,-0.2239,-0.2502,-0.2893,-0.3322,-0.361,-0.4083,-0.4634,-0.4968,-0.5281,-0.5618,-0.5882,-0.6171,-0.6413,-0.6644,-0.6916,-0.7172,-0.7526,-0.7917,-0.8301,-0.8651,-0.8985,-0.9177,-0.9408,-0.9323,-0.9125,-0.9125,-0.913,-0.9288,-0.956,-0.9821,-1.0053,-1.0243,-1.0434,-1.0587,-1.0689,-1.0775,-1.0815,-1.0859,-1.1075,-1.1261,-1.1414,-1.1668,-1.2201,-1.2693,-1.3157,-1.3637,-1.4101,-1.4577,-0.329,-0.3638,-0.4022,-0.425,-0.4315,-0.4334,-0.4205,-0.3914,-0.3673,-0.3413,-0.3093,-0.2854,-0.2614,-0.2334,-0.2242,-0.1668,-0.0764,-0.0359,0.0359,0.0806,0.1254,0.1295,0.1433,0.1741,0.1981,0.2119,0.224,0.2257,0.21,0.1884,0.1806,0.1845,0.1767,0.1649,0.1923,0.1925,0.1922,0.2066,0.1927,0.1663,0.1572,0.1395,0.1183,0.1165,0.1076,0.0975,0.0909,0.0842,0.0809,0.0708,0.0573,0.0472,0.0438,0.0405,0.0371,0.0337,0.0169,0.0135,0.0067,-0.0168,-0.0403,-0.0633,-0.0827,-0.1012,-0.1262,-0.1581,-0.1784,-0.1866,-0.2102,-0.2518,-0.2899,-0.3174,-0.3543,-0.4083,-0.457,-0.4955,-0.5378,-0.568,-0.5967,-0.6197,-0.6406,-0.6648,-0.6876,-0.7204,-0.7596,-0.7917,-0.8204,-0.8463,-0.856,-0.8727,-0.8803,-0.8674,-0.8695,-0.8727,-0.8885,-0.9069,-0.9378,-0.9552,-0.9766,-0.9958,-1.0194,-1.0158,-1.0175,-1.0325,-1.0438,-1.0594,-1.0743,-1.0907,-1.1267,-1.1744,-1.2114,-1.2452,-1.2753,-1.3149,-1.3775,-0.2301,-0.2743,-0.3261,-0.3571,-0.367,-0.3842,-0.3716,-0.3383,-0.3288,-0.2909,-0.2435,-0.2504,-0.243,-0.2169,-0.2084,-0.148,-0.0538,-0.0135,0.0493,0.1165,0.1468,0.1459,0.1681,0.1991,0.2044,0.2182,0.2468,0.252,0.2326,0.2237,0.2237,0.2275,0.2041,0.2002,0.2275,0.2157,0.2108,0.2272,0.2229,0.2074,0.1868,0.1642,0.1405,0.1313,0.1244,0.1143,0.1109,0.1009,0.101,0.0909,0.0741,0.0674,0.0607,0.054,0.0472,0.0472,0.0405,0.0438,0.0438,0.0337,0.01,-0.0132,-0.0196,-0.0388,-0.0833,-0.1166,-0.1319,-0.1438,-0.1875,-0.2332,-0.2617,-0.2897,-0.3398,-0.3932,-0.4182,-0.4467,-0.4922,-0.5291,-0.5598,-0.5857,-0.6069,-0.6301,-0.6563,-0.6913,-0.7237,-0.7368,-0.7657,-0.7814,-0.7944,-0.809,-0.8158,-0.8263,-0.8284,-0.8469,-0.8688,-0.8805,-0.8973,-0.9146,-0.9305,-0.9557,-0.9772,-0.9626,-0.9571,-0.9728,-0.9879,-0.996,-1.0105,-1.0325,-1.0625,-1.1037,-1.1372,-1.1713,-1.1972,-1.2268,-1.2804,-0.1342,-0.1843,-0.2377,-0.2716,-0.2909,-0.3237,-0.3116,-0.2738,-0.2786,-0.2528,-0.2035,-0.2354,-0.2352,-0.2198,-0.1904,-0.1216,-0.0583,-0.009,0.0628,0.1156,0.1542,0.1529,0.1695,0.1996,0.2139,0.227,0.2468,0.2535,0.2473,0.2431,0.2431,0.247,0.2392,0.2313,0.2392,0.2347,0.2255,0.2318,0.2327,0.2271,0.2071,0.1811,0.1556,0.1412,0.1311,0.1244,0.1176,0.1176,0.121,0.1144,0.101,0.0909,0.0809,0.0741,0.0674,0.064,0.0674,0.064,0.0607,0.0573,0.0365,0.0196,0.0259,0.0031,-0.045,-0.0679,-0.0856,-0.12,-0.1657,-0.2032,-0.2313,-0.2639,-0.3167,-0.3747,-0.3938,-0.4104,-0.4529,-0.4938,-0.5197,-0.5483,-0.5693,-0.5919,-0.6213,-0.6556,-0.6819,-0.6913,-0.7012,-0.7138,-0.7274,-0.7395,-0.7489,-0.7698,-0.7875,-0.8098,-0.8366,-0.8482,-0.8549,-0.875,-0.8917,-0.9168,-0.9306,-0.913,-0.9084,-0.9198,-0.9316,-0.9392,-0.9544,-0.9771,-1.0067,-1.0363,-1.0625,-1.0931,-1.1186,-1.1496,-1.1832,-0.1059,-0.184,-0.2163,-0.2302,-0.2395,-0.2587,-0.2542,-0.2315,-0.2318,-0.2264,-0.2173,-0.2168,-0.2212,-0.2168,-0.1936,-0.1391,-0.0718,-0.009,0.0487,0.1051,0.1412,0.1521,0.1675,0.1979,0.2282,0.2449,0.2529,0.2527,0.2518,0.251,0.2588,0.2707,0.2352,0.2353,0.2627,0.25,0.2286,0.2344,0.2362,0.2269,0.2105,0.1887,0.1654,0.1445,0.1277,0.1244,0.1244,0.1277,0.1378,0.1379,0.1312,0.1177,0.1076,0.101,0.0975,0.0908,0.0942,0.0908,0.0875,0.0771,0.056,0.0418,0.038,0.0153,-0.0208,-0.0352,-0.0587,-0.0974,-0.1391,-0.1724,-0.2031,-0.2264,-0.2731,-0.3471,-0.3882,-0.4079,-0.4387,-0.4552,-0.4719,-0.4925,-0.5135,-0.5357,-0.5654,-0.6028,-0.6469,-0.6573,-0.6684,-0.6788,-0.6843,-0.6872,-0.691,-0.7189,-0.7469,-0.7548,-0.772,-0.7934,-0.8023,-0.8257,-0.8481,-0.8669,-0.8755,-0.8647,-0.8632,-0.8742,-0.8818,-0.8894,-0.9084,-0.9241,-0.9468,-0.9765,-0.9916,-1.018,-1.0443,-1.0758,-1.1169]}]]